[[{"header":{"parameterUnit":"m.s-1","parameterCategory":1,"la1":30.6,"la2":28.766,"lo1":-90.7593,"lo2":-88.6598,"dx":0.0162,"dy":0.0183,"nx":116,"ny":114,"refTime":"2023-01-01T18:00:00:Z","depth":0,"parameterNumber":2,"parameterNumberName":"U-component_of_WINDS"},"data":[0.0,0.0,0.0,0.0,0.0,0.0,0.0,0.0,0.0,0.0,0.0,0.0,0.0,0.0,0.0,0.0,0.0,0.0,0.0,0.0,0.0,0.0,0.0,0.0,0.0,0.0,0.0,0.0,0.0,0.0,0.0,0.0,0.0,0.0,0.0,0.0,0.0,0.0,0.0,0.0,0.0,0.0,0.0,0.0,0.0,0.0,0.0,0.0,0.0,0.0,0.0,0.0,0.0,0.0,0.0,0.0,0.0,0.0,0.0,0.0,0.0,0.0,0.0,0.0,0.0,0.0,0.0,0.0,0.0,0.0,0.0,0.0,0.0,0.0,0.0,0.0,0.0,0.0,0.0,0.0,0.0,0.0,0.0,0.0,0.0,0.0,0.0,0.0,0.0,0.0,0.0,0.0,0.0,0.0,0.0,0.0,0.0,0.0,0.0,0.0,0.0,0.0,0.0,0.0,0.0,0.0,0.0,0.0,0.0,0.0,0.0,0.0,0.0,0.0,0.0,0.0,0.0,0.0,0.0,0.0,0.0,0.0,0.0,0.0,0.0,0.0,0.0,0.0,0.0,0.0,0.0,0.0,0.0,0.0,0.0,0.0,0.0,0.0,0.0,0.0,0.0,0.0,0.0,0.0,0.0,0.0,0.0,0.0,0.0,0.0,0.0,0.0,0.0,0.0,0.0,0.0,0.0,0.0,0.0,0.0,0.0,0.0,0.0,0.0,0.0,0.0,0.0,0.0,0.0,0.0,0.0,0.0,0.0,0.0,0.0,0.0,0.0,0.0,0.0,0.0,0.0,0.0,0.0,0.0,0.0,0.0,0.0,0.0,0.0,0.0,0.0,0.0,0.0,0.0,0.0,0.0,0.0,0.0,0.0,0.0,0.0,0.0,0.0,0.0,0.0,0.0,0.0,0.0,0.0,0.0,0.0,0.0,0.0,0.0,0.0,0.0,0.0,0.0,0.0,0.0,0.0,0.0,0.0,0.0,0.0,0.0,0.0,0.0,0.0,0.0,0.0,0.0,0.0,0.0,0.0,0.0,0.0,0.0,0.0,0.0,0.0,0.0,0.0,0.0,0.0,0.0,0.0,0.0,0.0,0.0,0.0,0.0,0.0,0.0,0.0,0.0,0.0,0.0,0.0,0.0,0.0,0.0,0.0,0.0,0.0,0.0,0.0,0.0,0.0,0.0,0.0,0.0,0.0,0.0,0.0,0.0,0.0,0.0,0.0,0.0,0.0,0.0,0.0,0.0,0.0,0.0,0.0,0.0,0.0,0.0,0.0,0.0,0.0,0.0,0.0,0.0,0.0,0.0,0.0,0.0,0.0,0.0,0.0,0.0,0.0,0.0,0.0,0.0,0.0,0.0,0.0,0.0,0.0,0.0,0.0,0.0,0.0,0.0,0.0,0.0,0.0,0.0,0.0,0.0,0.0,0.0,0.0,0.0,0.0,0.0,0.0,0.0,0.0,0.0,0.0,0.0,0.0,0.0,0.0,0.0,0.0,0.0,0.0,0.0,0.0,0.0,0.0,0.0,0.0,0.0,0.0,0.0,0.0,0.0,0.0,0.0,0.0,0.0,0.0,0.0,0.0,0.0,0.0,0.0,0.0,0.0,0.0,0.0,0.0,0.0,0.0,0.0,0.0,0.0,0.0,0.0,0.0,0.0,0.0,0.0,0.0,0.0,0.0,0.0,0.0,0.0,0.0,0.0,0.0,0.0,0.0,0.0,0.0,0.0,0.0,0.0,0.0,0.0,0.0,0.0,0.0,0.0,0.0,0.0,0.0,0.0,0.0,0.0,0.0,0.0,0.0,0.0,0.0,0.0,0.0,0.0,0.0,0.0,0.0,0.0,0.0,0.0,0.0,0.0,0.0,0.0,0.0,0.0,0.0,0.0,0.0,0.0,0.0,0.0,0.0,0.0,0.0,0.0,0.0,0.0,0.0,0.0,0.0,0.0,0.0,0.0,0.0,0.0,0.0,0.0,0.0,0.0,0.0,0.0,0.0,0.0,0.0,0.0,0.0,0.0,0.0,0.0,0.0,0.0,0.0,0.0,0.0,0.0,0.0,0.0,0.0,0.0,0.0,0.0,0.0,0.0,0.0,0.0,0.0,0.0,0.0,0.0,0.0,0.0,0.0,0.0,0.0,0.0,0.0,0.0,0.0,0.0,0.0,0.0,0.0,0.0,0.0,0.0,0.0,0.0,0.0,0.0,0.0,0.0,0.0,0.0,0.0,0.0,0.0,0.0,0.0,0.0,0.0,0.0,0.0,0.0,0.0,0.0,0.0,0.0,0.0,0.0,0.0,0.0,0.0,0.0,0.0,0.0,0.0,0.0,0.0,0.0,0.0,0.0,0.0,0.0,0.0,0.0,0.0,0.0,0.0,0.0,0.0,0.0,0.0,0.0,0.0,0.0,0.0,0.0,0.0,0.0,0.0,0.0,0.0,0.0,0.0,0.0,0.0,0.0,0.0,0.0,0.0,0.0,0.0,0.0,0.0,0.0,0.0,0.0,0.0,0.0,0.0,0.0,0.0,0.0,0.0,0.0,0.0,0.0,0.0,0.0,0.0,0.0,0.0,0.0,0.0,0.0,0.0,0.0,0.0,0.0,0.0,0.0,0.0,0.0,0.0,0.0,0.0,0.0,0.0,0.0,0.0,0.0,0.0,0.0,0.0,0.0,0.0,0.0,0.0,0.0,0.0,0.0,0.0,0.0,0.0,0.0,0.0,0.0,0.0,0.0,0.0,0.0,0.0,0.0,0.0,0.0,0.0,0.0,0.0,0.0,0.0,0.0,0.0,0.0,0.0,0.0,0.0,0.0,0.0,0.0,0.0,0.0,0.0,0.0,0.0,0.0,0.0,0.0,0.0,0.0,0.0,0.0,0.0,0.0,0.0,0.0,0.0,0.0,0.0,0.0,0.0,0.0,0.0,0.0,0.0,0.0,0.0,0.0,0.0,0.0,0.0,0.0,0.0,0.0,0.0,0.0,0.0,0.0,0.0,0.0,0.0,0.0,0.0,0.0,0.0,0.0,0.0,0.0,0.0,0.0,0.0,0.0,0.0,0.0,0.0,0.0,0.0,0.0,0.0,0.0,0.0,0.0,0.0,0.0,0.0,0.0,0.0,0.0,0.0,0.0,0.0,0.0,0.0,0.0,0.0,0.0,0.0,0.0,0.0,0.0,0.0,0.0,0.0,0.0,0.0,0.0,0.0,0.0,0.0,0.0,0.0,0.0,0.0,0.0,0.0,0.0,0.0,0.0,0.0,0.0,0.0,0.0,0.0,0.0,0.0,0.0,0.0,0.0,0.0,0.0,0.0,0.0,0.0,0.0,0.0,0.0,0.0,0.0,0.0,0.0,0.0,0.0,0.0,0.0,0.0,0.0,0.0,0.0,0.0,0.0,0.0,0.0,0.0,0.0,0.0,0.0,0.0,0.0,0.0,0.0,0.0,0.0,0.0,0.0,0.0,0.0,0.0,0.0,0.0,0.0,0.0,0.0,0.0,0.0,0.0,0.0,0.0,0.0,0.0,0.0,0.0,0.0,0.0,0.0,0.0,0.0,0.0,0.0,0.0,0.0,0.0,0.0,0.0,0.0,0.0,0.0,0.0,0.0,0.0,0.0,0.0,0.0,0.0,0.0,0.0,0.0,0.0,0.0,0.0,0.0,0.0,0.0,0.0,0.0,0.0,0.0,0.0,0.0,0.0,0.0,0.0,0.0,0.0,0.0,0.0,0.0,0.0,0.0,0.0,0.0,0.0,0.0,0.0,0.0,0.0,0.0,0.0,0.0,0.0,0.0,0.0,0.0,0.0,0.0,0.0,0.0,0.0,0.0,0.0,0.0,0.0,0.0,0.0,0.0,0.0,0.0,0.0,0.0,0.0,0.0,0.0,0.0,0.0,0.0,0.0,0.0,0.0,0.0,0.0,0.0,0.0,0.0,0.0,0.0,0.0,0.0,0.0,0.0,0.0,0.0,0.0,0.0,0.0,0.0,0.0,0.0,0.0,0.0,0.0,0.0,0.0,0.0,0.0,0.0,0.0,0.0,0.0,0.0,0.0,0.0,0.0,0.0,0.0,0.0,0.0,0.0,0.0,0.0,0.0,0.0,0.0,0.0,0.0,0.0,0.0,0.0,0.0,0.0,0.0,0.0,0.0,0.0,0.0,0.0,0.0,0.0,0.0,0.0,0.0,0.0,0.0,0.0,0.0,0.0,0.0,0.0,0.0,0.0,0.0,0.0,0.0,0.0,0.0,0.0,0.0,0.0,0.0,0.0,0.0,0.0,0.0,0.0,0.0,0.0,0.0,0.0,0.0,0.0,0.0,0.0,0.0,0.0,0.0,0.0,0.0,0.0,0.0,0.0,0.0,0.0,0.0,0.0,0.0,0.0,0.0,0.0,0.0,0.0,0.0,0.0,0.0,0.0,0.0,0.0,0.0,0.0,0.0,0.0,0.0,0.0,0.0,0.0,0.0,0.0,0.0,0.0,0.0,0.0,0.0,0.0,0.0,0.0,0.0,0.0,0.0,0.0,0.0,0.0,0.0,0.0,0.0,0.0,0.0,0.0,0.0,0.0,0.0,0.0,0.0,0.0,0.0,0.0,0.0,0.0,0.0,0.0,0.0,0.0,0.0,0.0,0.0,0.0,0.0,0.0,0.0,0.0,0.0,0.0,0.0,0.0,0.0,0.0,0.0,0.0,0.0,0.0,0.0,0.0,0.0,0.0,0.0,0.0,0.0,0.0,0.0,0.0,0.0,0.0,0.0,0.0,0.0,0.0,0.0,0.0,0.0,0.0,0.0,0.0,0.0,0.0,0.0,0.0,0.0,0.0,0.0,0.0,0.0,0.0,0.0,0.0,0.0,0.0,0.0,0.0,0.0,0.0,0.0,0.0,0.0,0.0,0.0,0.0,0.0,0.0,0.0,0.0,0.0,0.0,0.0,0.0,0.0,0.0,0.0,0.0,0.0,0.0,0.0,0.0,0.0,0.0,0.0,0.0,0.0,0.0,0.0,0.0,0.0,0.0,0.0,0.0,0.0,0.0,0.0,0.0,0.0,0.0,0.0,0.0,0.0,0.0,0.0,0.0,0.0,0.0,0.0,0.0,0.0,0.0,0.0,0.0,0.0,0.0,0.0,0.0,0.0,0.0,0.0,0.0,0.0,0.0,0.0,0.0,0.0,0.0,0.0,0.0,0.0,0.0,0.0,0.0,0.0,0.0,0.0,0.0,0.0,0.0,0.0,0.0,0.0,0.0,0.0,0.0,0.0,0.0,0.0,0.0,0.0,0.0,0.0,0.0,0.0,0.0,0.0,0.0,0.0,0.0,0.0,0.0,0.0,0.0,0.0,0.0,0.0,0.0,0.0,0.0,0.0,0.0,0.0,0.0,0.0,0.0,0.0,0.0,0.0,0.0,0.0,0.0,0.0,0.0,0.0,0.0,0.0,0.0,0.0,0.0,0.0,0.0,0.0,0.0,0.0,0.0,0.0,0.0,0.0,0.0,0.0,0.0,0.0,0.0,0.0,0.0,0.0,0.0,0.0,0.0,0.0,0.0,0.0,0.0,0.0,0.0,0.0,0.0,0.0,0.0,0.0,0.0,0.0,0.0,0.0,0.0,0.0,0.0,0.0,0.0,0.0,0.0,0.0,0.0,0.0,0.0,0.0,0.0,0.0,0.0,0.0,0.0,0.0,0.0,0.0,0.0,0.0,0.0,0.0,0.0,0.0,0.0,0.0,0.0,0.0,0.0,0.0,0.0,0.0,0.0,0.0,0.0,0.0,0.0,0.0,0.0,0.0,0.0,0.0,0.0,0.0,0.0,0.0,0.0,0.0,0.0,0.0,0.0,0.0,0.0,0.0,0.0,0.0,0.0,0.0,0.0,0.0,0.0,0.0,0.0,0.0,0.0,0.0,0.0,0.0,0.0,0.0,0.0,0.0,0.0,0.0,0.0,0.0,0.0,0.0,0.0,0.0,0.0,0.0,0.0,0.0,0.0,0.0,0.0,0.0,0.0,0.0,0.0,0.0,0.0,0.0,0.0,0.0,0.0,0.0,0.0,0.0,0.0,0.0,0.0,0.0,0.0,-6.5881,-6.4911,0.0,0.0,0.0,0.0,0.0,0.0,0.0,0.0,0.0,0.0,0.0,0.0,0.0,0.0,0.0,0.0,0.0,0.0,0.0,0.0,0.0,0.0,0.0,0.0,0.0,0.0,0.0,0.0,0.0,0.0,0.0,0.0,0.0,0.0,0.0,0.0,-5.2212,-5.1785,-5.3028,-5.4052,-5.4813,-5.3924,-5.3251,-5.2763,0.0,0.0,0.0,0.0,0.0,0.0,0.0,0.0,0.0,0.0,0.0,0.0,0.0,0.0,0.0,0.0,0.0,0.0,0.0,0.0,0.0,0.0,0.0,0.0,0.0,0.0,0.0,0.0,0.0,0.0,0.0,0.0,0.0,0.0,0.0,0.0,0.0,0.0,0.0,0.0,0.0,0.0,0.0,0.0,0.0,0.0,0.0,0.0,0.0,0.0,0.0,0.0,0.0,0.0,0.0,0.0,0.0,0.0,0.0,0.0,0.0,0.0,0.0,0.0,0.0,0.0,0.0,0.0,0.0,0.0,-6.7861,-6.6891,0.0,0.0,0.0,0.0,0.0,0.0,0.0,0.0,0.0,0.0,0.0,0.0,0.0,0.0,0.0,0.0,0.0,0.0,0.0,0.0,0.0,0.0,0.0,-5.0724,-5.1231,-5.2254,-5.2422,-5.2802,0.0,0.0,0.0,0.0,0.0,0.0,-5.2628,-5.3327,-5.3417,-5.2828,-5.4874,-5.6297,-5.7084,-5.721,-5.6885,-5.6076,-5.4752,0.0,0.0,0.0,0.0,0.0,0.0,0.0,0.0,0.0,0.0,0.0,0.0,0.0,0.0,0.0,0.0,0.0,0.0,0.0,0.0,0.0,0.0,0.0,0.0,0.0,0.0,0.0,0.0,0.0,0.0,0.0,0.0,0.0,0.0,0.0,0.0,0.0,0.0,0.0,0.0,0.0,0.0,0.0,0.0,0.0,0.0,0.0,0.0,0.0,0.0,0.0,0.0,0.0,0.0,0.0,0.0,0.0,0.0,0.0,0.0,0.0,0.0,0.0,-6.8882,-6.9577,-7.0309,-7.1011,-7.2143,-7.3315,-6.9684,-6.9215,-7.0777,-6.8601,0.0,0.0,0.0,0.0,0.0,0.0,0.0,0.0,0.0,0.0,0.0,0.0,0.0,0.0,0.0,0.0,0.0,0.0,0.0,-5.0443,-5.1353,-5.1617,-5.2117,-5.3142,-5.3312,-5.3421,-5.3575,0.0,0.0,0.0,0.0,-5.3521,-5.3521,-5.3637,-5.3987,-5.4569,-5.7761,-5.9793,-6.0646,-6.1344,-6.1608,-6.1367,-5.8264,-5.6441,-5.5664,0.0,0.0,0.0,0.0,0.0,0.0,0.0,0.0,0.0,0.0,0.0,0.0,0.0,0.0,0.0,0.0,0.0,0.0,0.0,0.0,0.0,0.0,0.0,0.0,0.0,0.0,0.0,0.0,0.0,0.0,0.0,0.0,0.0,0.0,0.0,0.0,0.0,0.0,0.0,0.0,0.0,-5.9767,-6.0565,0.0,0.0,0.0,0.0,0.0,0.0,0.0,0.0,0.0,0.0,0.0,0.0,0.0,-7.1117,-7.3473,-7.3475,-7.3503,-7.3568,-7.3635,-7.3708,-7.3822,-7.3939,-7.4134,-7.429,-7.3744,0.0,-7.1792,-7.1443,0.0,0.0,0.0,0.0,0.0,0.0,0.0,0.0,0.0,0.0,0.0,0.0,0.0,0.0,0.0,0.0,0.0,0.0,0.0,0.0,0.0,-5.2905,-5.3918,-5.5431,-5.6025,-5.6394,-5.6419,-5.5946,0.0,0.0,-5.4521,-5.4311,-5.4304,-5.5278,-5.6657,-5.8489,-6.0484,-6.1927,-6.2851,-6.32,-6.3301,-6.3239,-6.2214,-6.073,-5.8841,-5.7912,0.0,0.0,0.0,0.0,0.0,0.0,0.0,0.0,0.0,0.0,0.0,0.0,0.0,0.0,0.0,0.0,0.0,0.0,0.0,0.0,0.0,0.0,0.0,0.0,0.0,0.0,0.0,0.0,0.0,0.0,0.0,0.0,0.0,0.0,0.0,0.0,0.0,0.0,0.0,-5.8918,-6.0979,-6.0853,-6.1291,-6.1057,0.0,0.0,0.0,0.0,0.0,0.0,0.0,0.0,0.0,-7.1289,-7.185,-7.2926,-7.4531,-7.4561,-7.4547,-7.4572,-7.5504,-7.5969,-7.6008,-7.6984,-7.7414,-7.7414,-7.7414,-7.6438,-7.4759,-7.3315,-7.2065,-7.0972,0.0,0.0,0.0,0.0,-7.118,-7.1768,0.0,0.0,0.0,0.0,0.0,0.0,0.0,0.0,0.0,0.0,0.0,0.0,-5.3805,-5.4792,-5.6162,-5.8046,-5.8828,-5.9145,-5.8952,-5.8139,-5.725,-5.6351,-5.5551,-5.5149,-5.5141,-5.7032,-5.9204,-6.1617,-6.2695,-6.3612,-6.4318,-6.4527,-6.4629,-6.4598,-6.5219,-6.4161,-6.178,-6.0532,-5.9344,-5.8053,0.0,0.0,0.0,0.0,0.0,0.0,0.0,0.0,0.0,0.0,0.0,0.0,0.0,0.0,0.0,0.0,0.0,0.0,0.0,0.0,0.0,0.0,0.0,0.0,0.0,0.0,0.0,0.0,0.0,0.0,0.0,0.0,0.0,0.0,0.0,0.0,0.0,-6.075,-6.2075,-6.1646,-6.2192,-6.2153,0.0,0.0,0.0,0.0,0.0,0.0,-6.9606,-7.0667,-7.176,-7.2876,-7.3585,-7.4375,-7.523,-7.5254,-7.5316,-7.5501,-7.6828,-7.7531,-7.7804,-7.9092,-7.9717,-7.9717,-7.9717,-7.8975,-7.757,-7.5227,-7.39,-7.3275,-7.2807,-7.2495,-7.2417,-7.3041,-7.3705,-7.4447,0.0,0.0,0.0,0.0,0.0,0.0,0.0,0.0,0.0,0.0,0.0,-5.3683,-5.6302,-5.7484,-5.8855,-6.0722,-6.0935,-6.0654,-5.988,-5.9029,-5.8139,-5.728,-5.648,-5.604,-5.604,-5.848,-6.0635,-6.2422,-6.4128,-6.5045,-6.5172,-6.5988,-6.6353,-6.6384,-6.6423,-6.5389,-6.3669,-6.3592,-6.2519,-6.0692,-5.813,0.0,0.0,0.0,0.0,0.0,0.0,0.0,0.0,0.0,0.0,0.0,0.0,0.0,0.0,0.0,0.0,0.0,0.0,0.0,0.0,0.0,0.0,0.0,0.0,0.0,0.0,0.0,0.0,0.0,0.0,0.0,0.0,0.0,0.0,0.0,0.0,0.0,0.0,-6.5036,-6.5192,0.0,0.0,0.0,0.0,-6.9946,-6.9601,-7.0663,-7.3885,-7.3427,-7.3855,-7.556,-7.5663,-7.6089,-7.6982,-7.6961,-7.7375,-7.8194,-7.8272,-7.878,-7.9561,-7.9678,-7.9717,-7.9717,-7.9717,-7.9639,-7.9444,-7.7648,-7.5462,-7.3354,-7.4095,-7.39,-7.3549,-7.5969,-7.6867,-7.714,0.0,0.0,0.0,-5.0372,-5.0372,-5.0258,-4.9969,-5.0827,-5.1664,-5.2104,-5.4381,-5.6409,-5.7577,-5.9496,-6.1285,-6.2586,-6.3265,-6.3245,-6.2404,-6.1543,-6.019,-5.8217,-5.7848,-5.8205,-5.9279,-6.1842,-6.3505,-6.4166,-6.5872,-6.6489,-6.6019,-6.6345,-6.6493,-6.6469,-6.7013,-6.6566,-6.5373,-6.4868,-6.3902,-6.2588,-6.0576,-5.8595,0.0,0.0,0.0,0.0,0.0,0.0,0.0,0.0,0.0,0.0,0.0,0.0,0.0,0.0,0.0,0.0,0.0,0.0,0.0,0.0,0.0,0.0,0.0,0.0,0.0,0.0,0.0,0.0,0.0,0.0,0.0,0.0,0.0,0.0,0.0,0.0,0.0,-6.6205,-6.6751,0.0,-6.6712,-6.7959,-6.9245,-7.0492,-7.1817,-7.3119,-7.4314,-7.4714,-7.5146,-7.5765,-7.6875,-7.7609,-7.7948,-7.8476,-7.8936,-7.9248,-7.9795,-8.0224,-8.0576,-8.1122,-8.1356,-8.1356,-8.1356,-8.1044,-8.0498,-7.9873,-7.8741,-7.7453,-7.7726,-7.7687,-7.7531,-7.8429,-7.9131,-7.9717,0.0,-4.9893,0.0,-4.9893,-4.9893,-4.9893,-4.9893,-5.112,-5.2275,-5.293,-5.5859,-5.8285,-5.9365,-6.1582,-6.3544,-6.4819,-6.5208,-6.5025,-6.4184,-6.3052,-6.1389,-5.9145,-5.9029,-6.0112,-6.2356,-6.4097,-6.5461,-6.6349,-6.7473,-6.779,-6.7315,-6.7315,-6.7299,-6.7273,-6.7855,-6.7733,-6.7116,-6.6573,-6.5644,-6.4367,-6.2665,-6.0963,-5.93,0.0,0.0,0.0,0.0,0.0,0.0,0.0,0.0,0.0,0.0,0.0,0.0,0.0,0.0,0.0,0.0,0.0,0.0,0.0,0.0,0.0,0.0,0.0,0.0,0.0,0.0,0.0,0.0,0.0,0.0,0.0,0.0,0.0,0.0,-6.5894,-6.7135,-6.7135,-6.792,-6.8427,-6.8427,-6.9985,-7.1349,-7.2245,-7.3882,-7.4951,-7.5264,-7.5893,-7.6365,-7.6672,-7.7812,-7.8544,-7.884,-7.941,-7.999,-8.0576,-8.1161,-8.1747,-8.2293,-8.2879,-8.3152,-8.3152,-8.3152,-8.2801,-8.2293,-8.2293,-8.1942,-8.1356,-8.081,-8.0576,-8.0654,-8.12,-8.1786,-8.2293,-4.9866,-4.9893,-4.9893,-4.9893,-4.9931,-4.9931,-4.9931,-5.0743,-5.1988,-5.3742,-5.6358,-5.9102,-6.1743,-6.3719,-6.5567,-6.7335,-6.6688,-6.5876,-6.5102,-6.34,-6.1737,-6.0074,-6.0035,-6.1621,-6.4986,-6.5141,-6.637,-6.881,-6.881,-6.884,-6.8887,-6.8887,-6.8887,-6.8887,-6.8926,-6.8898,-6.881,-6.881,-6.7861,-6.6147,-6.4493,-6.3758,-6.3449,0.0,0.0,0.0,0.0,0.0,0.0,0.0,0.0,0.0,0.0,0.0,0.0,0.0,0.0,0.0,0.0,0.0,0.0,0.0,0.0,0.0,0.0,0.0,0.0,0.0,0.0,0.0,0.0,0.0,0.0,0.0,0.0,0.0,-6.678,-6.7525,-6.8071,-6.811,-6.8894,-7.0068,-7.1661,-7.1895,-7.2986,-7.5519,-7.5713,-7.6092,-7.6965,-7.7082,-7.7512,-7.8357,-7.8434,-7.8889,-7.9738,-7.9801,-8.0654,-8.2332,-8.2371,-8.323,-8.4792,-8.4792,-8.4792,-8.4792,-8.4792,-8.4792,-8.4792,-8.4792,-8.4792,-8.4636,-8.2996,-8.2371,-8.2567,-8.4206,-8.4792,-8.4792,-4.9979,-4.9893,-4.9893,-4.9893,-5.041,-5.0827,-5.0827,-5.2092,-5.368,-5.5479,-5.8061,-6.0571,-6.2692,-6.4556,-6.6174,-6.7374,-6.6688,-6.6108,-6.5876,-6.429,-6.3129,-6.2675,-6.3245,-6.4599,-6.6766,-6.8003,-6.8692,-6.881,-6.943,-6.9459,-6.8887,-6.8887,-6.8868,-6.8878,-6.9488,-6.943,-6.8837,-6.9417,-6.9058,-6.8003,-6.6882,-6.5334,-6.3681,0.0,0.0,0.0,0.0,0.0,0.0,0.0,0.0,0.0,0.0,0.0,0.0,0.0,0.0,0.0,0.0,0.0,0.0,0.0,0.0,0.0,0.0,0.0,0.0,0.0,0.0,0.0,0.0,0.0,0.0,0.0,-6.7171,-6.8449,-6.8572,-6.9323,-7.0102,-7.0687,-7.1505,-7.2245,-7.2713,-7.3882,-7.4934,-7.5635,-7.6298,-7.6755,-7.7004,-7.7671,-7.8139,-7.8398,-7.9644,-8.041,-8.0621,-8.1867,-8.2684,-8.3191,-8.3816,-8.4362,-8.4792,-8.4792,-8.4792,-8.4792,-8.4792,-8.4792,-8.4792,-8.4792,-8.4792,-8.4753,-8.4284,-8.4128,-8.4167,-8.4636,-8.4792,-8.4909,-5.0984,-5.0927,-5.094,-5.094,-5.1357,-5.1684,-5.1684,-5.2864,-5.4529,-5.6673,-5.8991,-6.1299,-6.3578,-6.5433,-6.69,-6.7879,-6.7177,-6.6541,-6.6193,-6.4628,-6.4184,-6.5257,-6.576,-6.6843,-6.8506,-6.9512,-6.9959,-6.9864,-7.0328,-7.0349,-6.9914,-6.9914,-6.9894,-6.9864,-7.0367,-7.0318,-6.9899,-7.0303,-7.0032,-6.928,-6.8706,-6.7441,-6.5837,-6.5992,-6.5721,-6.518,-6.429,-6.4097,-6.3797,-6.0925,0.0,0.0,0.0,0.0,0.0,0.0,0.0,0.0,0.0,0.0,0.0,0.0,0.0,0.0,0.0,0.0,0.0,0.0,0.0,0.0,0.0,0.0,0.0,0.0,-6.8511,-6.9791,-7.0269,-7.1099,-7.1806,-7.2284,-7.3103,-7.3804,-7.4155,-7.5441,-7.6415,-7.6765,-7.7595,-7.8096,-7.8109,-7.8618,-7.9125,-7.9492,-8.0462,-8.1346,-8.202,-8.2996,-8.3855,-8.4597,-8.5104,-8.5534,-8.5885,-8.5885,-8.5885,-8.5885,-8.5885,-8.5885,-8.5885,-8.5885,-8.5885,-8.5846,0.0,0.0,0.0,0.0,-8.5885,-8.5963,-5.2326,-5.2361,-5.2404,-5.2404,-5.248,-5.257,-5.257,-5.3348,-5.4914,-5.7639,-5.9439,-6.1542,-6.4321,-6.6076,-6.7485,-6.8509,-6.7757,-6.6902,-6.614,-6.484,-6.5218,-6.7694,-6.7887,-6.8738,-7.0402,-7.044,-7.075,-7.1446,-7.1562,-7.1523,-7.1446,-7.1446,-7.1446,-7.1446,-7.133,-7.1291,-7.128,-7.1224,-7.0849,-7.0264,-7.0208,-6.9651,-6.8738,-6.8042,-6.7771,-6.7694,-6.692,-6.6185,-6.5412,-6.4338,0.0,0.0,0.0,0.0,0.0,0.0,0.0,0.0,0.0,0.0,0.0,0.0,0.0,0.0,0.0,0.0,0.0,0.0,0.0,0.0,0.0,0.0,0.0,0.0,-6.9476,-7.0983,-7.1829,-7.2776,-7.3301,-7.3136,-7.396,-7.4895,-7.5752,-7.6649,-7.7506,-7.8363,-7.9172,-7.9603,-7.9608,-7.9762,0.0,0.0,0.0,-8.201,-8.3504,-8.3699,-8.4558,-8.608,-8.6197,-8.6666,-8.7404,-8.7404,-8.7446,-8.7564,-8.7564,-8.7603,-8.7681,-8.7681,-8.7681,-8.7603,-8.6744,-8.6392,-8.651,-8.7368,-8.7642,-8.7564,-5.2537,-5.2317,-5.2347,-5.2404,-5.2987,-5.3442,-5.3442,-5.4139,-5.592,-5.9261,-6.0122,-6.1718,-6.5076,-6.5923,-6.6868,-6.847,-6.717,-6.6201,-6.6091,-6.6503,-6.7578,-6.9435,-7.017,-7.1369,-7.3109,-7.3148,-7.2877,-7.2336,-7.3032,-7.3032,-7.2336,-7.2336,-7.2336,-7.2336,-7.1601,-7.1269,-7.1224,-7.1213,-7.1487,-7.1953,-7.2001,-7.0695,-6.8854,-6.9319,-6.9512,-6.9473,-6.9319,-6.9164,-6.87,-6.6456,-6.5605,-6.5064,-6.2665,-6.1698,0.0,0.0,0.0,0.0,0.0,0.0,0.0,0.0,0.0,0.0,0.0,0.0,0.0,0.0,0.0,0.0,0.0,0.0,0.0,-6.877,-7.0868,-7.2493,-7.273,-7.4106,-7.4593,-7.3253,-7.4505,-7.5791,-7.6649,-7.7545,-7.8402,-7.922,-7.9483,-7.9603,-7.9608,-8.0347,-8.0811,-8.0973,-8.2373,-8.322,-8.3504,-8.487,-8.5768,-8.6119,-8.6822,0.0,-8.7404,-8.7404,-8.7798,-8.8461,-8.8461,-8.8852,-8.9516,-8.9516,-8.9516,-8.9398,-8.854,-8.8188,-8.8305,-8.9164,-8.9047,-8.854,-5.3547,-5.3459,-5.352,-5.3596,-5.3951,-5.4269,-5.4299,-5.4655,-5.5852,-5.8561,-5.9383,-6.0772,-6.3501,-6.4718,-6.5652,-6.6536,-6.6213,-6.6144,-6.6676,-6.7581,-6.885,-7.0512,-7.1474,-7.2375,-7.3226,-7.369,-7.369,-7.3264,-7.3264,-7.3032,-7.2607,-7.2142,-7.1938,-7.1866,-7.144,-7.1213,-7.1154,-7.1118,-7.1607,-7.2417,-7.2417,-7.1953,-7.1279,-7.1308,-7.1291,-7.1253,-7.0789,-7.0943,-7.0982,-6.8816,-6.839,-6.839,-6.6263,-6.4986,-6.398,0.0,0.0,0.0,0.0,0.0,0.0,0.0,0.0,0.0,0.0,0.0,0.0,0.0,0.0,-6.5932,-6.6415,0.0,-6.9228,-6.9655,-7.152,-7.2935,-7.3005,-7.4452,-7.5266,-7.4494,-7.5947,-7.7155,-7.7623,-7.8792,-7.9727,-8.0111,-8.063,-8.0909,-8.091,-8.1803,-8.23,-8.2297,-8.3582,-8.4431,-8.4792,-8.5651,-8.6314,-8.6744,-8.7173,-8.7645,-8.8045,-8.8035,-8.8543,-8.9333,-8.9363,-8.9594,-8.9984,-8.9984,-8.9984,-8.9987,-8.9994,-8.9717,-8.9398,-8.9828,-8.9717,-8.9411,-5.4472,-5.4576,-5.4657,-5.4752,-5.4767,-5.4799,-5.486,-5.489,-5.5519,-5.7353,-5.8339,-5.9573,-6.1454,-6.2977,-6.3935,-6.4089,-6.5382,-6.6483,-6.7236,-6.8502,-6.9849,-7.1394,-7.2186,-7.2761,-7.3071,-7.3767,-7.4077,-7.3883,-7.3342,-7.2916,-7.2568,-7.1861,-7.1479,-7.1433,-7.1267,-7.1142,-7.1081,-7.103,-7.1609,-7.2598,-7.2559,-7.3202,-7.4064,-7.3338,-7.2843,-7.2457,-7.1761,-7.1954,-7.2341,-7.0949,-7.1065,-7.1452,-6.98,-6.8292,-6.6833,-6.4986,-6.3942,0.0,0.0,0.0,0.0,0.0,0.0,0.0,0.0,-6.5876,-6.6486,-6.6621,-6.6919,-6.7381,-6.8155,-6.9142,-7.0044,-7.0704,-7.2258,-7.3479,-7.3714,-7.5043,-7.6093,-7.6385,-7.7533,-7.8396,-7.8753,-8.0,-8.0851,-8.1052,-8.1772,-8.2253,-8.2446,-8.3181,-8.367,-8.3857,-8.4715,-8.545,-8.609,-8.6285,-8.6792,-8.7651,-8.7651,-8.8126,-8.8959,-8.8943,-8.9411,-9.0242,-9.0423,-9.0492,-9.0492,-9.0492,-9.0492,-9.0573,-9.1252,-9.1135,-9.0498,-9.0501,-9.0393,-9.0286,-5.4426,-5.4426,-5.4493,-5.4673,-5.4705,-5.4705,-5.4705,-5.4767,-5.5481,-5.7256,-5.7815,-5.8718,-6.0533,-6.1017,-6.155,-6.2332,-6.524,-6.7087,-6.7203,-6.9521,-7.1356,-7.2322,-7.2495,-7.3303,-7.4811,-7.4928,-7.4618,-7.3883,-7.4541,-7.4077,-7.2607,-7.2434,-7.2372,-7.2322,-7.149,-7.1081,-7.1018,-7.1005,-7.1928,-7.3388,-7.3443,-7.4409,-7.5732,-7.4951,-7.3703,-7.2391,-7.2314,-7.2353,-7.2391,-7.2198,-7.27,-7.3137,-7.146,-7.0815,-7.017,-6.7789,-6.6998,-6.692,-6.6804,-6.6843,-6.6959,-6.7036,-6.6572,-6.6069,0.0,-6.6727,-6.7366,-6.7465,-6.8713,-6.9846,-6.9977,-7.1378,-7.2491,-7.2608,-7.4084,-7.5461,-7.6241,-7.7182,-7.8092,-7.8878,-7.8532,-7.8838,-8.0383,-8.0695,-8.113,-8.1909,-8.2123,-8.2526,-8.3308,-8.3494,-8.3942,-8.4723,-8.5582,-8.6086,-8.6116,-8.6858,-8.768,-8.8539,-8.8539,-8.9008,-8.9869,-8.9857,-9.032,-9.1179,-9.1907,-9.2209,-9.2209,-9.2209,-9.2209,-9.2252,-9.2384,-9.239,-9.2312,-9.2324,-9.182,-9.1273,-5.5836,-5.546,-5.529,-5.5864,-5.5216,-5.4625,-5.4673,-5.4752,-5.5087,-5.5934,-5.6695,-5.7455,-5.831,-5.898,-5.9665,-6.0512,-6.369,-6.5909,-6.6409,-6.9347,-7.1248,-7.1595,-7.2194,-7.2871,-7.3555,-7.4131,-7.4231,-7.3883,-7.3728,-7.328,-7.2523,-7.1986,-7.1707,-7.1633,-7.121,-7.1005,-7.0939,-7.0939,-7.1657,-7.2783,-7.3311,-7.4249,-7.5302,-7.5485,-7.4791,-7.3534,-7.2148,-7.1954,0.0,-7.18,-7.2225,-7.2816,-7.2134,-7.1591,-7.0815,-6.879,-6.8242,-6.8274,-6.8274,-6.8274,-6.8274,-6.8274,-6.8313,-6.839,-6.839,-6.9087,-6.9881,-7.0436,-7.1184,-7.1862,-7.2413,-7.3156,-7.3657,-7.3657,-7.4706,-7.5802,-7.6635,-7.749,-7.8556,-7.992,-7.9789,-7.9898,-8.0674,-8.1647,-8.2401,-8.2779,-8.3343,-8.3835,-8.4242,-8.4741,-8.5231,-8.5622,-8.6442,-8.6869,-8.6862,-8.7721,-8.8346,-8.8699,-8.9207,-8.9911,-9.0775,-9.0765,-9.1226,-9.2078,-9.2424,-9.2532,-9.2486,-9.2535,-9.2577,-9.258,-9.2599,-9.2605,-9.2605,-9.2603,-9.2372,-9.2103,-5.6887,-5.6399,-5.6174,-5.6774,-5.5925,-5.5091,-5.4969,-5.5028,-5.5079,-5.4979,-5.5715,-5.6308,-5.6479,-5.7351,-5.828,-5.9088,-6.2281,-6.4705,-6.582,-6.8886,-7.0774,-7.1005,-7.1721,-7.2244,-7.2476,-7.3191,-7.3524,-7.3512,-7.2894,-7.2434,-7.2105,-7.1436,-7.1093,-7.1005,-7.0979,-7.0952,-7.0898,-7.0898,-7.1398,-7.2283,-7.3168,-7.3976,-7.4822,-7.5668,-7.5322,-7.4105,-7.2122,-7.1827,-7.2174,-7.1082,-7.1287,-7.1943,-7.1763,-7.1299,-7.0575,-6.9413,-6.9275,-6.9435,-6.9203,-6.9319,-6.9473,-6.9473,-6.9938,-7.0402,-7.0672,-7.1214,-7.1921,-7.2855,-7.3062,-7.3307,-7.3937,-7.4303,-7.4533,-7.455,-7.5482,-7.6493,-7.7308,-7.8163,-7.926,-8.0772,-8.117,-8.1295,-8.1368,-8.252,-8.3408,-8.3647,-8.4299,-8.4839,-8.514,-8.5756,-8.6246,-8.656,-8.7107,-8.7536,-8.7767,-8.8392,-8.8939,-8.9407,-9.0071,-9.0816,-9.1678,-9.1673,-9.2015,-9.259,-9.259,-9.2585,-9.2538,-9.2588,-9.259,-9.2593,-9.261,-9.2613,-9.2613,-9.261,-9.2613,-9.2615,-5.6887,-5.6887,-5.6849,-5.6887,-5.6849,-5.6549,-5.5723,-5.5727,-5.5643,-5.4981,-5.514,-5.5427,-5.5709,-5.6511,-5.7396,-5.828,-6.1396,-6.4089,-6.5782,-6.8386,-7.0196,-7.0966,-7.1142,-7.1626,-7.2476,-7.2573,-7.2623,-7.2527,-7.2527,-7.2028,-7.1144,-7.1043,-7.1005,-7.1005,-7.0925,-7.0898,-7.0898,-7.0898,-7.1398,-7.2283,-7.3168,-7.3976,-7.4822,-7.5668,-7.4976,-7.3437,-7.2489,-7.2182,-7.1951,-7.0283,-7.0283,-7.0796,-7.0093,-6.9849,-6.9836,-6.993,-7.0551,-7.1021,-7.017,-7.0595,-7.1214,-7.1214,-7.1253,-7.1485,-7.2336,-7.2529,-7.28,-7.369,-7.385,-7.3904,-7.4004,-7.4761,-7.539,-7.5444,-7.6842,-7.8241,-7.9095,-7.9989,-8.0844,-8.1737,-8.2553,-8.3029,-8.3029,-8.3187,-8.3641,-8.4497,-8.465,-8.5112,-8.5999,-8.6108,-8.6517,-8.7422,-8.7461,-8.7851,-8.8633,-8.8672,-8.9531,-9.1211,-9.125,-9.1719,-9.2578,-9.2576,-9.2571,-9.2603,-9.2603,-9.2603,-9.2603,-9.2603,-9.2603,-9.2603,-9.2611,-9.2613,-9.2614,-9.2617,-9.2617,-9.2617,-5.8502,-5.8051,-5.7863,-5.8389,-5.8051,-5.7618,-5.7351,-5.6966,-5.6474,-5.5761,-5.6036,0.0,0.0,0.0,0.0,0.0,-6.1204,-6.2974,-6.4089,-6.7103,-6.9001,-6.9271,-7.044,-7.0953,-7.0721,-7.0756,-7.051,-6.9907,-7.0486,-7.0604,-7.026,-7.0748,-7.0979,-7.0939,-7.0912,-7.0898,-7.0898,-7.0898,-7.1398,-7.2283,-7.3168,-7.3976,-7.4668,-7.4437,-7.4014,-7.3168,0.0,-6.9321,-6.8821,-6.8821,-6.8629,-6.8526,-6.9463,-6.9387,-6.8975,-6.9022,-6.9687,-7.0405,-7.0664,-7.0934,-7.1166,-7.1166,-7.1591,-7.2105,-7.2461,-7.2975,-7.3644,-7.4529,-7.4315,-7.4147,-7.4741,-7.5139,-7.5584,-7.6212,-7.727,-7.8513,-7.995,-8.0416,-8.1116,-8.2514,-8.2941,-8.3563,-8.469,-8.4874,-8.5045,-8.5354,-8.5981,-8.6535,-8.6897,-8.6928,-8.7376,-8.8281,-8.8281,-8.8711,-8.9531,-9.0156,-9.0703,-9.1328,-9.1875,-9.2304,-9.2617,-9.2617,-9.2615,-9.261,-9.261,-9.2608,-9.2603,-9.2609,-9.261,-9.2611,-9.2616,-9.2616,-9.2617,-9.2617,-9.2617,-9.2617,0.0,0.0,0.0,0.0,0.0,0.0,0.0,0.0,0.0,0.0,0.0,0.0,0.0,0.0,0.0,0.0,0.0,-6.2435,-6.3231,-6.5667,-6.7167,-6.7475,-6.8617,-6.8963,-6.8462,-6.8497,-6.8251,-6.7687,-6.8535,-6.8885,-6.8848,-7.0003,-7.0515,-7.0475,-7.0783,-7.0898,-7.0898,-7.0871,-7.1025,-7.1398,-7.2217,-7.2678,-7.2899,-7.2668,-7.2206,0.0,-6.9192,-6.7436,-6.632,-6.7205,-6.7321,-6.7282,-6.8436,-6.8873,-6.8847,-6.828,-6.9153,-7.0373,-7.0604,-7.0874,-7.1183,-7.1491,-7.1993,-7.2584,-7.3237,-7.3828,-7.4471,-7.538,-7.4962,-7.458,-7.5175,-7.5304,-7.5673,-7.6534,-7.7688,-7.8979,-8.0416,-8.1116,-8.1892,-8.298,-8.3641,-8.4456,-8.5583,-8.5991,-8.6194,-8.6264,-8.6855,-8.7225,-8.7283,-8.767,-8.8118,-8.8672,-8.8984,-8.957,-9.0469,-9.1015,-9.1445,-9.1758,-9.2344,-9.2617,-9.2617,-9.2617,-9.2617,-9.2616,-9.2616,-9.2614,-9.2611,-9.2615,-9.2772,-9.3045,-9.3047,-9.3242,-9.3476,-9.3164,-9.3047,-9.3008,0.0,0.0,0.0,0.0,0.0,0.0,0.0,0.0,0.0,0.0,0.0,0.0,0.0,0.0,0.0,0.0,0.0,0.0,-6.3128,-6.4051,-6.4897,-6.5743,-6.5921,-6.5958,-6.5919,-6.5978,-6.599,-6.5842,-6.6651,-6.705,-6.709,-6.8783,-6.959,-6.9667,-7.0437,-7.0783,-7.0769,-7.07,-7.0291,-6.9769,-7.0469,-7.0329,-6.9846,-7.05,-6.9769,-6.8385,-6.8308,-6.6692,-6.4782,-6.5628,-6.6436,-6.709,-6.7128,-6.8373,-6.9412,-6.7795,-6.9077,-7.0862,-7.0168,-7.0553,-7.1363,-7.2173,-7.2443,-7.2958,-7.4615,-7.5014,-7.5309,-7.6231,-7.5662,-7.5055,-7.5122,-7.5147,-7.5469,-7.6458,-7.8097,-7.9562,-8.0533,-8.2087,-8.3136,-8.3213,-8.469,-8.57,-8.5777,-8.6525,-8.7037,-8.7089,-8.7167,-8.7225,-8.7283,-8.8178,-8.8704,-8.8789,-8.9609,-9.0508,-9.1367,-9.1367,-9.1797,-9.2617,-9.2617,-9.2617,-9.2617,-9.2617,-9.2617,-9.2617,-9.2617,-9.2617,-9.2617,-9.2617,-9.3125,-9.3906,-9.3906,-9.4414,-9.5117,-9.4258,-9.3945,-9.3789,0.0,0.0,0.0,0.0,0.0,0.0,0.0,0.0,0.0,0.0,0.0,0.0,0.0,0.0,0.0,0.0,0.0,0.0,-6.1435,-6.282,-6.3743,-6.3935,-6.5217,-6.5615,-6.496,-6.4985,-6.4665,-6.3998,-6.4845,-6.5576,-6.6244,-6.7282,-6.8129,-6.8731,-6.8883,-6.8946,-6.8971,-6.8901,-6.9117,-6.9476,-6.9678,-7.0038,-7.0306,-6.9285,-6.8632,-6.8095,-6.6882,-6.605,-6.5564,-6.5808,-6.6436,-6.7205,-6.7859,-6.8411,-6.8809,-6.9001,-6.9553,-7.0144,-7.0529,-7.126,-7.1953,-7.2184,-7.3185,-7.4238,-7.4744,-7.5375,-7.5967,-7.6275,-7.5202,-7.4204,-7.4221,-7.378,-7.3956,-7.5479,-7.7204,-7.9095,-8.1271,-8.2436,-8.3563,-8.4884,-8.5428,-8.5972,-8.6593,-8.6885,-8.704,-8.7089,-8.7195,-8.7292,-8.7287,-8.8178,-8.9017,-8.9648,-9.0508,-9.1406,-9.2265,-9.2265,-9.2383,-9.2617,-9.2617,-9.2617,-9.2617,-9.2617,-9.2617,-9.2617,-9.2617,-9.2617,-9.2617,-9.2617,-9.3125,-9.3906,-9.3906,-9.4414,-9.5156,-9.4961,-9.4453,-9.3867,0.0,0.0,0.0,0.0,0.0,0.0,0.0,0.0,0.0,0.0,0.0,0.0,0.0,0.0,0.0,0.0,0.0,0.0,0.0,-6.1666,-6.2204,-6.2204,-6.3128,-6.3435,-6.2935,-6.2935,-6.2704,-6.2204,-6.3089,-6.3743,-6.4282,-6.5795,-6.6769,-6.7268,-6.7931,-6.8248,-6.8248,-6.7779,-6.765,0.0,0.0,-6.7458,-6.7832,-6.6887,-6.6758,-6.695,-6.6033,-6.5701,-6.583,-6.6678,-6.7256,-6.7821,-6.8706,-6.9206,-6.959,-7.009,-7.0514,-7.0975,-7.1822,-7.2399,-7.286,-7.3206,-7.4014,-7.4721,-7.4767,-7.522,-7.5556,-7.5245,-7.4185,-7.3314,-7.3347,-7.3323,-7.3878,-7.5614,-7.77,-7.9883,-8.2087,-8.3476,-8.4612,-8.5583,-8.6049,-8.6438,-8.6943,-8.703,-8.7046,-8.7113,-8.7195,-8.7442,-8.7833,-8.8763,-8.9681,-9.0547,-9.1406,-9.2109,-9.2617,-9.2617,-9.2617,-9.2617,-9.2617,-9.2617,-9.2617,-9.2617,-9.2617,-9.2617,-9.2617,-9.2617,-9.2617,-9.2617,-9.3359,-9.4453,-9.4453,-9.5234,-9.6211,-9.5469,-9.4883,-9.4375,0.0,0.0,0.0,0.0,0.0,0.0,0.0,0.0,0.0,0.0,-6.066,-6.0722,-6.0769,-6.0769,0.0,0.0,0.0,0.0,0.0,0.0,-6.0781,-6.0781,-6.0704,-6.0627,-6.0627,-6.0627,-6.0627,-6.0627,-6.1512,-6.2062,-6.232,-6.4449,-6.5563,-6.578,-6.7093,-6.7678,-6.7626,-6.6657,-6.5868,-6.5197,-6.4436,-6.4221,-6.4353,0.0,-6.489,-6.5566,-6.558,-6.5594,-6.5876,-6.7686,-6.8331,-6.8577,-6.9667,-7.0514,-7.1091,-7.1206,-7.1783,-7.2552,-7.3283,-7.3591,-7.3822,-7.4553,-7.4784,-7.4875,-7.4791,-7.4873,-7.4707,-7.392,-7.3141,-7.2607,-7.2607,-7.3358,-7.4474,-7.5918,-7.8483,-8.0922,-8.2668,-8.4417,-8.5651,-8.601,-8.671,-8.7176,-8.7176,-8.7223,-8.7214,-8.7106,-8.7273,-8.7744,-8.8579,-8.951,-9.0463,-9.1445,-9.2226,-9.2617,-9.2617,-9.2617,-9.2617,-9.2617,-9.2617,-9.2617,-9.2617,-9.2617,-9.2617,-9.2617,-9.2617,-9.2617,-9.2617,-9.2734,-9.3672,-9.5039,-9.5273,-9.6172,-9.7226,-9.5859,-9.5234,-9.4804,0.0,0.0,0.0,0.0,0.0,0.0,0.0,0.0,0.0,0.0,-6.0697,-6.0757,0.0,0.0,0.0,0.0,0.0,0.0,0.0,0.0,0.0,-6.0781,-6.0127,-5.9742,-5.9742,-5.9742,-5.9742,-5.9742,-6.0589,-6.1743,-6.3089,-6.3476,-6.4411,-6.5742,-6.5235,-6.4973,-6.4896,-6.3982,-6.3494,-6.3356,-6.3212,-6.3571,-6.4235,-6.4235,0.0,0.0,-6.5494,-6.5552,-6.5876,-6.763,-6.8262,-6.8715,-7.1038,-7.186,-7.2129,-7.286,-7.3168,-7.3322,-7.3476,-7.4014,-7.4553,-7.4668,-7.5245,-7.5592,-7.4875,-7.4832,-7.4694,-7.3896,-7.3106,-7.2607,-7.2607,-7.3308,-7.4048,-7.4358,-7.7201,-7.9968,-8.1765,-8.3493,-8.5377,-8.7593,-8.7992,-8.8069,-8.8069,-8.8089,-8.7803,-8.7145,-8.7864,-8.8457,-8.8675,-8.9519,-9.074,-9.2304,-9.2539,-9.2617,-9.2617,-9.2617,-9.2617,-9.2617,-9.2617,-9.2617,-9.2617,-9.2617,-9.2617,-9.2617,-9.2617,-9.2617,-9.2656,-9.3398,-9.3867,-9.4258,-9.5703,-9.6015,-9.5703,-9.6133,-9.5351,-9.4062,0.0,0.0,0.0,0.0,0.0,0.0,0.0,-6.0285,-6.0698,-6.1223,-6.1017,-6.0757,-6.0697,-6.0722,-6.0734,0.0,0.0,0.0,0.0,0.0,0.0,-6.0746,-6.0385,-6.0165,-6.0165,-6.0165,-6.0165,-6.0165,0.0,-6.1435,-6.2666,-6.299,-6.3859,-6.5035,-6.4475,-6.425,-6.4173,-6.2792,-6.2204,-6.2204,-6.1784,-6.2357,-6.3503,-6.3503,0.0,0.0,-6.542,-6.545,-6.5685,-6.7031,-6.7496,-6.7961,-7.058,-7.1737,-7.2304,-7.3149,-7.3741,-7.4207,-7.4668,-7.5091,-7.5399,-7.5399,-7.5707,-7.5668,-7.4361,-7.4164,-7.3922,-7.261,-7.2128,-7.191,-7.191,-7.3364,-7.4536,-7.4586,-7.7844,-8.0883,-8.2184,-8.3846,-8.5751,-8.7979,-8.8261,-8.8427,-8.8885,-8.8565,-8.8373,-8.8499,-8.8579,-8.8841,-8.9344,-9.0618,-9.1757,-9.2578,-9.2617,-9.2617,-9.2617,-9.2617,-9.2617,-9.2617,-9.2617,-9.2617,-9.2617,-9.2617,-9.2617,-9.2617,-9.3086,-9.3281,-9.3359,-9.4219,-9.457,-9.4648,-9.5508,-9.5586,-9.5195,-9.5156,-9.4609,-9.3828,0.0,0.0,0.0,0.0,0.0,0.0,0.0,-6.0313,-6.0864,-6.1773,-6.144,-6.1065,-6.1005,-6.0861,-6.0757,0.0,0.0,0.0,0.0,0.0,0.0,0.0,0.0,0.0,-6.0476,0.0,0.0,-6.05,-6.0669,0.0,0.0,0.0,0.0,0.0,-6.4307,-6.412,-6.3838,-6.2309,-6.1645,0.0,0.0,-6.1669,-6.3197,0.0,0.0,0.0,0.0,-6.5413,-6.5543,-6.6483,-6.6766,-6.7163,-6.9421,-7.0891,-7.2001,-7.2984,-7.3927,-7.487,-7.5755,-7.6,-7.6015,-7.6015,-7.6015,-7.5553,-7.3899,-7.3573,-7.3202,-7.1441,-7.1201,-7.1358,-7.1523,-7.3496,-7.5109,-7.5109,-7.8456,-8.1395,-8.2452,-8.3971,-8.5801,-8.8157,-8.844,-8.8772,-8.968,-8.9274,-8.9176,-8.9774,-8.9398,-8.9495,-9.0254,-9.1755,-9.2617,-9.2617,-9.2617,-9.2617,-9.2617,-9.2617,-9.2617,-9.2617,-9.2617,-9.2617,-9.2617,-9.2773,-9.289,-9.2929,-9.3789,-9.4179,-9.4258,-9.5117,-9.5273,-9.4961,-9.5312,-9.5156,-9.457,-9.4062,-9.3789,-9.3515,0.0,0.0,0.0,0.0,0.0,0.0,0.0,-6.0384,-6.0917,-6.1773,-6.1939,-6.195,-6.1888,-6.1245,-6.0734,0.0,0.0,0.0,0.0,0.0,0.0,0.0,0.0,0.0,0.0,0.0,0.0,-5.9545,-6.0252,0.0,0.0,0.0,0.0,0.0,0.0,-6.3904,-6.3044,-6.2164,0.0,0.0,0.0,0.0,0.0,0.0,0.0,0.0,0.0,-6.5413,-6.5528,-6.6407,-6.6728,-6.6881,-6.7852,-6.9375,-7.1145,-7.2755,-7.3852,-7.4796,-7.568,-7.5955,-7.6015,-7.6015,-7.6015,-7.5553,-7.3899,-7.357,-7.3112,-7.1441,-7.1166,-7.1468,-7.2325,-7.3922,-7.5109,-7.5109,-7.7442,-7.9838,-8.1484,-8.2542,-8.4657,-8.8709,0.0,0.0,-9.0519,-9.0654,-9.0427,-8.9852,-9.0598,-9.1084,-9.1171,-9.207,-9.2617,-9.2617,-9.2617,-9.2617,-9.2617,-9.2617,-9.2617,-9.2617,-9.2617,-9.2617,-9.2617,-9.3437,-9.3789,-9.3828,-9.4687,-9.5078,-9.5156,-9.6015,-9.5469,-9.4179,-9.5742,-9.4922,-9.2929,-9.3633,-9.3398,-9.2695,0.0,0.0,0.0,0.0,0.0,0.0,-5.9991,-6.0328,-6.0878,-6.1773,-6.1555,-6.1512,-6.2014,-6.1308,-6.0734,-6.0597,0.0,0.0,0.0,0.0,0.0,0.0,0.0,0.0,0.0,0.0,-6.0597,-6.0124,-6.0943,0.0,0.0,0.0,0.0,0.0,0.0,-6.3688,-6.3733,-6.2891,0.0,0.0,0.0,0.0,0.0,0.0,0.0,0.0,0.0,0.0,-6.6254,-6.6598,-6.6369,-6.5987,-6.6292,-6.76,-6.9437,-7.1704,-7.3031,-7.4067,-7.5495,-7.591,-7.5955,-7.6,-7.6399,-7.6322,-7.463,-7.4263,-7.3869,-7.2199,-7.1502,-7.134,-7.1745,-7.3612,-7.4928,-7.4463,-7.6978,-7.9582,-8.1308,-8.2276,-8.4248,-8.8067,-8.8919,-8.9627,-9.0624,-9.0778,-9.0759,-9.0606,-9.1464,-9.2056,-9.2069,-9.2421,-9.2617,-9.2617,-9.2617,-9.2617,-9.2617,-9.2617,-9.2617,-9.2617,-9.2617,-9.2617,-9.2617,-9.3515,-9.3906,-9.3984,-9.539,-9.5976,-9.6054,-9.6875,-9.6211,-9.4765,-9.5469,-9.4453,-9.2656,-9.3008,-9.289,-9.2617,0.0,0.0,0.0,0.0,0.0,-5.9765,-5.9982,-6.0285,-6.0851,-6.1773,-6.1478,-6.1396,-6.2024,-6.155,-6.1041,-6.0636,-6.0635,0.0,0.0,0.0,0.0,0.0,0.0,0.0,0.0,0.0,-6.1222,-6.0929,-6.1222,-6.1427,0.0,0.0,-6.2617,-6.4038,0.0,0.0,0.0,0.0,0.0,0.0,0.0,0.0,0.0,0.0,0.0,0.0,0.0,0.0,0.0,0.0,0.0,-6.5413,-6.5413,-6.6369,-6.8066,-7.0652,-7.2225,-7.3568,-7.5334,-7.5879,-7.5987,-7.6308,-7.663,-7.6592,-7.5361,-7.4735,-7.4021,-7.2637,-7.1748,-7.1279,-7.1606,-7.3137,-7.4347,-7.427,-7.6475,-7.8912,-8.0846,-8.189,-8.3618,-8.6804,-8.7926,-8.8907,-9.0179,-9.0845,-9.1292,-9.1487,-9.212,-9.2512,-9.2569,-9.2576,-9.2617,-9.2617,-9.2617,-9.2617,-9.2617,-9.2617,-9.2617,-9.2617,-9.2617,-9.2617,-9.2656,-9.3789,-9.4297,-9.4375,-9.6094,-9.6836,-9.6875,-9.7226,-9.6484,-9.5156,-9.4922,-9.3906,-9.2617,-9.2617,-9.2617,-9.2617,0.0,0.0,0.0,0.0,0.0,0.0,-5.9982,-6.0285,-6.0851,-6.1773,-6.2016,-6.2101,-6.2101,-6.2101,-6.1695,-6.0713,-6.0585,0.0,0.0,0.0,0.0,0.0,0.0,0.0,0.0,0.0,-6.0832,-6.1691,-6.0832,-6.0491,-6.0623,-6.1439,-6.2297,-6.3258,0.0,0.0,0.0,0.0,0.0,0.0,0.0,0.0,-6.5375,0.0,0.0,0.0,0.0,0.0,0.0,0.0,0.0,0.0,0.0,-6.5987,-6.7209,-6.9693,-7.1669,-7.3488,-7.5216,-7.5794,-7.6102,-7.7038,-7.663,-7.6015,-7.5976,-7.4707,-7.3259,-7.2455,-7.1673,-7.1388,-7.231,-7.2573,-7.3187,-7.48,-7.5856,-7.7287,-7.9879,-8.0962,-8.2471,-8.5024,-8.6107,-8.7332,-8.9152,-9.1071,-9.2238,-9.2393,-9.2446,-9.2493,-9.2507,-9.2567,-9.2616,-9.2617,-9.2617,-9.2617,-9.2617,-9.2617,-9.2617,-9.2617,-9.2617,-9.2617,-9.2656,-9.4414,-9.5195,-9.5273,-9.6953,-9.7695,-9.7617,-9.6836,-9.5976,-9.5117,-9.4258,-9.3398,-9.2617,-9.2617,-9.2617,-9.2617,0.0,0.0,0.0,0.0,0.0,0.0,0.0,-6.0173,-6.0529,-6.0955,-6.1132,-6.1204,-6.1204,-6.1168,-6.0992,-6.0623,-6.0585,0.0,0.0,0.0,0.0,0.0,0.0,0.0,0.0,-6.1058,-6.1072,-6.0832,-6.1072,-6.0971,-6.0477,-6.1346,-6.223,-6.3113,-6.4011,-6.4688,0.0,0.0,0.0,0.0,0.0,-6.5413,-6.5452,0.0,0.0,0.0,0.0,0.0,0.0,0.0,0.0,0.0,0.0,0.0,0.0,-6.9158,-7.0445,-7.1749,-7.353,-7.4067,-7.422,-7.4601,-7.5361,-7.5707,-7.4553,-7.4322,-7.3759,-7.1801,-7.0825,-7.0385,-7.0738,-7.1297,-7.2452,-7.4734,-7.5817,-7.7481,-8.0653,-8.1349,-8.2238,-8.425,-8.6314,-8.8262,-9.0029,-9.1368,-9.2171,-9.2276,-9.236,-9.2422,-9.2412,-9.2499,-9.2566,-9.2615,-9.2617,-9.2617,-9.2617,-9.2617,-9.2617,-9.2617,-9.2617,-9.2617,-9.2656,-9.4414,-9.5195,-9.5273,-9.6953,-9.7383,-9.6875,-9.6601,-9.5625,-9.4297,-9.4023,-9.3359,-9.2617,-9.2617,-9.2617,-9.2617,0.0,0.0,0.0,0.0,0.0,0.0,0.0,-6.0045,-6.0346,-6.052,-6.066,-6.0757,-6.0781,-6.0734,-6.066,-6.0623,-6.0597,0.0,0.0,0.0,0.0,0.0,0.0,0.0,-6.0828,-6.1058,-6.1058,-6.0828,-6.1058,-6.0867,-6.0422,-6.1253,-6.2136,-6.3044,-6.3942,-6.4771,0.0,0.0,0.0,0.0,-6.5413,-6.5413,-6.5452,0.0,0.0,0.0,0.0,0.0,0.0,0.0,0.0,0.0,0.0,0.0,0.0,0.0,-6.962,-7.103,-7.2724,-7.3261,-7.3413,-7.3832,-7.4514,-7.4861,-7.413,-7.386,-7.322,-7.1337,-7.0889,-7.0655,-7.0085,-7.1236,-7.28,-7.4386,-7.5895,-7.7751,-8.0227,-8.1117,-8.2161,-8.3902,-8.5798,-8.7809,-8.9911,-9.1013,-9.1732,-9.219,-9.2308,-9.2341,-9.2378,-9.2451,-9.2493,-9.2556,-9.2571,-9.2616,-9.2616,-9.2616,-9.2617,-9.2617,-9.2617,-9.2773,-9.3125,-9.457,-9.539,-9.5781,-9.7109,-9.7226,0.0,-9.6133,-9.5195,-9.3867,-9.3554,-9.3086,-9.2656,-9.2969,-9.289,-9.2656,0.0,0.0,0.0,0.0,0.0,0.0,0.0,-6.0007,-6.0261,-6.0453,-6.0597,-6.071,-6.0769,-6.0722,-6.066,-6.0623,0.0,0.0,0.0,0.0,0.0,0.0,0.0,0.0,-6.1516,-6.079,-6.079,-6.1593,-6.0828,-6.0523,-6.0599,-6.1402,-6.2247,-6.3121,-6.3987,-6.4791,-6.5479,-6.5444,-6.5413,-6.5413,-6.5413,-6.5413,0.0,0.0,0.0,0.0,0.0,0.0,0.0,0.0,0.0,0.0,0.0,0.0,0.0,0.0,0.0,0.0,0.0,-7.3046,-7.3351,-7.4231,-7.3899,-7.3591,-7.4284,-7.3245,0.0,-7.0912,-7.1519,-7.1735,-7.0115,-7.1997,-7.3844,-7.396,-7.6088,-7.8022,-7.895,-8.0536,-8.2238,-8.3979,-8.4908,-8.6391,-8.898,-9.0125,-9.1096,-9.2016,-9.2234,-9.23,-9.2299,-9.2372,-9.2417,-9.2481,-9.2538,-9.2603,-9.2573,-9.2613,-9.2616,-9.2617,-9.2656,-9.3125,-9.3945,-9.4883,-9.5742,-9.6523,-9.7304,-9.7148,-9.6328,-9.5469,-9.4609,-9.3711,-9.2929,-9.2617,-9.2695,-9.3594,-9.3359,-9.2734,0.0,0.0,0.0,0.0,0.0,0.0,0.0,0.0,0.0,0.0,-6.052,-6.0635,-6.071,-6.0648,-6.0636,0.0,0.0,0.0,0.0,0.0,0.0,0.0,0.0,0.0,-6.0676,-6.0499,-6.079,-6.1593,-6.1402,-6.1669,-6.2319,-6.3197,-6.3709,-6.3953,-6.4794,-6.5253,-6.5405,-6.5429,-6.5413,-6.5413,-6.5413,-6.5413,0.0,0.0,0.0,0.0,-6.5413,-6.5413,0.0,0.0,0.0,0.0,0.0,0.0,0.0,0.0,-6.7874,-6.8997,-7.0091,0.0,-7.1525,-7.1745,-7.2168,-7.236,0.0,-7.1516,-7.0863,-6.9361,-6.9808,-7.0174,-6.9181,-7.1131,-7.3342,-7.4618,-7.6436,-7.8216,-7.9724,-8.1426,-8.3128,-8.483,-8.5759,-8.6855,-8.8231,-8.9729,-9.0768,-9.111,-9.1802,-9.2228,-9.2199,-9.2293,-9.2338,-9.2345,-9.2423,-9.2459,-9.2517,-9.257,-9.2614,-9.2615,-9.3281,-9.3711,-9.3945,-9.5508,-9.6328,-9.6523,-9.6719,-9.6289,-9.5429,-9.457,-9.3672,-9.289,-9.2695,-9.2617,-9.2695,-9.3594,-9.3359,-9.2734,0.0,0.0,0.0,0.0,0.0,0.0,0.0,0.0,0.0,0.0,0.0,0.0,0.0,0.0,0.0,0.0,0.0,0.0,0.0,0.0,0.0,0.0,0.0,-6.0422,-6.0422,-6.0422,-6.079,-6.1593,-6.1593,-6.2051,-6.293,-6.3815,-6.425,-6.4288,-6.512,-6.5465,-6.5435,-6.5435,-6.5405,-6.5413,-6.5413,0.0,0.0,0.0,0.0,0.0,-6.5834,-6.5757,0.0,-6.5413,-6.5413,-6.5413,0.0,0.0,0.0,0.0,-6.7735,-6.8843,-6.9337,-6.9921,-7.0437,-7.0821,-7.1245,-7.1475,-7.1014,-7.0683,-7.0196,-6.9271,-6.9832,-7.0351,-6.9938,-7.1993,-7.4038,-7.4955,-7.6552,-7.8409,-8.0498,-8.1968,-8.3283,-8.4598,-8.5178,-8.6004,-8.7379,-8.8321,-8.9232,-9.0118,-9.1053,-9.1588,-9.1607,-9.2004,-9.2234,-9.226,-9.2299,-9.2396,-9.2447,-9.2515,-9.2569,-9.2613,-9.3476,-9.4101,-9.4531,-9.5898,-9.6719,-9.7031,-9.664,-9.6015,-9.5117,-9.4258,-9.3398,-9.2617,-9.2617,-9.2617,-9.2734,-9.4023,-9.3672,-9.2773,0.0,0.0,0.0,0.0,0.0,0.0,0.0,0.0,0.0,0.0,0.0,0.0,0.0,0.0,0.0,0.0,0.0,0.0,0.0,0.0,0.0,0.0,-6.0422,-6.0422,-6.0422,-6.0523,-6.0981,-6.1784,-6.1936,-6.2433,-6.3312,-6.4111,-6.4499,-6.4513,-6.5259,-6.5566,-6.5494,-6.5494,-6.545,-6.5413,-6.5413,0.0,0.0,0.0,0.0,0.0,0.0,0.0,0.0,-6.5413,-6.5413,-6.5413,-6.5413,0.0,0.0,0.0,0.0,0.0,-6.9442,-6.9613,-6.9898,-7.0706,-7.0898,-7.0898,-7.0912,-7.0349,-6.9823,-6.9836,-7.0551,-7.1224,-7.1224,-7.3346,-7.516,-7.5276,-7.6978,-7.9183,-8.1736,-8.2703,-8.3515,-8.4366,-8.4482,-8.5088,-8.6642,-8.6937,-8.7642,-8.9186,-9.0089,-9.0693,-9.0859,-9.1598,-9.2045,-9.216,-9.2246,-9.2334,-9.2388,-9.2443,-9.2517,-9.2611,-9.3593,-9.4492,-9.5234,-9.6211,-9.707,-9.7656,-9.6719,-9.5898,-9.5117,-9.4101,-9.3281,-9.2617,-9.2617,-9.2617,-9.2812,-9.4414,-9.3984,-9.2812,0.0,0.0,0.0,0.0,0.0,0.0,0.0,0.0,0.0,0.0,0.0,0.0,0.0,0.0,0.0,0.0,0.0,0.0,0.0,0.0,0.0,-6.0422,-6.0422,-6.0422,-6.0422,-6.1058,-6.186,-6.2701,-6.3427,-6.4229,-6.5031,-6.5235,-6.5331,-6.5388,-6.5556,-6.5566,-6.5494,-6.5494,-6.545,-6.5413,-6.5413,0.0,0.0,0.0,0.0,0.0,0.0,0.0,0.0,-6.5413,-6.5413,-6.5413,-6.5413,0.0,0.0,0.0,0.0,0.0,-6.9242,-6.9692,-6.9898,-7.0706,-7.0898,-7.0912,-7.0979,-7.0426,-6.9871,-6.988,-7.0645,-7.128,-7.128,-7.3369,-7.5353,-7.6088,-7.8834,-8.1813,-8.4366,-8.483,-8.5256,-8.6107,-8.6223,-8.6352,-8.6758,-8.7468,-8.8068,-8.8448,-8.9235,-9.0022,-9.0771,-9.0926,-9.1353,-9.2092,-9.2191,-9.2234,-9.2331,-9.2437,-9.2499,-9.2554,-9.4212,-9.5077,-9.5234,-9.6797,-9.7578,-9.7617,-9.6054,-9.5312,-9.5078,-9.3476,-9.2734,-9.2617,-9.2617,-9.2617,-9.2734,-9.3711,-9.3476,-9.2656,0.0,0.0,0.0,0.0,0.0,0.0,0.0,0.0,0.0,0.0,0.0,0.0,0.0,0.0,0.0,0.0,0.0,0.0,0.0,0.0,-6.0422,-6.0422,-6.0828,-6.1058,-6.1058,-6.1402,-6.2242,-6.3579,-6.4,-6.4611,-6.5413,-6.5494,-6.5622,-6.5768,-6.5768,-6.5663,-6.5552,-6.5552,-6.5479,-6.5413,0.0,0.0,0.0,0.0,0.0,0.0,0.0,0.0,0.0,0.0,-6.5413,-6.5429,-6.5435,0.0,0.0,0.0,0.0,0.0,-6.9448,-7.0014,-7.045,-7.0837,-7.0952,-7.0979,-7.1043,-7.045,-7.0046,-7.0494,-7.0976,-7.1601,-7.2529,-7.4386,-7.6397,-7.8177,-8.0188,-8.2238,-8.4366,-8.5024,-8.5449,-8.5836,-8.5913,-8.5965,-8.6099,-8.646,-8.6943,-8.7554,-8.838,-8.9235,-9.0051,-9.0517,-9.1216,-9.2071,-9.2161,-9.2219,-9.2252,-9.2366,-9.2459,-9.2507,-9.4326,-9.5194,-9.5273,-9.6953,-9.7695,-9.7617,-9.5937,-9.5195,-9.5078,-9.332,-9.2617,-9.2617,-9.2617,-9.2617,-9.2656,-9.3047,-9.3242,-9.3242,0.0,0.0,0.0,0.0,0.0,0.0,0.0,0.0,0.0,0.0,0.0,0.0,0.0,0.0,0.0,0.0,0.0,0.0,0.0,-6.0485,-6.0422,-6.0422,-6.1172,-6.1593,-6.1593,-6.2013,-6.2853,-6.4206,-6.4382,-6.4832,-6.5435,-6.5552,-6.5715,-6.5897,-6.5897,-6.5781,-6.5594,-6.5594,-6.5509,-6.5413,0.0,0.0,0.0,0.0,0.0,0.0,0.0,0.0,0.0,0.0,0.0,0.0,0.0,0.0,0.0,-6.7456,-6.8534,-6.9676,-6.9923,-7.0437,-7.0925,-7.1005,-7.1018,-7.1069,-7.1376,-7.0973,-7.0776,-7.1649,-7.1877,-7.2375,-7.3883,-7.5895,-7.7983,-8.015,-8.1581,-8.2935,-8.4482,-8.5217,-8.5604,-8.5604,-8.5604,-8.5656,-8.5789,-8.5801,-8.6129,-8.6943,-8.7603,-8.8458,-8.9468,-9.0128,-9.0983,-9.2071,-9.2161,-9.221,-9.2187,-9.2352,-9.2422,-9.2504,-9.4323,-9.5193,-9.5273,-9.6953,-9.7695,-9.7617,-9.5937,-9.5195,-9.5078,-9.332,-9.2617,-9.2617,-9.2617,-9.2617,-9.2617,-9.2617,-9.3008,-9.3515,0.0,0.0,0.0,0.0,0.0,0.0,0.0,0.0,0.0,0.0,0.0,0.0,0.0,0.0,0.0,0.0,0.0,0.0,-6.153,-6.079,-6.0422,-6.0422,-6.1172,-6.1593,-6.1593,-6.3197,-6.4091,-6.4206,-6.4955,-6.5412,-6.558,-6.5594,-6.5715,-6.5897,-6.5897,-6.5781,-6.5594,-6.5594,-6.5509,-6.5452,-6.6292,0.0,0.0,0.0,0.0,0.0,0.0,0.0,0.0,0.0,0.0,0.0,0.0,0.0,-6.7278,-6.8866,-6.9484,-6.9846,-7.0629,-7.086,-7.0925,-7.1056,-7.1043,-7.1236,-7.217,-7.236,-7.2577,-7.3512,-7.3728,-7.3999,-7.485,-7.7713,-8.0266,-8.1271,-8.3438,-8.5333,-8.63,-8.6455,-8.6532,-8.6532,-8.6532,-8.6546,-8.6681,-8.6731,-8.6777,-8.6982,-8.7059,-8.7797,-8.939,-8.9546,-9.0361,-9.2071,-9.2161,-9.221,-9.2187,-9.2352,-9.2412,-9.2525,-9.4274,-9.515,-9.5273,-9.6953,-9.7695,-9.7617,-9.5937,-9.5195,-9.5078,-9.332,-9.2617,-9.2617,-9.2617,-9.2617,-9.2617,-9.2617,-9.2656,-9.2695,0.0,0.0,0.0,0.0,0.0,0.0,0.0,0.0,0.0,0.0,0.0,0.0,0.0,0.0,0.0,0.0,0.0,0.0,-6.1607,-6.0828,-6.0422,-6.0422,-6.1172,-6.186,-6.2395,-6.3579,-6.4688,-6.5757,-6.6063,-6.5986,-6.5594,-6.5594,-6.5715,-6.5897,-6.5897,-6.5781,-6.5594,-6.5594,-6.5509,-6.549,-6.6369,-6.6522,0.0,0.0,0.0,0.0,0.0,0.0,0.0,0.0,-6.5479,-6.5662,-6.6605,-6.7327,-6.8035,-6.9267,-7.0025,-7.0514,-7.0821,-7.0898,-7.0925,-7.1068,-7.1081,-7.1479,-7.3014,-7.3385,-7.3783,-7.516,-7.543,-7.5895,-7.7287,-7.8989,-8.0846,-8.2819,-8.4366,-8.5604,-8.6494,-8.661,-8.661,-8.661,-8.661,-8.6662,-8.6797,-8.6809,-8.6854,-8.6982,-8.6982,-8.772,-8.939,-8.9507,-9.0284,-9.2032,-9.2161,-9.2228,-9.2268,-9.2347,-9.2437,-9.2538,-9.4276,-9.515,-9.5273,-9.6953,-9.7422,-9.6875,-9.5703,-9.4883,-9.4297,-9.3086,-9.2617,-9.2617,-9.2617,-9.2617,-9.2617,-9.2617,-9.2929,-9.3398,0.0,0.0,0.0,0.0,0.0,0.0,0.0,0.0,0.0,0.0,0.0,0.0,0.0,0.0,0.0,0.0,0.0,0.0,-6.2065,-6.1249,-6.0676,-6.0422,-6.1172,-6.2013,-6.2892,-6.3732,-6.5031,-6.6713,-6.6728,-6.6474,-6.603,-6.5775,-6.5742,-6.5897,-6.5897,-6.5795,-6.5674,-6.5608,-6.5523,-6.552,-6.6369,-6.6713,0.0,0.0,0.0,0.0,0.0,0.0,0.0,0.0,-6.5523,-6.5824,-6.7034,-6.7818,-6.8575,-6.9731,-7.0475,-7.0898,-7.0898,-7.0912,-7.0965,-7.1068,-7.1311,-7.2093,-7.4208,-7.4463,-7.485,-7.6823,-7.7403,-7.7945,-7.9144,-8.0266,-8.1697,-8.3747,-8.4792,-8.5604,-8.652,-8.6636,-8.6649,-8.6675,-8.6881,-8.6997,-8.6859,-8.7053,-8.7165,-8.702,-8.6982,-8.772,-8.939,-8.9527,-9.0353,-9.2092,-9.2219,-9.226,-9.2331,-9.2396,-9.2432,-9.2515,-9.4282,-9.5152,-9.5273,-9.6953,-9.7265,-9.6445,-9.5586,-9.4726,-9.3828,-9.2969,-9.2617,-9.2617,-9.2617,-9.2773,-9.3008,-9.3008,-9.3554,-9.4297,0.0,0.0,0.0,0.0,0.0,0.0,0.0,0.0,0.0,0.0,0.0,0.0,0.0,0.0,0.0,0.0,0.0,0.0,-6.2968,-6.2089,-6.1249,-6.046,-6.1172,-6.2013,-6.2892,-6.377,-6.5031,-6.6674,-6.6751,-6.684,-6.6873,-6.6137,-6.5833,-6.5897,-6.5897,-6.5859,-6.5793,-6.5674,-6.5566,-6.5571,-6.6361,-6.6713,-6.6713,0.0,0.0,0.0,0.0,0.0,0.0,0.0,-6.5632,-6.6101,-6.7766,-6.8345,-6.8744,-7.0398,-7.0898,-7.0898,-7.0898,-7.0952,-7.1056,-7.112,-7.181,-7.3195,-7.5844,-7.5779,-7.5856,-7.8486,-7.9647,-8.0227,-8.0227,-8.1658,-8.3089,-8.3979,-8.4792,-8.563,-8.6584,-8.6713,-8.6737,-8.6797,-8.7524,-8.773,-8.6965,-8.7619,-8.7797,-8.7059,-8.6992,-8.772,-8.939,-8.9557,-9.0402,-9.2152,-9.2285,-9.2334,-9.2411,-9.2451,-9.2502,-9.2525,-9.433,-9.5194,-9.5273,-9.6953,-9.7265,-9.6445,-9.5586,-9.4687,-9.3828,-9.2969,-9.2617,-9.2617,-9.2617,-9.3164,-9.3906,-9.3906,-9.4453,-9.5195,0.0,0.0,0.0,0.0,0.0,0.0,0.0,0.0,0.0,0.0,0.0,0.0,0.0,0.0,0.0,0.0,0.0,0.0,-6.2968,-6.2089,-6.1249,-6.046,-6.0637,-6.1134,-6.1975,-6.4058,-6.535,-6.5847,-6.6474,-6.6562,-6.6112,-6.5895,-6.5833,-6.5897,-6.5897,-6.5859,-6.5793,-6.5767,-6.5646,-6.5571,-6.6421,-6.7064,-6.7477,0.0,0.0,0.0,0.0,0.0,0.0,0.0,0.0,0.0,-6.7806,-6.8371,-6.8744,-7.0398,-7.0898,-7.0898,-7.0898,-7.1838,-7.2842,-7.2906,-7.3586,-7.5089,-7.8358,-7.7945,-7.7674,-8.0227,-8.1426,-8.2045,-8.2045,-8.2935,-8.3979,-8.4792,-8.5681,-8.6378,-8.6674,-8.7253,-8.7677,-8.7701,-8.8425,-8.8604,-8.7908,-8.8013,-8.7841,-8.7059,-8.7021,-8.7739,-8.9489,-8.9649,-9.0469,-9.2213,-9.2334,-9.2362,-9.2393,-9.2454,-9.2523,-9.2572,-9.4373,-9.5195,-9.5273,-9.6953,-9.6914,-9.5586,-9.5312,-9.4375,-9.2969,-9.2695,-9.2969,-9.3515,-9.3515,-9.4062,-9.4804,-9.4804,-9.5351,-9.6094,0.0,0.0,0.0,0.0,0.0,0.0,0.0,0.0,-6.5111,-6.5248,-6.5383,-6.5509,0.0,0.0,0.0,-6.5688,-6.52,-6.4479,-6.3509,-6.2944,-6.2242,-6.144,-6.1402,-6.1631,-6.2128,-6.4035,-6.4858,-6.4541,-6.6102,-6.6657,-6.6293,-6.6281,-6.6167,-6.5897,-6.6244,-6.6192,-6.5833,-6.5728,-6.566,-6.5576,-6.6054,-6.672,-6.7324,0.0,0.0,0.0,0.0,0.0,0.0,0.0,0.0,0.0,-6.7846,-6.8629,-6.9244,-7.0937,-7.1668,-7.1937,-7.1937,-7.2981,-7.4115,-7.4154,-7.4885,-7.635,-7.948,-8.0227,-8.0691,-8.2238,-8.3206,-8.3786,-8.3786,-8.4237,-8.4869,-8.572,-8.6079,-8.6487,-8.722,-8.7808,-8.8317,-8.8667,-8.9421,-8.9577,-8.8794,-8.8706,-8.8356,-8.7564,-8.7186,-8.7767,-8.9497,-8.9707,-9.0546,-9.2281,-9.2407,-9.242,-9.245,-9.2519,-9.2572,-9.2616,-9.4023,-9.4687,-9.4726,-9.6445,-9.6289,-9.4648,-9.4336,-9.3554,-9.2617,-9.2969,-9.3437,-9.3945,-9.4297,-9.4961,-9.5703,-9.5703,-9.625,-9.6992,0.0,0.0,0.0,0.0,0.0,0.0,0.0,-6.5099,-6.5248,-6.529,-6.5465,-6.566,0.0,0.0,0.0,-6.5807,-6.5688,-6.5221,-6.4346,-6.4235,-6.3809,-6.293,-6.2892,-6.2892,-6.2892,-6.3729,-6.3852,-6.3115,-6.5561,-6.6778,-6.6792,-6.6987,-6.6667,-6.5936,-6.6744,-6.6628,-6.5897,-6.5715,-6.5622,-6.5594,-6.545,-6.5925,-6.6613,-6.5734,0.0,0.0,0.0,0.0,0.0,0.0,0.0,0.0,-6.7898,-6.9052,-7.0129,-7.1822,-7.2899,-7.3514,-7.3591,-7.4357,-7.5131,-7.5131,-7.612,-7.7713,-8.0034,-8.2509,-8.4289,-8.4211,-8.4869,-8.5423,-8.5423,-8.5475,-8.5795,-8.6582,-8.6211,-8.6387,-8.8002,-8.84,-8.8856,-8.9634,-9.0441,-9.0605,-8.9711,-8.9504,-8.9105,-8.8341,-8.7506,-8.7755,-8.9393,-8.9682,-9.0573,-9.2227,-9.2432,-9.2504,-9.2526,-9.2572,-9.2616,-9.2617,-9.3476,-9.3906,-9.3945,-9.5703,-9.5586,-9.3984,-9.3008,-9.2617,-9.2656,-9.3554,-9.3945,-9.4101,-9.4961,-9.5859,-9.6601,-9.6601,-9.707,-9.7695,0.0,0.0,0.0,0.0,0.0,0.0,-6.5149,-6.5232,-6.529,-6.5383,-6.5494,-6.566,-6.578,-6.5859,0.0,-6.5807,-6.5688,-6.5221,-6.4346,-6.4235,-6.3809,-6.293,-6.2892,-6.2892,-6.2892,-6.3211,-6.328,-6.3115,-6.441,-6.5038,-6.5141,-6.6474,-6.6667,-6.5936,-6.6744,-6.6628,-6.5897,-6.5872,-6.582,-6.5767,-6.5632,-6.6059,-6.6689,-6.5809,-6.6,0.0,0.0,0.0,0.0,0.0,0.0,0.0,-6.809,-6.9436,-7.0975,-7.2706,-7.336,-7.363,-7.4284,-7.5666,-7.6945,-7.6945,-7.9714,-8.2587,-8.3128,-8.4714,-8.5875,-8.5178,-8.5759,-8.6378,-8.6378,-8.6439,-8.6565,-8.6816,-8.7308,-8.7807,-8.8206,-8.9497,-9.0505,-9.0699,-9.1432,-9.1549,-9.0665,-8.9916,-8.9157,-8.8361,-8.7548,-8.7573,-8.8662,-8.9442,-9.0356,-9.1414,-9.2202,-9.257,-9.2572,-9.2577,-9.2617,-9.2617,-9.3476,-9.3906,-9.3945,-9.5703,-9.5937,-9.4844,-9.3281,-9.2617,-9.2656,-9.3554,-9.4297,-9.5,-9.5898,-9.6719,-9.7422,-9.7422,-9.7539,-9.7695,0.0,0.0,0.0,0.0,0.0,0.0,0.0,0.0,-6.5429,-6.5435,-6.5604,-6.5715,-6.5793,-6.5859,0.0,0.0,-6.5701,-6.5388,-6.4939,-6.4823,-6.4573,-6.4114,-6.4114,-6.3732,-6.293,-6.3006,-6.2883,-6.254,-6.3412,-6.4142,-6.4666,-6.6744,-6.7051,-6.5936,-6.7167,-6.7051,-6.5897,-6.5859,-6.5833,-6.578,-6.5674,-6.5848,-6.6188,-6.5743,-6.582,-6.6165,-6.5907,0.0,0.0,0.0,0.0,0.0,0.0,0.0,-7.1168,-7.2476,-7.3437,-7.4284,-7.5091,-7.6668,-7.8347,-7.9185,-8.1762,-8.4095,-8.4095,-8.541,-8.6455,-8.6068,-8.6378,-8.6737,-8.6797,-8.6816,-8.6987,-8.7477,-8.8011,-8.8667,-8.9527,-9.0447,-9.1202,-9.1592,-9.1979,-9.2052,-9.1567,-9.0343,-8.941,-8.8987,-8.7846,-8.7559,-8.8485,-8.906,-8.9724,-9.0601,-9.1086,-9.156,-9.1952,-9.1992,-9.2187,-9.2617,-9.3047,-9.3711,-9.4531,-9.5469,-9.5625,-9.5156,-9.4258,-9.3594,-9.332,-9.4609,-9.5156,-9.5312,-9.6562,-9.7344,-9.7695,-9.7695,-9.7695,-9.7695,0.0,0.0,0.0,0.0,0.0,0.0,0.0,0.0,0.0,-6.5537,-6.5688,-6.5807,-6.5807,-6.5859,-6.5897,0.0,0.0,0.0,-6.5594,-6.5465,-6.5413,-6.5413,-6.5413,-6.4611,-6.293,-6.2978,-6.264,-6.1888,-6.2938,-6.4001,-6.5089,-6.7205,-6.7359,-6.5974,-6.7475,-6.7321,-6.5897,-6.5833,-6.5807,-6.5807,-6.5688,-6.5622,-6.5622,-6.5622,-6.5622,-6.5674,-6.5934,-6.6473,-6.7049,-6.7269,0.0,0.0,0.0,0.0,-7.1283,-7.2168,-7.3514,-7.4938,-7.5938,-7.7708,-7.9673,-8.1504,-8.3128,-8.4366,-8.4482,-8.5604,-8.6636,-8.6713,-8.6737,-8.6785,-8.6899,-8.7049,-8.7419,-8.8204,-8.8662,-8.9387,-9.0684,-9.0995,-9.1307,-9.1821,-9.2026,-9.2067,-9.2026,-9.0617,-8.9699,-8.9706,-8.8151,-8.7549,-8.8361,-8.8582,-8.9037,-8.9761,-9.0075,-9.0584,-9.1289,-9.1445,-9.1875,-9.2617,-9.289,-9.3867,-9.5429,-9.5586,-9.5547,-9.5429,-9.5273,-9.4804,-9.4258,-9.5859,-9.6094,-9.5586,-9.7109,-9.7695,-9.7695,-9.7695,-9.7695,-9.7695,0.0,0.0,0.0,0.0,0.0,0.0,0.0,0.0,0.0,0.0,-6.5833,-6.5885,-6.5885,-6.5897,-6.5897,-6.5897,-6.5728,-6.5594,-6.5594,0.0,0.0,-6.5413,-6.5413,-6.4611,-6.293,-6.302,-6.268,-6.1888,-6.3591,-6.5231,-6.6782,-6.709,-6.6782,-6.5936,-6.6859,-6.6744,-6.5897,-6.5885,-6.5885,-6.5885,-6.5807,-6.578,-6.578,-6.578,-6.578,-6.587,-6.6628,-6.7,-6.7192,-6.7975,-6.8821,0.0,0.0,0.0,-7.2206,-7.3091,-7.3976,-7.5053,-7.6669,-7.9033,-8.141,-8.3296,-8.4443,-8.5333,-8.6107,-8.6455,-8.6649,-8.6761,-8.6843,-8.6899,-8.6884,-8.7602,-8.8256,-8.8453,-8.9715,-9.0492,-9.0054,-9.0606,-9.0885,-9.0284,-9.0852,-9.1256,-9.1256,-9.0365,-8.9794,-8.9771,-8.8243,-8.7386,-8.754,-8.8266,-8.8745,-8.8864,-9.035,-9.1172,-9.1289,-9.2031,-9.2461,-9.2617,-9.414,-9.5351,-9.6367,-9.7031,-9.6992,-9.6289,-9.5547,-9.5117,-9.5117,-9.6094,-9.6445,-9.6406,-9.7344,-9.7695,-9.7695,-9.7695,-9.7695,-9.7695,0.0,0.0,0.0,0.0,0.0,0.0,0.0,0.0,0.0,0.0,0.0,-6.5897,-6.5897,-6.5897,-6.5885,-6.5846,-6.5701,-6.5566,-6.5479,-6.542,-6.5413,-6.5413,-6.5413,-6.4855,-6.3714,-6.325,-6.314,-6.3373,-6.4168,-6.5667,-6.7821,-6.7821,-6.7898,-6.8013,-6.7898,-6.7359,-6.6551,-6.6551,-6.632,-6.5936,-6.6372,-6.6551,-6.6589,-6.7076,-6.7256,-6.7346,-6.7757,-6.8218,-6.8718,-6.9091,-6.9759,-7.0413,-7.0413,0.0,0.0,0.0,-7.2629,-7.3889,-7.6668,-7.9348,-8.1812,-8.3644,-8.4714,-8.5643,-8.7035,-8.7693,-8.8068,-8.8119,-8.8228,-8.8173,-8.7826,-8.8114,-8.8748,-8.9784,-9.0592,-9.0937,-9.0629,-9.0908,-9.1036,-9.0672,-9.0924,-9.1348,-9.1832,-9.0651,-8.9887,-8.9891,-8.8302,-8.7387,-8.7408,-8.7767,-8.8005,-8.8046,-8.9218,-9.0078,-9.0586,-9.1445,-9.2344,-9.3359,-9.5117,-9.6133,-9.6523,-9.7344,-9.75,-9.7148,-9.6758,-9.6328,-9.5976,-9.6836,-9.6914,-9.6562,-9.7383,-9.7695,-9.7695,-9.7695,-9.7695,-9.7695,0.0,0.0,0.0,0.0,0.0,0.0,0.0,0.0,0.0,0.0,0.0,-6.5897,-6.5897,0.0,0.0,0.0,-6.5688,-6.5537,-6.5429,-6.5413,-6.5429,-6.5405,-6.5444,-6.5091,-6.4336,-6.3469,-6.3537,-6.4501,-6.4513,-6.5961,-6.8744,-6.85,-6.909,-7.0283,-6.8975,-6.8052,-6.7436,-6.7436,-6.709,-6.659,-6.7205,-6.7564,-6.7821,-6.827,-6.8745,-6.9154,-6.9154,-6.9603,-7.023,-7.0462,-7.0772,-7.103,-7.103,-7.0992,0.0,0.0,0.0,-7.3251,-7.634,-7.8914,-8.1182,-8.2999,-8.4057,-8.5178,-8.7151,-8.8079,-8.8648,-8.9088,-8.9278,-8.9299,-8.9069,-8.9035,-8.9504,-9.0897,-9.1093,-9.1053,-9.0885,-9.0662,-9.0559,-9.0543,-9.0764,-9.1232,-9.2116,-9.1023,-9.0183,-9.0015,-8.8572,-8.7643,-8.7458,-8.742,-8.7538,-8.7812,-8.8594,-8.9453,-9.0312,-9.1406,-9.2734,-9.4258,-9.5781,-9.6601,-9.6836,-9.7422,-9.7695,-9.7695,-9.7695,-9.7344,-9.6836,-9.7461,-9.7344,-9.6875,-9.7461,-9.7695,-9.7695,-9.7695,-9.7695,-9.7656,0.0,0.0,0.0,0.0,0.0,0.0,0.0,0.0,0.0,0.0,0.0,-6.5897,-6.5897,-6.5897,-6.5872,-6.5807,-6.5688,-6.5537,-6.5429,-6.5413,-6.5405,-6.5494,-6.5494,0.0,-6.4419,-6.3604,-6.3604,-6.4501,-6.4552,-6.632,-6.9629,-6.8783,-6.9706,-7.1937,-6.9513,-6.8359,-6.8321,-6.8321,-6.8321,-6.8282,-6.8321,-6.886,-6.9592,-6.877,-6.9514,-7.0951,-7.0951,-7.1002,-7.1157,-7.2005,-7.1762,-7.1093,-7.1093,-7.1093,-7.1093,0.0,0.0,0.0,-7.5787,-7.7602,-7.9443,-8.1208,-8.2277,-8.3592,-8.6107,-8.6687,-8.7203,-8.8856,-8.9241,-8.962,-9.0577,-9.0833,-9.0937,-9.1059,-9.1093,-9.0813,-9.0061,-8.9272,-8.8748,-8.8809,-8.9555,-9.042,-9.1294,-9.1294,-9.0874,-9.0073,-8.9136,-8.8318,-8.7539,-8.75,-8.7851,-8.8594,-8.9492,-9.0351,-9.1211,-9.2929,-9.4219,-9.5156,-9.6054,-9.6914,-9.7656,-9.7695,-9.7695,-9.7695,-9.7695,-9.7695,-9.7656,-9.7695,-9.7695,-9.7656,-9.7695,-9.7695,-9.7695,-9.7695,-9.7695,-9.7578,0.0,0.0,0.0,0.0,0.0,0.0,0.0,0.0,0.0,0.0,0.0,0.0,0.0,-6.5397,-6.5231,-6.5649,-6.5576,-6.5435,-6.5413,-6.5413,-6.542,-6.5494,-6.5494,-6.5437,-6.5293,-6.4474,-6.4475,-6.541,-6.5423,-6.6898,-6.9706,-6.9398,-7.0014,-7.1283,-6.986,-6.9271,-6.931,-6.931,-6.8989,-6.8576,-6.9154,-6.9861,-7.0734,-7.1544,-7.2584,-7.3611,-7.3611,-7.3287,-7.2859,-7.2627,-7.1935,-7.1166,-7.1166,-7.0795,-7.0334,-7.0334,-7.1555,-7.3174,-7.4332,-7.6352,-7.8539,-8.0253,-8.1773,-8.3384,-8.5397,-8.6739,-8.7589,-8.7653,-8.86,-8.9553,-9.0004,-9.0574,-9.1225,-9.1832,-9.1502,-9.0875,-9.0027,-8.9676,-8.9509,-8.9516,-9.0296,-9.1168,-9.2048,-9.1113,-9.0339,-9.0038,-8.871,-8.7812,-8.7539,-8.75,-8.7851,-8.8672,-8.9531,-9.0703,-9.2109,-9.3867,-9.4883,-9.5234,-9.6601,-9.7422,-9.7695,-9.7695,-9.7695,-9.7656,-9.7148,-9.7226,-9.7695,-9.7695,-9.7695,-9.7695,-9.7695,-9.8047,-9.8476,-9.7929,-9.8045,-9.8317,0.0,0.0,0.0,0.0,0.0,0.0,0.0,0.0,-6.5897,-6.5897,0.0,0.0,0.0,0.0,-6.4642,-6.4726,-6.4661,-6.4573,-6.4573,-6.484,-6.5038,-6.5116,-6.5384,-6.5646,-6.582,-6.4975,-6.4962,-6.5897,-6.559,-6.6628,-6.8821,-6.8821,-6.9283,-7.0052,-6.954,-6.9489,-6.981,-6.9836,-6.968,-6.9485,-7.0064,-7.0821,-7.1644,-7.2532,-7.3971,-7.5449,-7.514,-7.4893,-7.4657,-7.4077,-7.2894,-7.1661,-7.1661,-7.0854,-6.993,-6.9907,-7.0765,-7.1931,-7.3068,-7.4866,-7.6858,-7.8549,-8.009,-8.1813,-8.4099,0.0,-8.6505,-8.6777,-8.8261,-8.9547,-8.9604,-9.0349,-9.1303,-9.226,-9.1476,-9.0573,-8.9988,-8.9723,-8.9672,-8.9984,-9.0765,-9.152,-9.2093,-9.1119,-9.0187,-8.9609,-8.8515,-8.7773,-8.75,-8.7773,-8.8437,-8.9531,-9.0429,-9.1445,-9.2578,-9.4023,-9.4922,-9.5234,-9.664,-9.7422,-9.7695,-9.7695,-9.7695,-9.7656,-9.6836,-9.6953,-9.7695,-9.7422,-9.7461,-9.7695,-9.7695,-9.8047,-9.8476,-9.7927,-9.8082,-9.8353,0.0,0.0,0.0,0.0,0.0,0.0,-6.5897,-6.5897,-6.5897,-6.5897,0.0,0.0,0.0,0.0,0.0,-6.3192,-6.3016,-6.293,-6.2892,-6.3694,-6.424,-6.4381,-6.5148,-6.5676,-6.5897,-6.5051,-6.5051,-6.5897,-6.5051,-6.5474,-6.709,-6.709,-6.7552,-6.8359,-6.8424,-6.8924,-6.9746,-6.9847,-7.0334,-7.1067,-7.1106,-7.1695,-7.2411,-7.1638,-7.3412,-7.6281,-7.5508,-7.5779,-7.6475,-7.6475,-7.4811,-7.2684,-7.2568,-7.133,-6.9965,-6.9899,-6.9933,-7.0324,0.0,0.0,0.0,-7.6062,-7.7155,-7.8748,-8.2164,0.0,-8.3825,-8.6311,-8.8303,-8.9556,-8.9571,-9.0314,-9.1257,-9.2189,-9.0924,-8.9871,-8.9871,-8.9216,-8.9047,-8.9906,-9.0765,-9.1285,-9.1312,-9.1236,-9.0539,-8.8828,-8.8672,-8.832,-8.7539,-8.8281,-8.9531,-9.125,-9.2148,-9.2617,-9.2617,-9.3476,-9.4375,-9.5195,-9.6094,-9.6953,-9.7695,-9.7695,-9.7695,-9.7617,-9.6797,-9.6914,-9.7617,-9.6836,-9.6953,-9.7695,-9.7695,-9.7734,-9.7734,-9.7692,-9.7729,-9.7611,0.0,0.0,0.0,0.0,0.0,-6.5897,-6.5897,-6.5897,-6.5897,0.0,0.0,0.0,-6.5897,-6.5538,-6.4728,-6.323,-6.3552,-6.3579,-6.293,-6.3179,-6.3632,-6.4381,-6.4652,-6.5154,-6.5897,-6.5667,-6.5667,-6.5897,-6.5667,-6.609,-6.709,-6.709,-6.7231,-6.7538,-6.7612,-6.7776,-6.8131,-6.939,-7.0081,-7.0358,-7.0976,-7.18,-7.2662,-7.3667,-7.4993,-7.6514,-7.7558,-7.8061,-7.8293,-7.8293,-7.6978,-7.4811,-7.1678,-6.9976,-6.9125,-6.9157,-6.9177,-6.9595,-7.131,0.0,0.0,0.0,0.0,0.0,0.0,0.0,0.0,-8.4954,-8.712,-8.8795,-8.8811,-8.9543,-9.0234,-9.0482,-8.9637,-8.8974,-8.8974,-8.9333,-8.9711,-8.9984,-9.0765,-9.1285,-9.1312,-9.0142,-8.9211,0.0,-8.8164,-8.7734,-8.75,-8.8867,-9.0156,-9.125,-9.2148,-9.2617,-9.2617,-9.4101,-9.4961,-9.5234,-9.6679,-9.7461,-9.7695,-9.7695,-9.7383,-9.6797,-9.5937,-9.6054,-9.6797,-9.6601,-9.6953,-9.7695,-9.7695,-9.8086,-9.8554,-9.7924,-9.8113,-9.8424,0.0,0.0,-6.5846,-6.5897,-6.5897,-6.5897,-6.5897,-6.5897,-6.5897,0.0,0.0,0.0,-6.5359,-6.515,-6.4517,-6.319,-6.3107,-6.2935,-6.2438,-6.247,-6.2935,-6.3846,-6.4308,-6.4936,-6.5897,-6.5897,-6.5897,-6.5897,-6.5897,-6.6128,-6.659,-6.6628,-6.6653,-6.669,-6.6785,-6.6841,-6.699,-6.8712,-6.9673,-7.0054,-7.0556,-7.1485,-7.2723,-7.369,-7.5276,-7.7132,-7.8486,-7.9453,-8.0111,-8.0459,-7.895,-7.6243,-7.2336,-7.0539,-6.9825,-6.9517,-6.944,-6.9798,-7.1189,-7.2202,-7.3137,-7.4149,0.0,0.0,0.0,0.0,0.0,0.0,-8.5641,-8.7564,-8.7921,-8.8364,-8.8852,-8.9255,-8.8596,-8.8199,-8.8545,-8.9099,-8.9477,-8.9477,-9.0218,-9.0622,-9.0258,-8.9283,-8.8547,-8.8203,-8.7773,-8.7656,-8.7969,-8.9258,-9.039,-9.1289,-9.2148,-9.2617,-9.2617,-9.3984,-9.4844,-9.5234,-9.6562,-9.7383,-9.7695,-9.7695,-9.7422,-9.6953,-9.6094,-9.6211,-9.6953,-9.664,-9.6953,-9.7695,-9.7695,-9.8008,-9.8398,-9.7882,-9.8032,-9.8303,0.0,0.0,-6.5936,-6.6013,-6.6013,-6.6051,-6.6167,-6.609,-6.6013,0.0,-6.5936,-6.5551,-6.4705,-6.4507,-6.4092,-6.3211,-6.2446,-6.1896,-6.1743,-6.1785,-6.2234,-6.3143,-6.395,-6.4834,-6.5859,-6.5897,-6.5897,-6.5897,-6.5897,-6.5897,-6.5897,-6.6049,-6.6085,-6.602,-6.6278,-6.6295,-6.6228,-6.8021,-6.9241,-7.0015,-7.0324,-7.1523,-7.3187,-7.3275,-7.5248,-7.8111,-7.9091,-8.0445,-8.1903,-8.2689,-8.0832,-7.7531,-7.4215,-7.2517,-7.1551,-7.0787,-7.0514,-7.0632,-7.1536,-7.2305,-7.2913,-7.2984,-7.4283,0.0,0.0,0.0,0.0,0.0,-8.402,-8.5923,-8.6663,-8.678,-8.7027,-8.776,-8.7398,-8.7341,-8.8316,-8.8591,-8.8696,-8.8696,-8.9398,-8.9567,-8.8772,-8.8619,-8.8273,-8.7539,-8.75,-8.7851,-8.8672,-8.9414,-9.0312,-9.1289,-9.2031,-9.25,-9.2617,-9.3476,-9.4336,-9.5195,-9.6094,-9.6914,-9.7695,-9.7695,-9.7656,-9.7539,-9.6797,-9.6914,-9.75,-9.6797,-9.6953,-9.7695,-9.7695,-9.7695,-9.7695,-9.7688,-9.7682,-9.7717,-6.578,-6.5846,-6.609,-6.6744,-6.6859,-6.709,-6.7821,-6.7321,-6.6859,-6.6859,-6.6269,-6.5703,-6.5444,-6.5364,-6.5005,-6.4214,-6.3984,-6.3294,-6.1952,-6.194,-6.2324,-6.3143,-6.3424,-6.4269,-6.5859,-6.5897,-6.5897,-6.5897,-6.5897,-6.5897,-6.5897,-6.6627,-6.661,-6.6067,-6.7548,-6.7448,-6.6281,-6.8032,-6.9241,-7.017,-7.2297,-7.4579,-7.6796,-7.755,-7.8646,-8.0013,-8.1646,-8.2871,-8.3712,-8.3867,-8.2553,-8.0361,-7.7705,-7.5353,-7.3538,-7.3419,-7.2446,-7.1626,-7.2549,-7.2468,-7.2267,-7.2993,-7.3961,0.0,-7.6643,-7.8472,0.0,0.0,0.0,-8.3974,-8.4091,-8.413,-8.3987,-8.3471,-8.4434,-8.5829,-8.7408,-8.8252,-8.8696,-8.8696,-8.8852,-8.8904,-8.8733,-8.8072,-8.7611,-8.75,-8.75,-8.7851,-8.8672,-8.8867,-8.9687,-9.125,-9.1445,-9.1875,-9.2578,-9.3476,-9.4336,-9.5195,-9.6094,-9.6914,-9.7695,-9.7695,-9.7344,-9.6719,-9.6562,-9.6601,-9.6719,-9.6562,-9.6953,-9.7695,-9.7695,-9.7695,-9.7695,-9.7692,-9.7689,-9.7688,-6.578,-6.5846,-6.6128,-6.6974,-6.709,-6.7398,-6.8282,-6.8013,-6.7744,-6.7744,-6.7305,-6.694,-6.6816,-6.6816,-6.6663,-6.6279,-6.5545,-6.4742,-6.3898,-6.3079,-6.304,-6.3847,-6.3911,-6.4551,-6.5859,-6.5897,-6.5897,-6.5897,-6.5897,-6.5923,-6.596,-6.6406,-6.6657,-6.6753,-6.7669,-6.7866,-6.7578,-6.8854,-7.0363,-7.2026,-7.2916,-7.4796,-7.7268,-7.858,-7.9892,-8.1231,-8.297,-8.4405,-8.5452,-8.5031,-8.4012,-8.2527,-7.999,-7.8076,-7.6505,-7.5207,-7.4307,-7.372,-7.3797,-7.3202,-7.2756,-7.3633,-7.3882,0.0,0.0,0.0,-7.9349,0.0,0.0,-8.2278,-8.2695,0.0,-8.2116,-8.2123,-8.3274,0.0,0.0,0.0,0.0,0.0,0.0,-8.8045,-8.8032,-8.7643,-8.7415,-8.75,-8.75,-8.7695,-8.8086,-8.8476,-8.9297,-9.0625,-9.1054,-9.1719,-9.2578,-9.3476,-9.4101,-9.457,-9.5898,-9.6719,-9.7109,-9.7539,-9.7461,-9.7109,-9.7109,-9.7109,-9.7109,-9.7109,-9.7344,-9.7695,-9.7695,-9.7695,-9.7734,-9.8201,-9.8082,-9.7769,-6.578,-6.5846,-6.6205,-6.7167,-6.7359,-6.7705,-6.8706,-6.8744,-6.8577,-6.8396,-6.8416,-6.8378,-6.825,-6.8457,-6.8602,-6.8616,-6.7505,-6.6588,-6.6089,-6.4782,-6.4282,-6.482,-6.4705,-6.5089,-6.609,-6.5974,-6.5897,-6.5897,-6.5897,-6.5935,-6.6008,-6.6171,-6.6664,-6.7415,-6.7972,-6.8429,-6.8893,-7.0208,-7.1794,-7.338,-7.3353,-7.4906,-7.739,-7.8796,-8.0545,-8.2411,-8.4139,-8.5547,-8.6478,-8.5854,-8.5058,-8.3981,-8.1947,-8.0653,-7.9467,-7.7209,-7.6265,-7.5781,-7.4979,-7.4098,-7.3612,-7.4327,-7.4017,-7.3897,0.0,0.0,0.0,0.0,0.0,0.0,0.0,0.0,0.0,0.0,0.0,0.0,0.0,0.0,0.0,0.0,0.0,0.0,-8.7407,-8.7255,-8.7183,-8.7265,-8.7265,-8.7265,-8.7265,-8.8164,-8.9101,-8.9961,-9.0859,-9.1719,-9.2578,-9.3281,-9.3711,-9.3906,-9.5508,-9.6328,-9.6523,-9.7344,-9.7695,-9.7695,-9.7695,-9.7695,-9.7695,-9.7695,-9.7695,-9.7734,-9.789,-9.7969,-9.8047,-9.8748,-9.8552,-9.8044,-6.578,-6.5846,-6.6397,-6.7975,-6.8244,-6.8783,-7.036,-7.0014,-6.9242,-6.8349,-6.8843,-6.9221,-6.9161,-6.9896,-7.0431,-7.0489,-7.0382,-6.9346,-6.7077,-6.6782,-6.6397,-6.5782,-6.5013,-6.5359,-6.6936,-6.6244,-6.5897,-6.5897,-6.5897,-6.5935,-6.6008,-6.68,-6.7243,-6.7492,-6.9839,-7.0092,-6.9009,-7.2142,-7.2723,-7.1883,-7.4829,-7.76,-7.9896,-8.0146,-8.179,-8.4221,-8.603,-8.6292,-8.5834,-8.5852,-8.5268,-8.4435,-8.4207,-8.3046,-8.1594,-8.0502,-7.8667,-7.6755,-7.59,-7.5017,-7.4366,-7.4486,-7.4447,-7.4408,-7.46,0.0,-7.6138,-7.6209,0.0,0.0,0.0,0.0,0.0,0.0,0.0,0.0,0.0,0.0,0.0,0.0,0.0,0.0,0.0,-8.6755,-8.6328,-8.6367,-8.6367,-8.6367,-8.6367,-8.7851,-8.9101,-8.9961,-9.0859,-9.1719,-9.2578,-9.2695,-9.3125,-9.3906,-9.4883,-9.5742,-9.6523,-9.7344,-9.7695,-9.7695,-9.7695,-9.7695,-9.7695,-9.7695,-9.7695,-9.7773,-9.8554,-9.8867,-9.8867,-9.8945,-9.8945,-9.875,-6.578,-6.5846,-6.6282,-6.7436,-6.8052,-6.8821,-7.0014,-7.0321,-7.0228,-6.9702,-6.9941,-7.0294,-7.0716,-7.1582,-7.2402,-7.2937,-7.3087,-7.2437,-7.0898,-6.986,-6.8706,-6.7398,-6.6513,-6.6167,-6.6397,-6.6051,-6.5897,-6.5897,-6.5935,-6.5958,-6.6017,-6.6422,-6.7172,-6.827,-6.9849,-7.0982,-7.1872,-7.3806,-7.4796,-7.5216,-7.7224,-7.8994,-8.0474,-8.0495,-8.2164,-8.4751,-8.7011,-8.7269,-8.6677,-8.7241,-8.6832,-8.6065,-8.5604,-8.4629,-8.3408,-8.2003,-8.0537,-7.907,-7.7666,-7.6688,-7.6022,-7.6022,-7.5233,-7.4642,-7.5149,-7.5537,-7.5801,-7.5791,0.0,0.0,0.0,0.0,0.0,0.0,-7.6177,0.0,0.0,0.0,0.0,0.0,0.0,0.0,0.0,0.0,0.0,0.0,-8.5156,-8.5664,-8.6172,-8.7773,-8.9101,-8.9961,-9.0859,-9.1719,-9.2578,-9.2617,-9.2773,-9.3164,-9.4531,-9.539,-9.5781,-9.7109,-9.7695,-9.7695,-9.7695,-9.7695,-9.7695,-9.7695,-9.7695,-9.7773,-9.8672,-9.8672,-9.832,-9.8828,-9.8672,-9.8281,-6.5807,-6.5859,-6.6128,-6.6974,-6.7821,-6.8783,-6.986,-7.0744,-7.1304,-7.139,-7.1781,-7.2379,-7.3121,-7.405,-7.4896,-7.5618,-7.5716,-7.5207,-7.3899,-7.2629,-7.1206,-6.9513,-6.8398,-6.7552,-6.6936,-6.6474,-6.6141,-6.5923,-6.5984,-6.6005,-6.6036,-6.608,-6.7061,-6.8854,-6.9899,-7.1523,-7.3651,-7.516,-7.6432,-7.7545,-7.8912,-8.0058,-8.1023,-8.1528,-8.305,-8.5293,-8.7631,-8.8086,-8.7699,-8.835,-8.8179,-8.7573,-8.7007,-8.6366,-8.5563,0.0,0.0,-8.1745,-8.0223,-7.9008,-7.8102,-7.7866,-7.649,-7.5311,-7.5699,-7.5816,-7.581,-7.5797,-7.6497,0.0,0.0,0.0,-7.5386,-7.5166,0.0,-7.5098,0.0,0.0,0.0,0.0,0.0,0.0,0.0,0.0,0.0,0.0,0.0,-8.4804,-8.5469,-8.7773,-8.9258,-8.9648,-9.0937,-9.1953,-9.2578,-9.2617,-9.2617,-9.2617,-9.4375,-9.5195,-9.5273,-9.6953,-9.7695,-9.7695,-9.7695,-9.7695,-9.7695,-9.7695,-9.7695,-9.7773,-9.8398,-9.8242,-9.7812,-9.8672,-9.8594,-9.8125,-6.5885,-6.5897,-6.6128,-6.6974,-6.7821,-6.8975,-7.0591,-7.1591,-7.2381,-7.3062,-7.4526,-7.5868,-7.6728,-7.761,-7.819,-7.8346,-7.8361,-7.7323,-7.4822,-7.463,-7.3822,-7.2129,-7.0514,-6.959,-6.959,-6.7936,-6.6705,-6.5996,-6.5996,-6.6029,-6.6091,-6.6102,-6.7061,-6.8893,-7.0518,-7.1756,-7.2877,-7.6204,-7.7206,-7.677,-7.9343,-8.0999,-8.2129,0.0,-8.5085,-8.6175,-8.7965,-8.8583,-8.8582,-8.8675,-8.868,-8.8644,-8.8616,-8.8619,-8.8385,-8.7488,-8.6082,-8.4598,-8.3662,-8.2176,-8.0652,-7.9821,-7.8293,-7.6807,-7.5975,-7.5816,-7.5816,-7.5813,-7.6477,-7.6828,-7.6008,-7.5149,-7.4288,-7.3507,-7.339,0.0,0.0,0.0,0.0,0.0,0.0,0.0,0.0,0.0,0.0,0.0,0.0,0.0,-8.3672,-8.7656,-8.957,-8.8789,-9.1211,-9.2578,-9.2617,-9.2617,-9.2617,-9.2617,-9.4375,-9.5195,-9.5273,-9.6953,-9.7695,-9.7695,-9.7695,-9.7695,-9.7695,-9.7695,-9.7695,-9.7695,-9.7734,-9.7734,-9.7812,-9.8672,-9.8984,-9.8828,-6.6577,-6.6667,-6.6782,-6.7051,-6.7821,-6.8975,-7.0629,-7.2035,-7.2999,-7.3162,-7.4631,-7.5972,-7.6881,-7.824,-7.9418,-8.0154,-8.0708,-8.04,-7.9015,-7.7861,-7.6476,-7.4784,-7.2552,-7.1091,-7.0514,-6.8321,-6.705,-6.6805,-6.631,-6.6058,-6.6102,-6.6144,-6.6784,-6.8003,-6.9705,-7.1562,-7.3651,-7.6521,-7.863,-8.014,-8.2309,-8.375,-8.4641,0.0,-8.5263,-8.6378,-8.8692,-8.9531,-8.9627,-9.0215,-9.0025,-8.9561,-8.9564,-8.9176,-8.8631,-8.8358,-8.7498,-8.6444,-8.5545,-8.406,-8.2495,-8.1633,-8.0102,-7.8449,-7.7,-7.711,-7.7375,-7.6789,-7.7335,-7.7882,-7.757,-7.6828,-7.593,-7.5071,-7.4017,-7.3317,0.0,0.0,0.0,0.0,0.0,0.0,0.0,0.0,0.0,0.0,0.0,0.0,0.0,-8.7422,-8.9258,-8.9531,-9.1523,-9.2617,-9.2617,-9.2617,-9.2617,-9.2617,-9.4375,-9.5195,-9.5273,-9.6953,-9.7695,-9.7695,-9.7695,-9.7695,-9.7695,-9.7695,-9.7695,-9.7695,-9.7695,-9.7695,-9.7734,-9.8047,-9.8125,-9.8086,-6.7898,-6.7782,-6.7552,-6.7552,-6.8282,-6.9321,-7.0706,-7.252,-7.3968,-7.4504,-7.6207,-7.7854,-7.9105,-8.0179,-8.1184,-8.1923,-8.2439,-8.2285,-8.117,-8.0054,-7.8669,-7.6938,-7.5082,-7.3479,-7.2325,-7.0157,-6.8627,-6.7726,-6.6946,-6.6422,-6.6134,-6.5894,-6.6379,-6.7578,-6.8932,-7.1021,-7.3612,-7.6544,-7.9332,-8.1949,-8.4482,-8.5909,0.0,0.0,-8.6499,-8.7318,-8.9629,-9.0653,-9.101,-9.1557,-9.1403,-9.0936,-9.0936,-9.0546,-9.0078,-9.0078,-8.9492,-8.8711,-8.8164,-8.6757,-8.5194,-8.4333,-8.2804,-8.1154,-7.974,-7.9616,-7.9647,-7.9053,0.0,0.0,0.0,-7.7648,-7.644,-7.5899,-7.4377,-7.321,0.0,-7.3853,0.0,0.0,0.0,0.0,0.0,0.0,0.0,0.0,0.0,0.0,0.0,0.0,-8.8398,-8.8633,-9.0625,-9.1836,-9.2148,-9.2148,-9.2304,-9.2617,-9.4375,-9.5195,-9.5273,-9.6953,-9.7695,-9.7695,-9.7695,-9.7695,-9.7695,-9.7695,-9.7695,-9.7695,-9.7695,-9.7695,-9.7695,-9.7695,-9.789,-9.8164,-6.9706,-6.9052,-6.85,-6.85,-6.9231,-7.0077,-7.0885,-7.312,-7.5295,-7.6903,-7.9194,-8.1321,-8.3114,-8.3323,-8.3449,-8.3654,-8.3632,-8.2901,-8.1323,-8.1131,-8.0377,-7.8723,-7.7872,-7.6682,-7.5025,-7.3395,-7.1347,-6.8933,-6.7995,-6.7139,-6.6301,-6.545,-6.5915,-6.7501,-6.839,-7.0208,-7.2772,-7.6245,-7.9337,-8.2184,-8.5704,-8.7198,-8.7347,-8.8399,-8.8774,-8.8981,-9.0699,-9.1874,-9.2617,-9.2617,-9.2617,-9.2617,-9.2617,-9.2617,-9.2617,-9.2617,-9.1992,-9.1367,-9.1367,-9.0078,-8.8554,-8.7732,-8.6286,-8.4799,-8.3925,-8.3099,-8.2508,0.0,0.0,0.0,0.0,0.0,-7.5938,-7.5831,-7.439,-7.3028,0.0,0.0,0.0,0.0,0.0,0.0,0.0,0.0,0.0,0.0,0.0,0.0,0.0,0.0,-8.7109,-8.6367,-8.8711,-9.0429,-9.1289,-9.1289,-9.1758,-9.2617,-9.4375,-9.5195,-9.5273,-9.6953,-9.7695,-9.7695,-9.7695,-9.7695,-9.7695,-9.7695,-9.7695,-9.7695,-9.7734,-9.7773,-9.7812,-9.7773,-9.8281,-9.9023,-6.959,-7.0014,-7.0231,-7.0176,-7.0892,-7.1747,-7.2494,-7.4718,-7.6913,-7.8564,-8.0402,-8.199,-8.3152,-8.393,-8.44,-8.4538,-8.3978,-8.3401,-8.2978,-8.1847,-8.0953,-8.053,-7.9191,-7.823,-7.7767,-7.5517,-7.3739,-7.2488,-7.0358,-6.8921,-6.8119,-6.6611,-6.6108,-6.6611,-6.8119,-6.9881,-7.1947,-7.5498,-7.9316,-8.318,-8.5404,-8.6367,-8.6645,0.0,-8.9684,-8.9804,-9.0898,-9.1875,-9.2617,-9.2617,-9.2617,-9.2617,-9.2617,-9.2617,-9.2617,-9.2617,-9.2422,-9.2265,-9.2265,-9.0976,-8.9609,-8.9375,-8.8045,-8.6559,-8.5736,-8.5302,-8.5102,-8.5138,-8.3771,0.0,0.0,0.0,0.0,0.0,0.0,0.0,0.0,0.0,0.0,-7.5507,0.0,0.0,0.0,0.0,0.0,0.0,0.0,0.0,0.0,0.0,0.0,-8.8047,-8.9336,-9.0429,-9.1289,-9.1289,-9.1758,-9.2617,-9.4375,-9.5195,-9.5273,-9.6953,-9.7695,-9.7695,-9.7695,-9.7695,-9.7695,-9.7695,-9.7695,-9.7773,-9.8398,-9.9062,-9.9531,-9.8906,-9.8828,-9.9101,-7.0706,-7.0832,-7.0944,-7.1242,-7.2272,-7.3085,-7.3185,-7.5305,-7.7628,-7.9748,-8.1454,-8.2965,-8.4335,-8.4925,-8.5301,-8.5423,-8.4978,-8.4571,-8.4234,-8.3341,-8.2693,-8.2352,-8.1498,-8.0845,-8.0497,-7.8361,-7.6505,-7.4958,-7.2015,-6.9976,-6.8738,-6.667,-6.5877,-6.6303,-6.7677,-6.9459,-7.1727,-7.6462,-8.0581,-8.4106,-8.589,-8.7105,0.0,-8.9876,-9.0819,-9.125,-9.2109,-9.25,-9.2617,-9.2617,-9.2617,-9.2617,-9.2617,-9.2617,-9.2617,-9.2617,-9.2617,-9.2617,-9.2617,-9.1875,-9.1133,-9.1133,-9.0117,-8.8983,-8.8513,-8.812,-8.7805,-8.7801,-8.616,-8.4559,-8.4051,0.0,0.0,0.0,0.0,0.0,0.0,0.0,0.0,0.0,-7.6992,0.0,0.0,0.0,0.0,0.0,0.0,0.0,0.0,0.0,0.0,-8.8125,-8.8984,-8.9844,-9.0703,-9.0742,-9.0976,-9.1484,-9.3633,-9.4648,-9.4687,-9.6758,-9.7695,-9.7695,-9.7695,-9.7695,-9.7695,-9.7695,-9.7929,-9.8359,-9.9219,-9.9883,-10.0312,-10.0195,-10.0117,-10.0195,-7.2052,-7.1458,-7.118,-7.1797,-7.3313,-7.4353,-7.3904,-7.5769,-7.8105,-8.0605,-8.2179,-8.3768,-8.5633,-8.586,-8.5933,-8.6077,-8.6017,-8.5665,-8.5028,-8.489,-8.455,-8.3852,-8.3898,-8.3591,-8.2895,-8.1478,-7.9453,-7.69,-7.3469,-7.0877,-6.9097,-6.6409,-6.5595,-6.637,-6.7346,-6.9416,-7.2599,-7.8285,-8.229,-8.4863,-8.6815,-8.8566,-9.0106,-9.1089,-9.1952,-9.2695,-9.3594,-9.3398,-9.2773,-9.289,-9.2851,-9.2773,-9.2773,-9.2695,-9.2617,-9.2617,-9.2617,-9.2617,-9.2617,-9.2617,-9.2617,-9.2617,-9.2031,-9.1484,-9.1482,-9.0896,-9.0348,-9.0344,-8.835,-8.6554,-8.6319,0.0,0.0,0.0,0.0,0.0,0.0,0.0,0.0,0.0,0.0,0.0,0.0,0.0,0.0,0.0,0.0,0.0,0.0,0.0,0.0,-8.7422,-8.8281,-8.9101,-9.0,-9.0,-9.0,-9.0039,-9.2656,-9.3906,-9.3984,-9.6523,-9.7695,-9.7695,-9.7695,-9.7695,-9.7695,-9.7695,-9.8281,-9.9258,-10.0117,-10.0508,-10.0703,-10.1484,-10.1797,-10.1797,-7.1283,-7.1535,-7.1871,-7.1912,-7.3811,-7.5757,-7.6967,-7.8135,-7.9586,-8.1456,-8.2043,-8.2957,-8.475,-8.5027,-8.5346,-8.6055,-8.5478,-8.5087,-8.499,-8.4396,-8.3968,-8.3898,-8.4004,-8.4005,-8.385,-8.3592,-8.2122,-7.9531,-7.6173,-7.3291,-7.0862,-6.7656,-6.6226,-6.6459,-6.8053,-7.1451,-7.6151,-7.9489,-8.2361,-8.4984,-8.7475,-8.9091,-9.0153,-9.1757,-9.2461,-9.2695,-9.3594,-9.3789,-9.3789,-9.4492,-9.4258,-9.3672,-9.3672,-9.3164,-9.2617,-9.2617,-9.2617,-9.2617,-9.2617,-9.2617,-9.2617,-9.2617,-9.25,-9.2383,-9.2383,-9.2265,-9.2148,-9.2148,-9.0624,-8.8906,-8.7499,-8.3242,0.0,0.0,0.0,0.0,0.0,0.0,0.0,0.0,0.0,0.0,0.0,0.0,0.0,0.0,0.0,0.0,0.0,0.0,0.0,0.0,-8.8281,0.0,0.0,0.0,-9.0,-9.0039,-9.2656,-9.3906,-9.3984,-9.6523,-9.7695,-9.7695,-9.7695,-9.7695,-9.7695,-9.7695,-9.8633,-10.0195,-10.1015,-10.1797,-10.25,-10.2617,-10.2695,-10.2695,-7.2937,-7.3149,-7.3484,-7.3814,-7.5535,-7.7441,-7.9072,-8.0391,-8.1709,-8.3119,-8.3382,-8.3913,-8.5279,-8.5483,-8.567,-8.6055,-8.5747,-8.5565,-8.5707,-8.5351,-8.5193,-8.5319,-8.5359,-8.541,-8.541,-8.4946,-8.3682,-8.1591,-7.8208,-7.5038,-7.2085,-6.9597,-6.7744,-6.6623,-6.9305,-7.3157,0.0,-8.0441,-8.3604,-8.6954,-8.8692,-9.0187,-9.1442,-9.2265,-9.289,-9.3398,-9.4258,-9.4844,-9.5234,-9.5195,-9.4922,-9.4492,-9.4023,-9.3594,-9.3203,-9.2734,-9.2617,-9.2617,-9.2617,-9.2617,-9.2617,-9.2617,-9.2617,-9.2617,-9.2617,-9.2617,-9.2617,-9.2617,-9.1562,-9.0039,-8.789,-8.4687,-8.2226,0.0,0.0,0.0,0.0,0.0,0.0,0.0,0.0,0.0,0.0,0.0,0.0,0.0,0.0,0.0,0.0,0.0,0.0,0.0,0.0,0.0,-9.0,0.0,-9.0234,-9.0703,-9.2851,-9.414,-9.4648,-9.6758,-9.7695,-9.7695,-9.7695,-9.7695,-9.7773,-9.8672,-9.9804,-10.1094,-10.1914,-10.25,-10.289,-10.289,-10.289,-10.289,-7.5014,-7.5071,-7.538,-7.6146,-7.7581,-7.918,-8.0811,-8.2474,-8.3716,-8.4246,-8.432,-8.4698,-8.5697,-8.5846,-8.5901,-8.6094,-8.6094,-8.6197,-8.6408,-8.6384,-8.6457,-8.6596,-8.661,-8.661,-8.661,-8.5926,-8.4727,-8.2917,-7.9698,-7.639,-7.3061,-7.1389,-6.9798,-6.8427,-7.177,-7.5478,-7.9279,-8.1914,-8.5342,-8.9037,-8.9945,-9.1203,-9.2615,-9.2617,-9.3125,-9.4023,-9.4883,-9.5742,-9.6406,-9.5898,-9.5625,-9.5312,-9.4453,-9.4062,-9.371,-9.2851,-9.2617,-9.2616,-9.2616,-9.2616,-9.2617,-9.2617,-9.2617,-9.2617,-9.2617,-9.2617,-9.2617,-9.2617,-9.1914,-9.0625,-8.8437,-8.6601,-8.5,-8.3633,0.0,0.0,0.0,0.0,0.0,0.0,0.0,0.0,0.0,0.0,0.0,0.0,0.0,0.0,0.0,0.0,0.0,0.0,0.0,-8.9219,-9.0273,0.0,-9.0703,-9.1601,-9.3359,-9.4531,-9.5273,-9.6953,-9.7695,-9.7695,-9.7695,-9.7812,-9.8086,-9.9648,-10.0781,-10.1719,-10.2617,-10.289,-10.289,-10.289,-10.289,-10.289,-7.6015,-7.6417,-7.7124,-7.8007,-7.9395,-8.0958,-8.2681,-8.427,-8.4786,-8.3485,-8.3385,-8.378,-8.4729,-8.4928,-8.5324,-8.6055,-8.6094,-8.6197,-8.6408,-8.6384,-8.6457,-8.6596,-8.661,-8.661,-8.661,-8.6597,-8.5357,-8.2917,-8.0397,-7.7407,-7.4045,-7.2407,-7.2423,-7.3879,-7.6595,-7.9299,-8.1996,-8.4626,-8.7347,-8.9947,-9.0845,-9.1752,-9.2617,-9.2617,-9.3125,-9.4023,-9.4883,-9.5742,-9.6601,-9.7265,-9.6992,-9.6211,-9.5351,-9.4531,-9.3747,-9.2849,-9.261,-9.2606,-9.2606,-9.261,-9.2614,-9.2614,-9.2616,-9.2617,-9.2617,-9.2617,-9.2617,-9.2617,-9.1914,-9.0976,-8.9961,-8.8398,-8.7187,-8.7031,0.0,0.0,0.0,0.0,-8.4844,0.0,0.0,0.0,0.0,0.0,0.0,0.0,-7.9687,0.0,0.0,0.0,0.0,-8.6289,0.0,-8.9492,-9.1172,-9.1172,-9.1601,-9.25,-9.4258,-9.5117,-9.5273,-9.6953,-9.7695,-9.7695,-9.7695,-9.8164,-9.8945,-9.9922,-10.0781,-10.1719,-10.2617,-10.289,-10.289,-10.289,-10.289,-10.289,-7.9746,-7.9638,-7.9761,-8.0558,-8.1517,-8.2792,-8.446,-8.5609,-8.6277,-8.6203,-8.5837,-8.5755,-8.6257,-8.5923,-8.5747,-8.6055,-8.6094,-8.6197,-8.6408,-8.6384,-8.6457,-8.6596,-8.6649,-8.6675,-8.6675,-8.6737,-8.6033,-8.4598,-8.2553,-7.9869,-7.6575,-7.545,-7.5328,-7.617,-7.8803,-8.1386,-8.3923,-8.6545,-8.8867,-9.0877,-9.1742,-9.2298,-9.2655,-9.3164,-9.3906,-9.4804,-9.5664,-9.6523,-9.7265,-9.7578,-9.75,-9.6992,-9.5625,-9.496,-9.441,-9.3004,-9.2609,-9.2603,-9.2603,-9.2606,-9.2609,-9.2613,-9.2615,-9.2616,-9.2617,-9.2617,-9.2617,-9.2617,-9.1914,-9.1172,-9.0859,-8.9375,-8.8047,-8.7578,0.0,0.0,0.0,0.0,0.0,0.0,0.0,0.0,0.0,0.0,0.0,0.0,0.0,0.0,0.0,0.0,0.0,-8.539,0.0,-8.8515,-9.1289,-9.1289,-9.2539,-9.4961,-9.5664,-9.6211,-9.6719,-9.7383,-9.7695,-9.7734,-9.8242,-9.8984,-9.9844,-10.0703,-10.1601,-10.2383,-10.2812,-10.289,-10.289,-10.289,-10.289,-10.289,-8.2554,-8.2208,-8.2077,-8.2858,-8.3564,-8.4494,-8.5915,-8.6928,-8.7768,-8.8538,-8.8155,-8.7711,-8.7389,-8.6846,-8.6363,-8.6132,-8.6094,-8.6197,-8.6408,-8.6384,-8.6457,-8.6636,-8.6687,-8.6737,-8.6773,-8.6793,-8.6443,-8.569,-8.4232,-8.2076,-7.9325,-7.8798,-7.8706,-7.9115,-8.1705,-8.4011,-8.6119,-8.8461,-9.0306,-9.1726,-9.2365,-9.2608,-9.2653,-9.3281,-9.4219,-9.5273,-9.5898,-9.664,-9.7344,-9.7344,-9.7187,-9.6758,-9.5585,-9.5193,-9.4838,-9.3117,-9.2603,-9.2556,-9.2556,-9.2597,-9.2601,-9.2609,-9.2613,-9.2614,-9.2617,-9.2617,-9.2539,-9.2265,-9.1914,-9.1523,-9.1015,-9.0116,-8.91,-8.8046,-8.7343,0.0,0.0,-8.5664,0.0,0.0,-8.5117,-8.4492,-8.25,-8.2304,0.0,0.0,0.0,0.0,0.0,0.0,0.0,0.0,0.0,0.0,-9.1289,-9.1562,-9.3281,-9.6484,-9.6758,-9.7148,-9.7695,-9.7695,-9.7695,-9.7734,-9.8633,-9.9492,-10.039,-10.1211,-10.2109,-10.289,-10.289,-10.289,-10.289,-10.289,-10.3007,-10.3319,-8.3555,-8.3555,-8.3824,-8.4709,-8.5364,-8.6084,-8.6947,-8.8307,-8.9338,-8.9554,-8.9573,-8.8959,-8.7361,-8.7312,-8.7055,-8.617,-8.6094,-8.6197,-8.6408,-8.6384,-8.6486,-8.67,-8.6713,-8.6773,-8.6899,-8.6912,-8.6506,-8.5697,-8.4965,-8.3679,-8.1973,-8.2073,-8.2608,-8.3543,-8.6158,-8.7837,-8.8774,-9.0531,-9.179,-9.2588,-9.2599,-9.2608,-9.2614,-9.2617,-9.3672,-9.5195,-9.5195,-9.5781,-9.6523,-9.6523,-9.5937,-9.5234,-9.5193,-9.5149,-9.4751,-9.3098,-9.2538,-9.2482,-9.2482,-9.2535,-9.259,-9.2601,-9.2609,-9.2614,-9.2617,-9.2617,-9.2343,-9.1481,-9.1988,-9.2066,-9.0339,-9.0689,-9.0692,-8.898,-8.8668,-8.8396,0.0,-8.7461,0.0,-8.5117,-8.5664,-8.5156,-8.2539,-8.2304,0.0,0.0,0.0,0.0,0.0,0.0,0.0,-8.4883,-8.6562,0.0,-9.1289,-9.2148,-9.3906,-9.6523,-9.7304,-9.7695,-9.7695,-9.7695,-9.7695,-9.7734,-9.8633,-9.9492,-10.039,-10.1211,-10.2109,-10.289,-10.289,-10.289,-10.2886,-10.2886,-10.3391,-10.4085,-8.5209,-8.5286,-8.5593,-8.644,-8.6684,-8.7039,-8.7848,-8.7811,-8.8116,-8.9439,-8.9612,-8.9438,-8.9063,-8.8077,-8.7286,-8.7017,-8.6489,-8.6238,-8.6369,-8.6486,-8.661,-8.6773,-8.6827,-8.6863,-8.6972,-8.7019,-8.6917,-8.6724,-8.6475,-8.5513,-8.3906,-8.3956,-8.4458,-8.5377,-8.7993,-8.9672,-9.0531,-9.1663,-9.2291,-9.2532,-9.2588,-9.2595,-9.2677,-9.3277,-9.3827,-9.4373,-9.5,-9.539,-9.5625,-9.5625,-9.5429,-9.5115,-9.4485,-9.4286,-9.4046,-9.2942,-9.2535,-9.2482,-9.2482,-9.2528,-9.2538,-9.2599,-9.2605,-9.261,-9.2617,-9.2616,-9.2537,-9.2223,-9.2415,-9.2411,-9.1861,-9.1041,-9.022,-8.9677,-8.8587,-8.7731,-8.7459,0.0,-8.6172,-8.5039,-8.5156,-8.5,-8.414,-8.4609,0.0,0.0,0.0,0.0,0.0,0.0,0.0,0.0,-8.6914,0.0,-9.1289,-9.2734,-9.4492,-9.6523,-9.7304,-9.7695,-9.7734,-9.832,-9.8594,-9.8672,-10.0117,-10.0898,-10.1289,-10.2109,-10.2617,-10.289,-10.289,-10.289,-10.3004,-10.359,-10.3586,-10.3382,-8.6478,-8.6858,-8.7182,-8.7413,-8.7598,-8.7798,-8.7996,-8.7733,-8.7868,-8.9036,-8.9475,-8.9778,-8.9975,-8.9096,-8.8226,-8.749,-8.7025,-8.6693,-8.6496,-8.6571,-8.6711,-8.6827,-8.6884,-8.6962,-8.7072,-8.7136,-8.7332,-8.7681,-8.8045,-8.7702,-8.6717,-8.6706,-8.6999,-8.7642,-8.9594,-9.0804,-9.135,-9.217,-9.2482,-9.2525,-9.258,-9.2585,-9.2666,-9.3195,-9.3629,-9.3981,-9.4531,-9.4726,-9.4726,-9.4726,-9.4492,-9.4138,-9.3584,-9.3423,-9.3304,-9.2739,-9.2766,-9.2912,-9.26,-9.2482,-9.2532,-9.2599,-9.2837,-9.3076,-9.3085,-9.285,-9.2496,-9.2181,-9.2097,-9.2011,-9.1694,-9.0716,-8.9898,-8.9551,-8.8582,-8.7884,-8.7886,-8.7186,-8.6445,0.0,0.0,-8.5701,0.0,-8.6131,-8.6873,0.0,0.0,0.0,0.0,0.0,-8.5859,-8.7578,-8.8476,-9.0,-9.2265,-9.3672,-9.5117,-9.6523,-9.7304,-9.7694,-9.7732,-9.8593,-9.8984,-9.9101,-10.0781,-10.1601,-10.1719,-10.25,-10.289,-10.289,-10.289,-10.2889,-10.3,-10.3899,-10.3812,-10.3486,-8.7418,-8.8117,-8.8473,-8.7648,-8.81,-8.8282,-8.7534,-8.7878,-8.8287,-8.8416,-8.9196,-8.9799,-8.9998,-9.0211,-8.9561,-8.7696,-8.7625,-8.7431,-8.6739,-8.6711,-8.676,-8.6914,-8.6962,-8.7072,-8.7191,-8.7191,-8.7642,-8.8495,-8.9313,-8.9771,-8.9915,-8.9827,-8.993,-9.014,-9.0921,-9.1311,-9.1428,-9.217,-9.2482,-9.2525,-9.258,-9.2585,-9.2588,-9.2608,-9.3082,-9.3824,-9.3828,-9.3828,-9.3828,-9.3828,-9.3281,-9.2617,-9.2608,-9.2681,-9.2755,-9.2532,-9.3107,-9.3615,-9.2756,-9.26,-9.2688,-9.2599,-9.3229,-9.382,-9.3906,-9.3241,-9.2377,-9.155,-9.1343,-9.1057,-9.03,-9.0023,-8.9678,-8.8912,-8.8729,-8.8699,-8.8705,-8.8003,-8.7496,-8.7496,-8.7491,-8.7211,-8.6547,-8.7172,-8.7719,0.0,0.0,0.0,0.0,0.0,-8.8554,-9.0039,-9.0976,-9.2265,-9.3867,-9.4804,-9.5742,-9.6679,-9.7419,-9.7805,-9.7836,-9.8743,-9.9137,-9.9176,-10.0898,-10.1719,-10.1797,-10.2617,-10.289,-10.289,-10.289,-10.2887,-10.3109,-10.389,-10.4186,-10.4194,-8.7557,-8.7788,-8.7895,-8.7642,-8.7773,-8.7796,-8.7517,-8.7044,-8.699,-8.766,-8.7956,-8.8437,-8.9169,-9.0027,-8.9824,-8.8042,-8.7875,-8.7784,-8.7691,-8.7148,-8.6914,-8.7055,-8.7136,-8.7184,-8.7195,-8.7195,-8.7631,-8.8495,-8.8122,-8.8584,-8.9876,-8.9259,-8.9707,-9.0999,-9.1194,-9.1624,-9.2248,-9.2404,-9.2482,-9.2482,-9.2528,-9.2528,-9.2532,-9.2599,-9.2723,-9.292,-9.2929,-9.289,-9.289,-9.289,-9.2773,-9.2614,-9.2606,-9.3495,-9.4228,-9.288,-9.3107,-9.3615,-9.2756,-9.3458,-9.4171,-9.291,-9.2768,-9.3085,-9.375,-9.3239,-9.2528,-9.2329,-9.1768,-9.1432,-9.1822,-9.0335,-8.9168,-8.96,-8.9146,-8.869,-8.8699,-8.8505,-8.8389,-8.8394,-8.8389,-8.8813,-8.9945,-9.0258,-9.0923,0.0,0.0,-9.0778,-9.1637,-9.1484,-9.1289,-9.1015,-9.2461,-9.3476,-9.3906,-9.5389,-9.687,-9.8427,-9.8582,-9.8697,-9.8735,-10.0305,-10.0582,-10.0113,-10.1796,-10.2617,-10.2617,-10.2812,-10.289,-10.289,-10.289,-10.3317,-10.389,-10.4788,-10.4693,-10.4311,-8.8243,-8.8277,-8.8204,-8.7817,-8.7768,-8.7652,-8.7181,-8.6713,-8.6544,-8.7046,-8.7452,-8.7947,-8.8439,-8.9448,-8.9721,-8.8778,-8.8673,-8.8335,-8.7591,-8.7225,-8.7072,-8.7152,-8.7199,-8.7188,-8.7209,-8.7209,-8.7637,-8.8495,-8.8485,-8.8979,-8.9915,-8.9887,-9.0374,-9.1311,-9.1663,-9.2092,-9.2482,-9.2482,-9.2482,-9.2482,-9.2482,-9.2482,-9.2525,-9.2556,-9.2603,-9.2606,-9.2616,-9.2617,-9.2617,-9.2617,-9.2617,-9.2616,-9.261,-9.3505,-9.4357,-9.3361,-9.3973,-9.4786,-9.3927,-9.4363,-9.4883,-9.4011,-9.3201,-9.2812,-9.3711,-9.3238,-9.2603,-9.2603,-9.1921,-9.1428,-9.1858,-9.0492,-8.9437,-8.9906,-8.9609,-8.9583,-9.0377,-9.0139,-9.0178,-9.0969,-9.0683,-9.0828,-9.1765,-9.1846,-9.2236,-9.3174,-9.2798,0.0,-9.3157,-9.3944,-9.3984,-9.3125,-9.4375,-9.5273,-9.5625,-9.6521,-9.7687,-9.9,-9.8609,-9.8607,-9.9028,-9.9986,-10.0382,-10.0383,-10.1718,-10.25,-10.289,-10.289,-10.289,-10.289,-10.289,-10.32,-10.3695,-10.4515,-10.4303,-10.3683,-8.9026,-8.8994,-8.8752,-8.8029,-8.8054,-8.7861,-8.7035,-8.6868,-8.6791,-8.6636,-8.7281,-8.7744,-8.7744,-8.8684,-8.9294,-8.9139,-8.9313,-8.8796,-8.731,-8.723,-8.7191,-8.7199,-8.7188,-8.7209,-8.7209,-8.7209,-8.7559,-8.83,-8.9108,-8.9564,-8.972,-9.0668,-9.1155,-9.135,-9.2131,-9.2482,-9.2482,-9.2482,-9.2482,-9.2482,-9.2482,-9.2482,-9.2525,-9.2556,-9.2603,-9.2606,-9.2733,-9.2695,-9.2617,-9.2734,-9.2695,-9.2617,-9.2615,-9.3277,-9.4096,-9.4001,-9.5235,-9.6393,-9.5375,-9.4998,-9.4975,-9.5307,-9.3983,-9.2812,-9.3711,-9.3238,-9.2603,-9.2603,-9.1921,-9.135,-9.1467,-9.0687,-9.0023,-9.0179,-9.0075,-9.0596,-9.2365,-9.1965,-9.2119,-9.3888,-9.3244,-9.2756,-9.2873,-9.2639,-9.26,-9.2873,-9.3528,-9.3931,-9.4087,-9.5623,-9.6172,-9.5429,-9.6211,-9.6992,-9.7695,-9.7848,-9.8268,-9.8986,-9.8518,-9.8587,-9.9197,-9.9466,-9.9906,-10.0494,-10.1405,-10.2187,-10.289,-10.289,-10.289,-10.289,-10.289,-10.3005,-10.3187,-10.381,-10.3597,-10.3093,-8.9152,-8.8711,-8.8278,-8.8088,-8.8666,-8.8872,-8.8011,-8.7871,-8.7587,-8.6851,-8.6948,-8.706,-8.706,-8.7953,-8.8278,-8.753,-8.8196,-8.8569,-8.8266,-8.7612,-8.7206,-8.7195,-8.7209,-8.7209,-8.7209,-8.7209,-8.7287,-8.7404,-8.7588,-8.8082,-8.8828,-8.977,-9.0609,-9.135,-9.2131,-9.2482,-9.2482,-9.2482,-9.2482,-9.2482,-9.2482,-9.2482,-9.2525,-9.2556,-9.2603,-9.2684,-9.3436,-9.3242,-9.2695,-9.3437,-9.3203,-9.2617,-9.2615,-9.3707,-9.4994,-9.4907,-9.6114,-9.7164,-9.5538,-9.4613,-9.4439,-9.5853,-9.4374,-9.2812,-9.3711,-9.3238,-9.2603,-9.2603,-9.1921,-9.1507,-9.217,-9.1038,-9.0257,-9.0999,-9.0495,-9.0618,-9.2354,-9.2421,-9.2961,-9.4697,-9.4136,-9.3888,-9.463,-9.3341,-9.3107,-9.4591,-9.4191,-9.4204,-9.4868,-9.5935,-9.6445,-9.6289,-9.7109,-9.7577,-9.7685,-9.8426,-9.8882,-9.9006,-10.0294,-10.0606,-10.0095,-10.1614,-10.2015,-10.1391,-10.2303,-10.2812,-10.289,-10.289,-10.289,-10.289,-10.2889,-10.3313,-10.389,-10.4113,-10.401,-10.3885,-8.9278,-8.8728,-8.819,-8.8229,-8.8911,-8.9182,-8.8345,-8.8229,-8.788,-8.7026,-8.693,-8.6951,-8.6951,-8.7408,-8.7556,-8.7128,-8.7517,-8.7786,-8.7805,-8.7415,-8.7188,-8.7209,-8.7209,-8.7404,-8.7871,-8.8378,-8.8612,-8.8612,-8.868,-8.8901,-8.9335,-9.0278,-9.0921,-9.135,-9.2131,-9.2482,-9.2522,-9.299,-9.3185,-9.3224,-9.3693,-9.3888,-9.3891,-9.3923,-9.3931,-9.4011,-9.4452,-9.4023,-9.3359,-9.375,-9.332,-9.2695,-9.3163,-9.4179,-9.5272,-9.5696,-9.6707,-9.7524,-9.6739,-9.5571,-9.4798,-9.5545,-9.4179,-9.2695,-9.3125,-9.2887,-9.2603,-9.2603,-9.2234,-9.2053,-9.2443,-9.1858,-9.1467,-9.1897,-9.1624,-9.1943,-9.3715,-9.394,-9.4363,-9.5667,-9.503,-9.4473,-9.4395,-9.3654,-9.3537,-9.4356,-9.4925,-9.5407,-9.5797,-9.667,-9.7145,-9.7147,-9.7498,-9.7691,-9.768,-9.8104,-9.856,-9.9002,-9.9783,-10.0212,-10.029,-10.1106,-10.1508,-10.1588,-10.199,-10.25,-10.289,-10.289,-10.289,-10.2889,-10.2887,-10.3114,-10.341,-10.3396,-10.3409,-10.3407,-8.9399,-8.9083,-8.8844,-8.8875,-8.9546,-8.9818,-8.9002,-8.873,-8.8264,-8.7409,-8.7137,-8.6992,-8.7001,-8.7241,-8.7331,-8.7144,-8.7369,-8.7404,-8.7209,-8.7209,-8.7287,-8.7481,-8.7715,-8.8105,-8.8806,-8.9469,-8.982,-8.982,-8.9888,-8.9915,-8.9915,-9.0863,-9.1311,-9.135,-9.2131,-9.2482,-9.2561,-9.3419,-9.381,-9.3888,-9.4747,-9.5098,-9.5102,-9.5094,-9.5102,-9.5143,-9.5429,-9.4922,-9.4219,-9.4219,-9.3633,-9.3008,-9.3672,-9.4492,-9.5351,-9.617,-9.7026,-9.7687,-9.769,-9.6479,-9.5192,-9.5195,-9.3906,-9.2617,-9.2617,-9.2613,-9.2603,-9.2601,-9.2543,-9.2561,-9.2756,-9.2795,-9.2873,-9.3068,-9.2912,-9.3426,-9.5154,-9.5226,-9.5417,-9.6289,-9.5616,-9.4825,-9.4161,-9.3927,-9.3966,-9.4356,-9.5622,-9.649,-9.6685,-9.7323,-9.7801,-9.8002,-9.7808,-9.7688,-9.7715,-9.7901,-9.8238,-9.869,-9.9314,-9.9822,-10.029,-10.0713,-10.1191,-10.1896,-10.191,-10.2303,-10.2889,-10.2889,-10.2888,-10.2884,-10.288,-10.279,-10.2807,-10.2815,-10.2788,-10.271,-8.9577,-9.0047,-9.0595,-9.0595,-9.1333,-9.1605,-9.075,-8.9934,-8.9118,-8.8302,-8.7487,-8.7001,-8.701,-8.7764,-8.8001,-8.7261,-8.7929,-8.8066,-8.7248,-8.7209,-8.7559,-8.8378,-8.9196,-8.9625,-8.9703,-8.9781,-8.982,-8.982,-8.9888,-8.9915,-8.9915,-9.0863,-9.1311,-9.135,-9.2131,-9.2482,-9.2561,-9.3419,-9.381,-9.3888,-9.4747,-9.5098,-9.5102,-9.5094,-9.5102,-9.5221,-9.6093,-9.5859,-9.5117,-9.5117,-9.4531,-9.3828,-9.3867,-9.4492,-9.5351,-9.625,-9.707,-9.7695,-9.7692,-9.6479,-9.5192,-9.5195,-9.3906,-9.2617,-9.2615,-9.2609,-9.2601,-9.259,-9.2535,-9.2756,-9.3576,-9.3693,-9.3966,-9.4786,-9.4239,-9.4317,-9.6074,-9.5606,-9.541,-9.6308,-9.5645,-9.5059,-9.502,-9.4278,-9.4473,-9.6074,-9.6325,-9.6763,-9.7544,-9.7674,-9.8071,-9.8891,-9.8118,-9.7685,-9.7701,-9.8482,-9.8512,-9.7831,-10.0212,-10.0993,-10.0407,-10.1912,-10.2702,-10.2702,-10.2795,-10.2798,-10.2916,-10.2916,-10.2916,-10.2914,-10.281,-10.2793,-10.2785,-10.2704,-10.2685,-10.2601,-9.033,-9.0545,-9.0789,-9.0789,-9.1527,-9.1799,-9.0944,-9.0517,-8.9818,-8.8497,-8.7992,-8.7817,-8.7788,-8.8153,-8.8468,-8.8749,-8.9097,-8.9157,-8.8845,-8.8806,-8.8728,-8.8495,-8.9858,-9.0599,-9.0599,-9.1144,-9.1417,-9.1417,-9.1487,-9.1515,-9.152,-9.1878,-9.2053,-9.2053,-9.2365,-9.2795,-9.3341,-9.4239,-9.4903,-9.5488,-9.6347,-9.6699,-9.6702,-9.6724,-9.6698,-9.6745,-9.7105,-9.6366,-9.5195,-9.5195,-9.4258,-9.3281,-9.4375,-9.4922,-9.5469,-9.6836,-9.7461,-9.7695,-9.7695,-9.6874,-9.5898,-9.5351,-9.4297,-9.3242,-9.2731,-9.2609,-9.2601,-9.2588,-9.2535,-9.2756,-9.3654,-9.381,-9.4083,-9.4942,-9.4825,-9.502,-9.623,-9.6113,-9.6035,-9.6347,-9.6113,-9.5684,-9.5137,-9.5293,-9.5684,-9.6347,-9.6901,-9.7334,-9.7685,-9.8208,-9.8914,-9.9764,-9.8958,-9.8492,-9.8521,-9.8316,-9.8306,-9.8533,-10.0017,-10.0915,-10.111,-10.2302,-10.2816,-10.2816,-10.291,-10.2914,-10.2914,-10.3413,-10.3288,-10.2885,-10.3387,-10.3201,-10.2704,-10.2585,-10.2616,-10.2504,-9.0828,-9.1022,-9.1216,-9.1216,-9.1682,-9.1915,-9.1294,-9.0983,-9.0284,-8.8846,-8.8458,-8.8216,-8.7971,-8.8434,-8.8943,-8.927,-8.9884,-9.0092,-8.982,-9.0053,-8.9936,-8.9352,-9.0716,-9.1495,-9.1495,-9.208,-9.2391,-9.2405,-9.2468,-9.2495,-9.2505,-9.2507,-9.2482,-9.2522,-9.2795,-9.3224,-9.3888,-9.502,-9.584,-9.6464,-9.7362,-9.7714,-9.7717,-9.7695,-9.7706,-9.7715,-9.7688,-9.6795,-9.5546,-9.5273,-9.4219,-9.3242,-9.4726,-9.5547,-9.6211,-9.7344,-9.7695,-9.7695,-9.7695,-9.7109,-9.6367,-9.5742,-9.4765,-9.375,-9.312,-9.2803,-9.2599,-9.2583,-9.2766,-9.3185,-9.4044,-9.4434,-9.4903,-9.5762,-9.5918,-9.6113,-9.6738,-9.6816,-9.6699,-9.6425,-9.6386,-9.6152,-9.5567,-9.6035,-9.6503,-9.6777,-9.7362,-9.7831,-9.8104,-9.8661,-9.9524,-10.0603,-9.9598,-9.9136,-9.941,-9.8267,-9.8143,-9.9002,-9.9861,-10.0681,-10.1504,-10.2413,-10.2807,-10.281,-10.278,-10.3017,-10.3285,-10.3811,-10.3908,-10.3607,-10.3817,-10.3581,-10.2998,-10.2603,-10.2489,-10.2509,-9.0983,-9.1527,-9.211,-9.211,-9.211,-9.211,-9.211,-9.1371,-9.0478,-8.9623,-8.8807,-8.7992,-8.7197,-8.8646,-8.9387,-8.8605,-9.0092,-9.0755,-8.9897,-9.0638,-9.1105,-9.1105,-9.1924,-9.2391,-9.2391,-9.2391,-9.2405,-9.2405,-9.2479,-9.2505,-9.249,-9.2514,-9.2482,-9.2522,-9.3419,-9.381,-9.3927,-9.5645,-9.6386,-9.6503,-9.7362,-9.7714,-9.7717,-9.7695,-9.7701,-9.7703,-9.7687,-9.7144,-9.6285,-9.5468,-9.4609,-9.4023,-9.4922,-9.6367,-9.7695,-9.7695,-9.7695,-9.7695,-9.7695,-9.7109,-9.6484,-9.6484,-9.5195,-9.3906,-9.3897,-9.3228,-9.2597,-9.2528,-9.3185,-9.4083,-9.4942,-9.5801,-9.6699,-9.7558,-9.7714,-9.7714,-9.7714,-9.7714,-9.7362,-9.6503,-9.6425,-9.6425,-9.6425,-9.6425,-9.6777,-9.7636,-9.7714,-9.8104,-9.8963,-9.9002,-9.9783,-10.1383,-9.9861,-9.9431,-10.029,-9.8572,-9.8143,-9.9002,-9.99,-10.0681,-10.15,-10.2398,-10.2789,-10.2789,-10.2789,-10.3284,-10.4114,-10.4009,-10.448,-10.5102,-10.4205,-10.3819,-10.3684,-10.2692,-10.2417,-10.2406,-9.176,-9.1915,-9.211,-9.211,-9.211,-9.211,-9.211,-9.1877,-9.1177,-8.9701,-8.9274,-8.8847,-8.8092,-8.849,-8.9193,-9.0241,-9.0794,-9.1261,-9.1612,-9.1885,-9.2002,-9.2002,-9.2274,-9.2391,-9.2391,-9.2391,-9.2093,-9.1508,-9.2167,-9.2193,-9.1592,-9.2202,-9.2482,-9.2522,-9.3419,-9.4122,-9.4786,-9.5918,-9.6738,-9.7323,-9.7597,-9.7714,-9.7714,-9.7682,-9.7692,-9.7703,-9.7719,-9.6788,-9.5504,-9.5273,-9.4219,-9.3242,-9.4726,-9.6367,-9.7695,-9.7695,-9.7695,-9.7695,-9.7695,-9.7109,-9.6484,-9.6484,-9.5664,-9.4804,-9.4754,-9.4087,-9.3495,-9.3426,-9.3615,-9.4083,-9.4942,-9.5801,-9.6702,-9.7575,-9.7682,-9.7717,-9.7692,-9.7682,-9.7597,-9.7323,-9.7323,-9.7323,-9.7323,-9.7323,-9.7401,-9.7675,-9.826,-9.9002,-9.9861,-10.0407,-10.0993,-10.15,-10.0485,-9.9744,-9.9392,-9.8885,-9.9041,-9.9939,-10.0681,-10.1618,-10.2398,-10.2711,-10.282,-10.2802,-10.3387,-10.3792,-10.409,-10.5296,-10.5492,-10.5092,-10.4805,-10.4297,-10.3587,-10.2695,-10.1884,-10.1495,-9.2187,-9.211,-9.211,-9.211,-9.211,-9.211,-9.211,-9.211,-9.1605,-9.0206,-8.9701,-8.9236,-8.8481,-8.8412,-8.8842,-8.9968,-9.0716,-9.1339,-9.1846,-9.2197,-9.2391,-9.2391,-9.2391,-9.2391,-9.2391,-9.2391,-9.2139,-9.1643,-9.2212,-9.2237,-9.1722,-9.2596,-9.3029,-9.3068,-9.4278,-9.5137,-9.5684,-9.6542,-9.7206,-9.7714,-9.7714,-9.7714,-9.7714,-9.7714,-9.7682,-9.7695,-9.7713,-9.6629,-9.5149,-9.5195,-9.4492,-9.3828,-9.4883,-9.6367,-9.7695,-9.7695,-9.7695,-9.7695,-9.7695,-9.7109,-9.6562,-9.6914,-9.6094,-9.5273,-9.5536,-9.4985,-9.4355,-9.4324,-9.4591,-9.4981,-9.5527,-9.6315,-9.7103,-9.762,-9.7692,-9.7689,-9.7698,-9.7685,-9.7714,-9.7714,-9.7714,-9.7714,-9.7714,-9.7714,-9.7831,-9.8182,-9.869,-9.9509,-10.0681,-10.1188,-10.1696,-10.2008,-10.1188,-10.0485,-9.9978,-9.9978,-10.0095,-10.029,-10.111,-10.2008,-10.2789,-10.282,-10.2802,-10.2816,-10.3697,-10.42,-10.4518,-10.591,-10.6293,-10.6001,-10.5216,-10.4599,-10.4005,-10.2805,-10.1705,-10.1084,-9.2498,-9.2265,-9.2226,-9.2226,-9.2148,-9.211,-9.211,-9.211,-9.1799,-9.0905,-9.0051,-8.9236,-8.8473,-8.8334,-8.8375,-8.8605,-9.0209,-9.1183,-9.1105,-9.1924,-9.243,-9.2508,-9.2508,-9.2508,-9.2508,-9.243,-9.2386,-9.2373,-9.2451,-9.2481,-9.2522,-9.338,-9.3849,-9.4005,-9.5645,-9.6347,-9.6347,-9.7284,-9.7675,-9.7597,-9.7675,-9.7714,-9.7714,-9.7714,-9.7714,-9.7721,-9.7711,-9.6626,-9.5221,-9.5194,-9.5234,-9.5312,-9.5312,-9.6484,-9.7812,-9.7734,-9.7773,-9.7812,-9.7734,-9.7109,-9.6679,-9.75,-9.6484,-9.5507,-9.6317,-9.5843,-9.5211,-9.5222,-9.584,-9.6386,-9.6386,-9.7103,-9.7701,-9.7701,-9.7701,-9.7701,-9.7701,-9.7689,-9.7714,-9.7714,-9.7714,-9.7714,-9.7714,-9.7753,-9.8182,-9.9041,-9.9197,-9.99,-10.1383,-10.1618,-10.1891,-10.2711,-10.1891,-10.15,-10.1383,-10.15,-10.111,-10.0407,-10.1188,-10.2004,-10.2785,-10.2797,-10.2811,-10.2698,-10.3602,-10.4393,-10.5203,-10.6011,-10.6805,-10.7293,-10.5614,-10.4891,-10.4697,-10.2909,-10.1705,-10.1084,-9.4169,-9.3586,-9.312,-9.312,-9.2537,-9.211,-9.211,-9.211,-9.1799,-9.0905,-9.0051,-8.9236,-8.8473,-8.7789,-8.7947,-8.9384,-9.1105,-9.1846,-9.1144,-9.1924,-9.2703,-9.3405,-9.3405,-9.3405,-9.3405,-9.2742,-9.2113,-9.1476,-9.2178,-9.2481,-9.2522,-9.338,-9.4161,-9.4864,-9.5918,-9.6035,-9.5488,-9.705,-9.7323,-9.6738,-9.744,-9.7714,-9.7714,-9.7714,-9.7714,-9.7721,-9.7711,-9.7016,-9.6003,-9.5429,-9.5664,-9.6211,-9.6211,-9.7383,-9.8594,-9.789,-9.8164,-9.8554,-9.789,-9.7109,-9.6679,-9.7498,-9.6911,-9.6363,-9.7213,-9.6737,-9.6139,-9.6117,-9.6269,-9.6386,-9.6386,-9.7103,-9.7703,-9.7713,-9.7706,-9.7703,-9.7715,-9.7695,-9.7714,-9.7714,-9.7714,-9.7714,-9.7714,-9.8338,-9.908,-9.9939,-10.0603,-10.111,-10.15,-10.2086,-10.2281,-10.1813,-10.1618,-10.1188,-10.0603,-10.1188,-10.1383,-10.1305,-10.2108,-10.2607,-10.2797,-10.271,-10.2698,-10.2702,-10.4213,-10.4882,-10.5093,-10.6599,-10.7293,-10.7324,-10.5602,-10.4891,-10.4697,-10.2909,-10.1705,-10.1006,-9.479,-9.4013,-9.3392,-9.3392,-9.2692,-9.211,-9.211,-9.211,-9.1954,-9.1488,-9.0284,-8.9392,-8.9056,-8.7867,-8.7472,-8.8488,-9.0521,-9.1417,-9.056,-9.208,-9.321,-9.3677,-9.4067,-9.4262,-9.4262,-9.3833,-9.3205,-9.2373,-9.2841,-9.33,-9.3771,-9.463,-9.5293,-9.5762,-9.6621,-9.6777,-9.6386,-9.7323,-9.744,-9.705,-9.7518,-9.7714,-9.7714,-9.7714,-9.7714,-9.7721,-9.7711,-9.7178,-9.6324,-9.5468,-9.5781,-9.6484,-9.6484,-9.7383,-9.8281,-9.7812,-9.8008,-9.8281,-9.7812,-9.7382,-9.7186,-9.7574,-9.7374,-9.7132,-9.7596,-9.7355,-9.7031,-9.7015,-9.7011,-9.7015,-9.7022,-9.7734,-9.8331,-9.8303,-9.8333,-9.8328,-9.8336,-9.7965,-9.7831,-9.826,-9.8338,-9.8494,-9.8885,-9.9353,-9.9978,-10.0798,-10.1305,-10.1696,-10.2086,-10.2593,-10.2593,-10.2086,-10.2086,-10.1891,-10.15,-10.1883,-10.2108,-10.2108,-10.2602,-10.3011,-10.3295,-10.2893,-10.2796,-10.3196,-10.4513,-10.4987,-10.5093,-10.6803,-10.7401,-10.7183,-10.559,-10.4891,-10.4697,-10.2909,-10.2016,-10.1589,-9.5256,-9.4324,-9.3625,-9.3625,-9.277,-9.211,-9.211,-9.211,-9.211,-9.211,-9.0711,-8.9702,-8.9679,-8.8429,-8.7526,-8.7436,-8.982,-9.1028,-9.0287,-9.2391,-9.3833,-9.4106,-9.4768,-9.5119,-9.5119,-9.5119,-9.4725,-9.3933,-9.3933,-9.4393,-9.5332,-9.6074,-9.6464,-9.666,-9.7362,-9.7636,-9.7518,-9.7792,-9.7831,-9.7714,-9.8026,-9.8143,-9.8143,-9.7987,-9.7909,-9.7913,-9.775,-9.7261,-9.6601,-9.5859,-9.6094,-9.6719,-9.6719,-9.7265,-9.789,-9.7734,-9.7812,-9.789,-9.7734,-9.7694,-9.769,-9.7689,-9.7795,-9.7932,-9.7929,-9.7812,-9.7692,-9.7682,-9.7717,-9.7763,-9.7896,-9.8523,-9.9036,-9.9201,-9.9232,-9.9224,-9.9224,-9.8583,-9.8416,-9.9158,-9.9236,-9.9548,-10.0407,-10.0485,-10.0798,-10.1696,-10.1696,-10.2008,-10.2789,-10.2789,-10.2906,-10.2984,-10.2984,-10.3101,-10.3218,-10.3197,-10.3217,-10.3206,-10.3201,-10.3407,-10.3698,-10.3099,-10.2993,-10.3491,-10.4411,-10.4782,-10.5007,-10.66,-10.7183,-10.6989,-10.5512,-10.4813,-10.4502,-10.2898,-10.2303,-10.2213,-9.6888,-9.5606,-9.4518,-9.4518,-9.3197,-9.211,-9.211,-9.211,-9.211,-9.211,-9.1255,-9.0402,-8.9757,-8.9528,-8.9143,-8.8378,-9.0716,-9.2158,-9.208,-9.3093,-9.434,-9.5782,-9.5976,-9.6015,-9.6015,-9.6015,-9.5622,-9.4831,-9.4831,-9.5285,-9.623,-9.6347,-9.6816,-9.7518,-9.7636,-9.7284,-9.666,-9.8182,-9.8377,-9.7831,-9.9353,-9.9939,-9.9861,-9.9119,-9.8807,-9.8732,-9.7984,-9.7612,-9.7539,-9.7383,-9.7422,-9.7539,-9.7539,-9.8125,-9.8672,-9.7929,-9.8242,-9.8672,-9.789,-9.7694,-9.769,-9.7684,-9.8258,-9.883,-9.8814,-9.8225,-9.7682,-9.7695,-9.7698,-9.7935,-9.8692,-9.8928,-9.9241,-9.9983,-10.0091,-10.0083,-10.0083,-9.9989,-9.9978,-10.0095,-10.0095,-10.0407,-10.1305,-10.1305,-10.1696,-10.2593,-10.2593,-10.2711,-10.2789,-10.2789,-10.3101,-10.3882,-10.3882,-10.4311,-10.5014,-10.4992,-10.4912,-10.4896,-10.4899,-10.4097,-10.2796,-10.3297,-10.3216,-10.2611,-10.3411,-10.4203,-10.5007,-10.6017,-10.6406,-10.6289,-10.5318,-10.4386,-10.3597,-10.2616,-10.2203,-10.2112,-9.7199,-9.5839,-9.4723,-9.4723,-9.3275,-9.211,-9.211,-9.211,-9.211,-9.211,-9.1364,-9.0752,-9.0466,-9.047,-9.017,-8.9313,-9.1183,-9.2391,-9.2391,-9.3638,-9.4924,-9.6132,-9.6678,-9.6912,-9.6912,-9.6912,-9.6752,-9.6469,-9.5962,-9.6227,-9.7128,-9.7128,-9.7323,-9.7714,-9.7714,-9.7753,-9.7909,-9.869,-9.908,-9.9236,-9.9978,-10.029,-10.0212,-9.9325,-9.9016,-9.8905,-9.7993,-9.7692,-9.7695,-9.7695,-9.7695,-9.7773,-9.8281,-9.8359,-9.8281,-9.8398,-9.8359,-9.8203,-9.7812,-9.8045,-9.8426,-9.8422,-9.907,-9.9715,-9.9744,-9.9431,-9.9165,-9.9143,-9.9145,-9.9268,-9.967,-10.0095,-10.0598,-10.0989,-10.1017,-10.1007,-10.1007,-10.061,-10.0485,-10.0915,-10.1383,-10.1813,-10.2203,-10.2203,-10.2398,-10.2789,-10.2789,-10.2789,-10.2789,-10.2789,-10.3218,-10.4116,-10.4116,-10.4502,-10.5305,-10.528,-10.5312,-10.5196,-10.5598,-10.5388,-10.462,-10.451,-10.4494,-10.4499,-10.4398,-10.4502,-10.4891,-10.5318,-10.5512,-10.5396,-10.4502,-10.3585,-10.281,-10.232,-10.2112,-10.2085]},{"header":{"parameterUnit":"m.s-1","parameterCategory":1,"la1":30.6,"la2":28.766,"lo1":-90.7593,"lo2":-88.6598,"dx":0.0162,"dy":0.0183,"nx":116,"ny":114,"refTime":"2023-01-01T18:00:00:Z","depth":0,"parameterNumber":3,"parameterNumberName":"V-component_of_WINDS"},"data":[0.0,0.0,0.0,0.0,0.0,0.0,0.0,0.0,0.0,0.0,0.0,0.0,0.0,0.0,0.0,0.0,0.0,0.0,0.0,0.0,0.0,0.0,0.0,0.0,0.0,0.0,0.0,0.0,0.0,0.0,0.0,0.0,0.0,0.0,0.0,0.0,0.0,0.0,0.0,0.0,0.0,0.0,0.0,0.0,0.0,0.0,0.0,0.0,0.0,0.0,0.0,0.0,0.0,0.0,0.0,0.0,0.0,0.0,0.0,0.0,0.0,0.0,0.0,0.0,0.0,0.0,0.0,0.0,0.0,0.0,0.0,0.0,0.0,0.0,0.0,0.0,0.0,0.0,0.0,0.0,0.0,0.0,0.0,0.0,0.0,0.0,0.0,0.0,0.0,0.0,0.0,0.0,0.0,0.0,0.0,0.0,0.0,0.0,0.0,0.0,0.0,0.0,0.0,0.0,0.0,0.0,0.0,0.0,0.0,0.0,0.0,0.0,0.0,0.0,0.0,0.0,0.0,0.0,0.0,0.0,0.0,0.0,0.0,0.0,0.0,0.0,0.0,0.0,0.0,0.0,0.0,0.0,0.0,0.0,0.0,0.0,0.0,0.0,0.0,0.0,0.0,0.0,0.0,0.0,0.0,0.0,0.0,0.0,0.0,0.0,0.0,0.0,0.0,0.0,0.0,0.0,0.0,0.0,0.0,0.0,0.0,0.0,0.0,0.0,0.0,0.0,0.0,0.0,0.0,0.0,0.0,0.0,0.0,0.0,0.0,0.0,0.0,0.0,0.0,0.0,0.0,0.0,0.0,0.0,0.0,0.0,0.0,0.0,0.0,0.0,0.0,0.0,0.0,0.0,0.0,0.0,0.0,0.0,0.0,0.0,0.0,0.0,0.0,0.0,0.0,0.0,0.0,0.0,0.0,0.0,0.0,0.0,0.0,0.0,0.0,0.0,0.0,0.0,0.0,0.0,0.0,0.0,0.0,0.0,0.0,0.0,0.0,0.0,0.0,0.0,0.0,0.0,0.0,0.0,0.0,0.0,0.0,0.0,0.0,0.0,0.0,0.0,0.0,0.0,0.0,0.0,0.0,0.0,0.0,0.0,0.0,0.0,0.0,0.0,0.0,0.0,0.0,0.0,0.0,0.0,0.0,0.0,0.0,0.0,0.0,0.0,0.0,0.0,0.0,0.0,0.0,0.0,0.0,0.0,0.0,0.0,0.0,0.0,0.0,0.0,0.0,0.0,0.0,0.0,0.0,0.0,0.0,0.0,0.0,0.0,0.0,0.0,0.0,0.0,0.0,0.0,0.0,0.0,0.0,0.0,0.0,0.0,0.0,0.0,0.0,0.0,0.0,0.0,0.0,0.0,0.0,0.0,0.0,0.0,0.0,0.0,0.0,0.0,0.0,0.0,0.0,0.0,0.0,0.0,0.0,0.0,0.0,0.0,0.0,0.0,0.0,0.0,0.0,0.0,0.0,0.0,0.0,0.0,0.0,0.0,0.0,0.0,0.0,0.0,0.0,0.0,0.0,0.0,0.0,0.0,0.0,0.0,0.0,0.0,0.0,0.0,0.0,0.0,0.0,0.0,0.0,0.0,0.0,0.0,0.0,0.0,0.0,0.0,0.0,0.0,0.0,0.0,0.0,0.0,0.0,0.0,0.0,0.0,0.0,0.0,0.0,0.0,0.0,0.0,0.0,0.0,0.0,0.0,0.0,0.0,0.0,0.0,0.0,0.0,0.0,0.0,0.0,0.0,0.0,0.0,0.0,0.0,0.0,0.0,0.0,0.0,0.0,0.0,0.0,0.0,0.0,0.0,0.0,0.0,0.0,0.0,0.0,0.0,0.0,0.0,0.0,0.0,0.0,0.0,0.0,0.0,0.0,0.0,0.0,0.0,0.0,0.0,0.0,0.0,0.0,0.0,0.0,0.0,0.0,0.0,0.0,0.0,0.0,0.0,0.0,0.0,0.0,0.0,0.0,0.0,0.0,0.0,0.0,0.0,0.0,0.0,0.0,0.0,0.0,0.0,0.0,0.0,0.0,0.0,0.0,0.0,0.0,0.0,0.0,0.0,0.0,0.0,0.0,0.0,0.0,0.0,0.0,0.0,0.0,0.0,0.0,0.0,0.0,0.0,0.0,0.0,0.0,0.0,0.0,0.0,0.0,0.0,0.0,0.0,0.0,0.0,0.0,0.0,0.0,0.0,0.0,0.0,0.0,0.0,0.0,0.0,0.0,0.0,0.0,0.0,0.0,0.0,0.0,0.0,0.0,0.0,0.0,0.0,0.0,0.0,0.0,0.0,0.0,0.0,0.0,0.0,0.0,0.0,0.0,0.0,0.0,0.0,0.0,0.0,0.0,0.0,0.0,0.0,0.0,0.0,0.0,0.0,0.0,0.0,0.0,0.0,0.0,0.0,0.0,0.0,0.0,0.0,0.0,0.0,0.0,0.0,0.0,0.0,0.0,0.0,0.0,0.0,0.0,0.0,0.0,0.0,0.0,0.0,0.0,0.0,0.0,0.0,0.0,0.0,0.0,0.0,0.0,0.0,0.0,0.0,0.0,0.0,0.0,0.0,0.0,0.0,0.0,0.0,0.0,0.0,0.0,0.0,0.0,0.0,0.0,0.0,0.0,0.0,0.0,0.0,0.0,0.0,0.0,0.0,0.0,0.0,0.0,0.0,0.0,0.0,0.0,0.0,0.0,0.0,0.0,0.0,0.0,0.0,0.0,0.0,0.0,0.0,0.0,0.0,0.0,0.0,0.0,0.0,0.0,0.0,0.0,0.0,0.0,0.0,0.0,0.0,0.0,0.0,0.0,0.0,0.0,0.0,0.0,0.0,0.0,0.0,0.0,0.0,0.0,0.0,0.0,0.0,0.0,0.0,0.0,0.0,0.0,0.0,0.0,0.0,0.0,0.0,0.0,0.0,0.0,0.0,0.0,0.0,0.0,0.0,0.0,0.0,0.0,0.0,0.0,0.0,0.0,0.0,0.0,0.0,0.0,0.0,0.0,0.0,0.0,0.0,0.0,0.0,0.0,0.0,0.0,0.0,0.0,0.0,0.0,0.0,0.0,0.0,0.0,0.0,0.0,0.0,0.0,0.0,0.0,0.0,0.0,0.0,0.0,0.0,0.0,0.0,0.0,0.0,0.0,0.0,0.0,0.0,0.0,0.0,0.0,0.0,0.0,0.0,0.0,0.0,0.0,0.0,0.0,0.0,0.0,0.0,0.0,0.0,0.0,0.0,0.0,0.0,0.0,0.0,0.0,0.0,0.0,0.0,0.0,0.0,0.0,0.0,0.0,0.0,0.0,0.0,0.0,0.0,0.0,0.0,0.0,0.0,0.0,0.0,0.0,0.0,0.0,0.0,0.0,0.0,0.0,0.0,0.0,0.0,0.0,0.0,0.0,0.0,0.0,0.0,0.0,0.0,0.0,0.0,0.0,0.0,0.0,0.0,0.0,0.0,0.0,0.0,0.0,0.0,0.0,0.0,0.0,0.0,0.0,0.0,0.0,0.0,0.0,0.0,0.0,0.0,0.0,0.0,0.0,0.0,0.0,0.0,0.0,0.0,0.0,0.0,0.0,0.0,0.0,0.0,0.0,0.0,0.0,0.0,0.0,0.0,0.0,0.0,0.0,0.0,0.0,0.0,0.0,0.0,0.0,0.0,0.0,0.0,0.0,0.0,0.0,0.0,0.0,0.0,0.0,0.0,0.0,0.0,0.0,0.0,0.0,0.0,0.0,0.0,0.0,0.0,0.0,0.0,0.0,0.0,0.0,0.0,0.0,0.0,0.0,0.0,0.0,0.0,0.0,0.0,0.0,0.0,0.0,0.0,0.0,0.0,0.0,0.0,0.0,0.0,0.0,0.0,0.0,0.0,0.0,0.0,0.0,0.0,0.0,0.0,0.0,0.0,0.0,0.0,0.0,0.0,0.0,0.0,0.0,0.0,0.0,0.0,0.0,0.0,0.0,0.0,0.0,0.0,0.0,0.0,0.0,0.0,0.0,0.0,0.0,0.0,0.0,0.0,0.0,0.0,0.0,0.0,0.0,0.0,0.0,0.0,0.0,0.0,0.0,0.0,0.0,0.0,0.0,0.0,0.0,0.0,0.0,0.0,0.0,0.0,0.0,0.0,0.0,0.0,0.0,0.0,0.0,0.0,0.0,0.0,0.0,0.0,0.0,0.0,0.0,0.0,0.0,0.0,0.0,0.0,0.0,0.0,0.0,0.0,0.0,0.0,0.0,0.0,0.0,0.0,0.0,0.0,0.0,0.0,0.0,0.0,0.0,0.0,0.0,0.0,0.0,0.0,0.0,0.0,0.0,0.0,0.0,0.0,0.0,0.0,0.0,0.0,0.0,0.0,0.0,0.0,0.0,0.0,0.0,0.0,0.0,0.0,0.0,0.0,0.0,0.0,0.0,0.0,0.0,0.0,0.0,0.0,0.0,0.0,0.0,0.0,0.0,0.0,0.0,0.0,0.0,0.0,0.0,0.0,0.0,0.0,0.0,0.0,0.0,0.0,0.0,0.0,0.0,0.0,0.0,0.0,0.0,0.0,0.0,0.0,0.0,0.0,0.0,0.0,0.0,0.0,0.0,0.0,0.0,0.0,0.0,0.0,0.0,0.0,0.0,0.0,0.0,0.0,0.0,0.0,0.0,0.0,0.0,0.0,0.0,0.0,0.0,0.0,0.0,0.0,0.0,0.0,0.0,0.0,0.0,0.0,0.0,0.0,0.0,0.0,0.0,0.0,0.0,0.0,0.0,0.0,0.0,0.0,0.0,0.0,0.0,0.0,0.0,0.0,0.0,0.0,0.0,0.0,0.0,0.0,0.0,0.0,0.0,0.0,0.0,0.0,0.0,0.0,0.0,0.0,0.0,0.0,0.0,0.0,0.0,0.0,0.0,0.0,0.0,0.0,0.0,0.0,0.0,0.0,0.0,0.0,0.0,0.0,0.0,0.0,0.0,0.0,0.0,0.0,0.0,0.0,0.0,0.0,0.0,0.0,0.0,0.0,0.0,0.0,0.0,0.0,0.0,0.0,0.0,0.0,0.0,0.0,0.0,0.0,0.0,0.0,0.0,0.0,0.0,0.0,0.0,0.0,0.0,0.0,0.0,0.0,0.0,0.0,0.0,0.0,0.0,0.0,0.0,0.0,0.0,0.0,0.0,0.0,0.0,0.0,0.0,0.0,0.0,0.0,0.0,0.0,0.0,0.0,0.0,0.0,0.0,0.0,0.0,0.0,0.0,0.0,0.0,0.0,0.0,0.0,0.0,0.0,0.0,0.0,0.0,0.0,0.0,0.0,0.0,0.0,0.0,0.0,0.0,0.0,0.0,0.0,0.0,0.0,0.0,0.0,0.0,0.0,0.0,0.0,0.0,0.0,0.0,0.0,0.0,0.0,0.0,0.0,0.0,0.0,0.0,0.0,0.0,0.0,0.0,0.0,0.0,0.0,0.0,0.0,0.0,0.0,0.0,0.0,0.0,0.0,0.0,0.0,0.0,0.0,0.0,0.0,0.0,0.0,0.0,0.0,0.0,0.0,0.0,0.0,0.0,0.0,0.0,0.0,0.0,0.0,0.0,0.0,0.0,0.0,0.0,0.0,0.0,0.0,0.0,0.0,0.0,0.0,0.0,0.0,0.0,0.0,0.0,0.0,0.0,0.0,0.0,0.0,0.0,0.0,0.0,0.0,0.0,0.0,0.0,0.0,0.0,0.0,0.0,0.0,0.0,0.0,0.0,0.0,0.0,0.0,0.0,0.0,0.0,0.0,0.0,0.0,0.0,0.0,0.0,0.0,0.0,0.0,0.0,0.0,0.0,0.0,0.0,0.0,0.0,0.0,0.0,0.0,0.0,0.0,0.0,0.0,0.0,0.0,0.0,0.0,0.0,0.0,0.0,0.0,0.0,0.0,0.0,0.0,0.0,0.0,0.0,0.0,0.0,0.0,0.0,0.0,0.0,0.0,0.0,0.0,0.0,0.0,0.0,0.0,0.0,0.0,0.0,0.0,0.0,0.0,0.0,0.0,0.0,0.0,0.0,0.0,0.0,0.0,0.0,0.0,0.0,0.0,0.0,0.0,0.1509,0.1204,0.0,0.0,0.0,0.0,0.0,0.0,0.0,0.0,0.0,0.0,0.0,0.0,0.0,0.0,0.0,0.0,0.0,0.0,0.0,0.0,0.0,0.0,0.0,0.0,0.0,0.0,0.0,0.0,0.0,0.0,0.0,0.0,0.0,0.0,0.0,0.0,-0.5488,-0.5443,-0.5573,-0.592,-0.6487,-0.6681,-0.7011,-0.7415,0.0,0.0,0.0,0.0,0.0,0.0,0.0,0.0,0.0,0.0,0.0,0.0,0.0,0.0,0.0,0.0,0.0,0.0,0.0,0.0,0.0,0.0,0.0,0.0,0.0,0.0,0.0,0.0,0.0,0.0,0.0,0.0,0.0,0.0,0.0,0.0,0.0,0.0,0.0,0.0,0.0,0.0,0.0,0.0,0.0,0.0,0.0,0.0,0.0,0.0,0.0,0.0,0.0,0.0,0.0,0.0,0.0,0.0,0.0,0.0,0.0,0.0,0.0,0.0,0.0,0.0,0.0,0.0,0.0,0.0,0.1999,0.1752,0.0,0.0,0.0,0.0,0.0,0.0,0.0,0.0,0.0,0.0,0.0,0.0,0.0,0.0,0.0,0.0,0.0,0.0,0.0,0.0,0.0,0.0,0.0,-0.9688,-0.8631,-0.7926,-0.7309,-0.6834,0.0,0.0,0.0,0.0,0.0,0.0,-0.5996,-0.5722,-0.5614,-0.5611,-0.5949,-0.6228,-0.6567,-0.6835,-0.7237,-0.7694,-0.7573,0.0,0.0,0.0,0.0,0.0,0.0,0.0,0.0,0.0,0.0,0.0,0.0,0.0,0.0,0.0,0.0,0.0,0.0,0.0,0.0,0.0,0.0,0.0,0.0,0.0,0.0,0.0,0.0,0.0,0.0,0.0,0.0,0.0,0.0,0.0,0.0,0.0,0.0,0.0,0.0,0.0,0.0,0.0,0.0,0.0,0.0,0.0,0.0,0.0,0.0,0.0,0.0,0.0,0.0,0.0,0.0,0.0,0.0,0.0,0.0,0.0,0.0,0.0,0.1804,0.2126,0.2455,0.248,0.2519,0.256,0.2433,0.2417,0.2472,0.2096,0.0,0.0,0.0,0.0,0.0,0.0,0.0,0.0,0.0,0.0,0.0,0.0,0.0,0.0,0.0,0.0,0.0,0.0,0.0,-1.1414,-1.0915,-0.98,-0.878,-0.8061,-0.7433,-0.6915,-0.6637,0.0,0.0,0.0,0.0,-0.6098,-0.6098,-0.5756,-0.5793,-0.6217,-0.6836,-0.7275,-0.7379,-0.7464,-0.7564,-0.7603,-0.7541,-0.7619,-0.7823,0.0,0.0,0.0,0.0,0.0,0.0,0.0,0.0,0.0,0.0,0.0,0.0,0.0,0.0,0.0,0.0,0.0,0.0,0.0,0.0,0.0,0.0,0.0,0.0,0.0,0.0,0.0,0.0,0.0,0.0,0.0,0.0,0.0,0.0,0.0,0.0,0.0,0.0,0.0,0.0,0.0,-0.431,-0.4634,0.0,0.0,0.0,0.0,0.0,0.0,0.0,0.0,0.0,0.0,0.0,0.0,0.0,-0.1474,-0.0721,0.0481,0.1363,0.1926,0.233,0.2493,0.2578,0.2582,0.2589,0.2594,0.2575,0.0,0.2507,0.2417,0.0,0.0,0.0,0.0,0.0,0.0,0.0,0.0,0.0,0.0,0.0,0.0,0.0,0.0,0.0,0.0,0.0,0.0,0.0,0.0,0.0,-0.9925,-0.9144,-0.8594,-0.8061,-0.7675,-0.749,-0.749,0.0,0.0,-0.6936,-0.6729,-0.6788,-0.6543,-0.6518,-0.6664,-0.7092,-0.7193,-0.7022,-0.7061,-0.7212,-0.7415,-0.7432,-0.7658,-0.7943,-0.7817,0.0,0.0,0.0,0.0,0.0,0.0,0.0,0.0,0.0,0.0,0.0,0.0,0.0,0.0,0.0,0.0,0.0,0.0,0.0,0.0,0.0,0.0,0.0,0.0,0.0,0.0,0.0,0.0,0.0,0.0,0.0,0.0,0.0,0.0,0.0,0.0,0.0,0.0,0.0,-0.412,-0.4331,-0.4455,-0.4353,-0.4336,0.0,0.0,0.0,0.0,0.0,0.0,0.0,0.0,0.0,-0.3346,-0.1881,-0.0716,0.0163,0.1139,0.1871,0.236,0.2554,0.2653,0.2654,0.2688,0.2703,0.2703,0.2703,0.2669,0.2611,0.256,0.2517,0.2478,0.0,0.0,0.0,0.0,0.2097,0.2036,0.0,0.0,0.0,0.0,0.0,0.0,0.0,0.0,0.0,0.0,0.0,0.0,-1.0824,-1.0032,-0.9461,-0.9064,-0.8595,-0.8312,-0.8285,-0.8171,-0.8046,-0.7982,-0.7498,-0.7261,-0.7321,-0.7319,-0.7269,-0.7157,-0.7351,-0.7248,-0.6902,-0.6782,-0.6935,-0.7217,-0.7287,-0.7594,-0.8065,-0.7969,-0.8011,-0.8223,0.0,0.0,0.0,0.0,0.0,0.0,0.0,0.0,0.0,0.0,0.0,0.0,0.0,0.0,0.0,0.0,0.0,0.0,0.0,0.0,0.0,0.0,0.0,0.0,0.0,0.0,0.0,0.0,0.0,0.0,0.0,0.0,0.0,0.0,0.0,0.0,0.0,-0.4248,-0.4341,-0.4311,-0.4349,-0.4346,0.0,0.0,0.0,0.0,0.0,0.0,-0.4715,-0.4013,-0.329,-0.2784,-0.1124,0.0081,0.0821,0.1724,0.2301,0.2637,0.2683,0.2707,0.2717,0.2762,0.2784,0.2784,0.2784,0.2758,0.2709,0.2627,0.2581,0.2559,0.2542,0.2532,0.2529,0.2551,0.2574,0.26,0.0,0.0,0.0,0.0,0.0,0.0,0.0,0.0,0.0,0.0,0.0,-1.1411,-1.088,-1.0071,-0.9453,-0.9143,-0.8767,-0.8524,-0.8416,-0.8296,-0.8171,-0.8114,-0.7624,-0.7378,-0.7378,-0.7699,-0.7781,-0.7664,-0.7874,-0.7771,-0.7353,-0.7081,-0.6974,-0.705,-0.7055,-0.7522,-0.8382,-0.8372,-0.8439,-0.853,-0.8234,0.0,0.0,0.0,0.0,0.0,0.0,0.0,0.0,0.0,0.0,0.0,0.0,0.0,0.0,0.0,0.0,0.0,0.0,0.0,0.0,0.0,0.0,0.0,0.0,0.0,0.0,0.0,0.0,0.0,0.0,0.0,0.0,0.0,0.0,0.0,0.0,0.0,0.0,-0.4548,-0.4559,0.0,0.0,0.0,0.0,-0.4891,-0.4791,-0.4709,-0.4519,-0.3607,-0.274,-0.1979,-0.0248,0.083,0.126,0.2183,0.2702,0.2731,0.2733,0.2751,0.2778,0.2782,0.2784,0.2784,0.2784,0.2781,0.2774,0.2712,0.2635,0.2562,0.2587,0.2581,0.2568,0.2653,0.2684,0.2694,0.0,0.0,0.0,-1.2559,-1.2559,-1.2531,-1.2401,-1.2673,-1.2702,-1.2209,-1.2243,-1.1926,-1.0866,-1.0357,-0.9844,-0.9354,-0.9032,-0.8889,-0.8701,-0.8649,-0.8459,-0.8182,-0.8001,-0.7986,-0.8199,-0.8485,-0.8431,-0.7879,-0.8088,-0.7869,-0.7157,-0.7046,-0.7135,-0.7353,-0.7413,-0.7879,-0.8607,-0.8252,-0.8413,-0.8796,-0.8513,-0.83,0.0,0.0,0.0,0.0,0.0,0.0,0.0,0.0,0.0,0.0,0.0,0.0,0.0,0.0,0.0,0.0,0.0,0.0,0.0,0.0,0.0,0.0,0.0,0.0,0.0,0.0,0.0,0.0,0.0,0.0,0.0,0.0,0.0,0.0,0.0,0.0,0.0,-0.463,-0.4668,0.0,-0.4665,-0.4752,-0.4842,-0.4929,-0.5022,-0.4873,-0.4545,-0.367,-0.2706,-0.1571,-0.0084,0.1101,0.1786,0.2483,0.2757,0.2767,0.2787,0.2801,0.2814,0.2833,0.2841,0.2841,0.2841,0.283,0.2811,0.2789,0.275,0.2705,0.2714,0.2713,0.2707,0.2739,0.2763,0.2784,0.0,-1.2382,0.0,-1.2382,-1.2382,-1.2382,-1.2382,-1.2627,-1.2671,-1.2281,-1.2256,-1.1924,-1.0869,-1.0443,-1.0064,-0.9471,-0.9237,-0.9139,-0.8949,-0.8861,-0.8628,-0.8312,-0.8296,-0.8448,-0.8764,-0.9008,-0.8836,-0.8367,-0.8509,-0.8173,-0.7521,-0.7521,-0.7668,-0.7888,-0.7956,-0.8317,-0.8836,-0.8469,-0.8642,-0.9046,-0.8807,-0.8568,-0.8334,0.0,0.0,0.0,0.0,0.0,0.0,0.0,0.0,0.0,0.0,0.0,0.0,0.0,0.0,0.0,0.0,0.0,0.0,0.0,0.0,0.0,0.0,0.0,0.0,0.0,0.0,0.0,0.0,0.0,0.0,0.0,0.0,0.0,0.0,-0.4608,-0.4768,-0.4768,-0.4749,-0.4785,-0.4785,-0.4894,-0.4989,-0.5052,-0.5166,-0.4995,-0.4356,-0.3562,-0.25,-0.1087,0.0255,0.1285,0.2064,0.26,0.2793,0.2814,0.2834,0.2855,0.2874,0.2894,0.2904,0.2904,0.2904,0.2891,0.2874,0.2874,0.2861,0.2841,0.2822,0.2814,0.2816,0.2836,0.2856,0.2874,-1.2491,-1.2382,-1.2382,-1.2382,-1.2391,-1.2391,-1.2391,-1.2358,-1.2361,-1.2407,-1.1979,-1.1421,-1.0887,-1.0449,-1.0019,-0.9538,-0.9372,-0.9258,-0.915,-0.891,-0.8677,-0.8443,-0.8437,-0.866,-0.9133,-0.9155,-0.9106,-0.9135,-0.9135,-0.891,-0.8535,-0.8535,-0.8535,-0.8535,-0.8539,-0.8765,-0.9135,-0.9135,-0.916,-0.9296,-0.8992,-0.889,-0.8847,0.0,0.0,0.0,0.0,0.0,0.0,0.0,0.0,0.0,0.0,0.0,0.0,0.0,0.0,0.0,0.0,0.0,0.0,0.0,0.0,0.0,0.0,0.0,0.0,0.0,0.0,0.0,0.0,0.0,0.0,0.0,0.0,0.0,-0.4816,-0.4796,-0.4835,-0.4837,-0.4818,-0.4823,-0.5011,-0.5027,-0.5104,-0.5281,-0.5294,-0.4904,-0.4034,-0.3197,-0.203,-0.0598,0.0684,0.1635,0.2088,0.2612,0.2816,0.2875,0.2876,0.2906,0.2961,0.2961,0.2961,0.2961,0.2961,0.2961,0.2961,0.2961,0.2961,0.2956,0.2898,0.2876,0.2883,0.2941,0.2961,0.2961,-1.2519,-1.2382,-1.2382,-1.2382,-1.2569,-1.2673,-1.2673,-1.2928,-1.3011,-1.2872,-1.2606,-1.2048,-1.1125,-1.0658,-1.0185,-0.9544,-0.9372,-0.9291,-0.9258,-0.9035,-0.8872,-0.8739,-0.8889,-0.9079,-0.9383,-0.9557,-0.9425,-0.9135,-0.9218,-0.899,-0.8535,-0.8535,-0.8685,-0.8915,-0.9071,-0.9218,-0.9521,-0.9602,-0.9629,-0.9557,-0.94,-0.9182,-0.8879,0.0,0.0,0.0,0.0,0.0,0.0,0.0,0.0,0.0,0.0,0.0,0.0,0.0,0.0,0.0,0.0,0.0,0.0,0.0,0.0,0.0,0.0,0.0,0.0,0.0,0.0,0.0,0.0,0.0,0.0,0.0,-0.6246,-0.5989,-0.4945,-0.4848,-0.4902,-0.4943,-0.5,-0.5052,-0.5085,-0.5166,-0.524,-0.5289,-0.5335,-0.4947,-0.4036,-0.3137,-0.1961,-0.0257,0.0869,0.1755,0.2639,0.2769,0.2887,0.2905,0.2927,0.2946,0.2961,0.2961,0.2961,0.2961,0.2961,0.2961,0.2961,0.2961,0.2961,0.296,0.2943,0.2938,0.2939,0.2956,0.2961,0.2965,-1.3007,-1.2756,-1.2701,-1.2701,-1.2805,-1.2946,-1.2946,-1.3058,-1.3154,-1.3084,-1.2741,-1.2193,-1.1497,-1.1096,-1.0596,-1.0145,-0.9815,-0.9574,-0.9524,-0.9155,-0.8949,-0.9171,-0.9242,-0.9394,-0.9628,-0.9769,-0.9676,-0.9508,-0.9571,-0.9418,-0.9127,-0.9127,-0.9279,-0.9508,-0.9577,-0.9648,-0.9824,-1.0037,-0.9998,-0.9737,-0.9885,-0.9628,-0.9253,-0.9275,-0.9237,-0.916,-0.9035,-0.9008,-0.8895,-0.8562,0.0,0.0,0.0,0.0,0.0,0.0,0.0,0.0,0.0,0.0,0.0,0.0,0.0,0.0,0.0,0.0,0.0,0.0,0.0,0.0,0.0,0.0,0.0,0.0,-0.6597,-0.6336,-0.5299,-0.5206,-0.5179,-0.5055,-0.5112,-0.5161,-0.5185,-0.5275,-0.5343,-0.5368,-0.5256,-0.4777,-0.3837,-0.2917,-0.1554,0.026,0.1053,0.1864,0.2864,0.2898,0.2928,0.2954,0.2972,0.2987,0.2999,0.2999,0.2999,0.2999,0.2999,0.2999,0.2999,0.2999,0.2999,0.2998,0.0,0.0,0.0,0.0,0.2999,0.3002,-1.3593,-1.3298,-1.3127,-1.3127,-1.3146,-1.3107,-1.3107,-1.3054,-1.3057,-1.3241,-1.2702,-1.2172,-1.1994,-1.1502,-1.1142,-1.0927,-1.0429,-1.0073,-0.9885,-0.9329,-0.9166,-0.9514,-0.9541,-0.9661,-0.9894,-0.99,-0.9943,-1.0041,-1.0057,-1.0052,-1.0041,-1.0041,-1.0041,-1.0041,-1.0025,-1.0019,-1.0097,-1.0486,-1.0352,-1.0031,-1.0414,-1.0176,-0.9661,-0.9563,-0.9525,-0.9514,-0.9405,-0.9302,-0.9193,-0.8971,0.0,0.0,0.0,0.0,0.0,0.0,0.0,0.0,0.0,0.0,0.0,0.0,0.0,0.0,0.0,0.0,0.0,0.0,0.0,0.0,0.0,0.0,0.0,0.0,-0.6766,-0.66,-0.589,-0.5808,-0.5608,-0.5194,-0.5172,-0.5237,-0.5297,-0.536,-0.542,-0.548,-0.5102,-0.4433,-0.3563,-0.2611,0.0,0.0,0.0,0.1879,0.2916,0.2923,0.2953,0.3006,0.301,0.3026,0.3148,0.3148,0.3054,0.3058,0.3058,0.3059,0.3062,0.3062,0.3062,0.3059,0.3029,0.3017,0.3021,0.3051,0.3061,0.3058,-1.3709,-1.3469,-1.3355,-1.3127,-1.3211,-1.3325,-1.3325,-1.3436,-1.3554,-1.3682,-1.3054,-1.2487,-1.2208,-1.1476,-1.104,-1.0921,-1.0639,-1.0263,-0.9951,-0.9568,-0.9497,-0.9758,-0.9862,-1.003,-1.0275,-1.028,-1.0242,-1.0166,-1.0264,-1.0264,-1.0166,-1.0166,-1.0166,-1.0166,-1.0063,-1.0175,-1.0486,-1.0563,-1.0843,-1.1155,-1.0841,-1.0329,-0.9677,-0.9742,-0.9769,-0.9764,-0.9742,-0.972,-0.9655,-0.934,-0.922,-0.9144,-0.8807,-0.8671,0.0,0.0,0.0,0.0,0.0,0.0,0.0,0.0,0.0,0.0,0.0,0.0,0.0,0.0,0.0,0.0,0.0,0.0,0.0,-0.7152,-0.737,-0.722,-0.6363,-0.6321,-0.6116,-0.5203,-0.521,-0.53,-0.536,-0.5422,-0.5482,-0.554,-0.5123,-0.4433,-0.3563,-0.263,-0.1234,0.0707,0.1258,0.1907,0.2916,0.2964,0.2995,0.3007,0.3032,0.0,0.3148,0.3148,0.3066,0.3089,0.3089,0.3103,0.3126,0.3126,0.3126,0.3122,0.3092,0.308,0.3084,0.3114,0.311,0.3092,-1.4473,-1.4199,-1.3966,-1.3674,-1.3702,-1.372,-1.3601,-1.3627,-1.3667,-1.3587,-1.2961,-1.2433,-1.2128,-1.1557,-1.1207,-1.1134,-1.0932,-1.0624,-1.0262,-1.0025,-0.9983,-1.0224,-1.0125,-1.0172,-1.0291,-1.0356,-1.0356,-1.0297,-1.0297,-1.0264,-1.0204,-1.0139,-1.019,-1.042,-1.0358,-1.0563,-1.0952,-1.1184,-1.1341,-1.147,-1.147,-1.1155,-1.0653,-1.018,-1.0019,-1.0014,-0.9949,-0.997,-0.9976,-0.9671,-0.9612,-0.9612,-0.9313,-0.9133,-0.8992,0.0,0.0,0.0,0.0,0.0,0.0,0.0,0.0,0.0,0.0,0.0,0.0,0.0,0.0,-0.7585,-0.7127,0.0,-0.7276,-0.7321,-0.7517,-0.7505,-0.6789,-0.6841,-0.6502,-0.5372,-0.5311,-0.5395,-0.5428,-0.551,-0.5575,-0.569,-0.4932,-0.4152,-0.3267,-0.2321,-0.0898,0.1077,0.1368,0.1934,0.2961,0.2991,0.3014,0.3029,0.3044,0.2965,0.269,0.2978,0.2995,0.2729,0.3023,0.3129,0.3142,0.3142,0.3142,0.3044,0.2848,0.2937,0.3122,0.3137,0.2937,0.2732,-1.5235,-1.5007,-1.4709,-1.4351,-1.4291,-1.4172,-1.3933,-1.3813,-1.3714,-1.3439,-1.28,-1.2256,-1.2015,-1.153,-1.1274,-1.1301,-1.1161,-1.0976,-1.0724,-1.0467,-1.0439,-1.067,-1.0386,-1.0226,-1.0269,-1.0367,-1.0411,-1.0384,-1.0307,-1.0248,-1.0199,-1.0179,-1.0364,-1.0676,-1.073,-1.1029,-1.1417,-1.1727,-1.1823,-1.1823,-1.2061,-1.2004,-1.1813,-1.0879,-1.0481,-1.0425,-1.0325,-1.0353,-1.0408,-1.0208,-1.0225,-1.028,-0.9965,-0.975,-0.9467,-0.9133,-0.8986,0.0,0.0,0.0,0.0,0.0,0.0,0.0,0.0,-0.9258,-0.9122,-0.8401,-0.8217,-0.7975,-0.7389,-0.7343,-0.7362,-0.7431,-0.7595,-0.7561,-0.7179,-0.7226,-0.6908,-0.576,-0.5592,-0.5568,-0.5507,-0.5594,-0.5742,-0.5668,-0.4822,-0.3861,-0.2969,-0.1906,-0.0548,0.1281,0.1386,0.1771,0.2724,0.273,0.2747,0.2774,0.2774,0.2596,0.2135,0.2717,0.2732,0.2363,0.2861,0.316,0.316,0.316,0.316,0.3064,0.2589,0.2585,0.2963,0.2864,0.2564,0.2167,-1.5542,-1.5542,-1.5304,-1.465,-1.453,-1.453,-1.453,-1.4291,-1.4026,-1.368,-1.2817,-1.2146,-1.1835,-1.1171,-1.0853,-1.0921,-1.1064,-1.1151,-1.1171,-1.0778,-1.0664,-1.0809,-1.0431,-1.0302,-1.0514,-1.053,-1.0487,-1.0384,-1.0476,-1.0411,-1.0204,-1.0583,-1.0735,-1.0809,-1.1083,-1.1417,-1.1805,-1.1882,-1.2279,-1.2775,-1.2455,-1.2368,-1.2503,-1.1955,-1.1591,-1.1385,-1.1373,-1.1379,-1.1385,-1.1354,-1.1433,-1.142,-1.0759,-1.0583,-1.0409,-0.9678,-0.9416,-0.9405,-0.9389,-0.9394,-0.941,-0.9421,-0.9356,-0.9285,0.0,-0.9378,-0.9318,-0.8882,-0.8665,-0.8421,-0.7973,-0.7738,-0.7619,-0.7631,-0.7787,-0.7765,-0.7425,-0.7432,-0.7348,-0.6901,-0.6353,-0.5945,-0.5709,-0.5731,-0.5673,-0.5728,-0.4843,-0.3874,-0.2909,-0.1913,-0.0733,0.0739,0.084,0.1127,0.1691,0.1706,0.1626,0.1642,0.1642,0.1651,0.1569,0.2157,0.2365,0.2388,0.2908,0.322,0.322,0.322,0.322,0.3121,0.2621,0.2419,0.2417,0.1914,0.1703,0.1693,-1.6011,-1.5903,-1.5789,-1.5624,-1.5183,-1.4828,-1.465,-1.4351,-1.399,-1.3493,-1.2634,-1.1885,-1.14,-1.0798,-1.0521,-1.067,-1.1087,-1.1325,-1.1411,-1.1372,-1.1364,-1.142,-1.087,-1.0566,-1.0747,-1.0583,-1.0433,-1.0384,-1.0362,-1.0462,-1.0515,-1.0678,-1.0957,-1.1426,-1.1597,-1.1882,-1.2269,-1.2269,-1.2474,-1.2834,-1.2762,-1.2842,-1.2939,-1.2801,-1.2684,-1.2388,-1.1669,-1.1396,0.0,-1.1372,-1.1439,-1.1451,-1.1264,-1.0939,-1.0583,-1.0127,-0.9819,-0.9595,-0.9595,-0.9595,-0.9595,-0.9595,-0.9601,-0.9612,-0.9612,-0.9709,-0.9666,-0.9351,-0.9056,-0.8664,-0.833,-0.8012,-0.7742,-0.7742,-0.7852,-0.7884,-0.7801,-0.7888,-0.7824,-0.752,-0.7244,-0.6902,-0.6526,-0.6605,-0.6485,-0.6152,-0.5371,-0.4302,-0.3034,-0.2034,-0.0744,0.0747,0.0754,0.1042,0.1516,0.1531,0.1542,0.1451,0.146,0.1373,0.1089,0.1683,0.209,0.2411,0.2622,0.2928,0.3129,0.2827,0.2727,0.2626,0.1818,0.1515,0.1515,0.1616,0.1411,0.1105,-1.6312,-1.6172,-1.6108,-1.628,-1.5838,-1.5343,-1.5051,-1.4681,-1.418,-1.3453,-1.2543,-1.1648,-1.0787,-1.0371,-1.0276,-1.0419,-1.0982,-1.1409,-1.1606,-1.1759,-1.1843,-1.1882,-1.1119,-1.0797,-1.0832,-1.0531,-1.0415,-1.0495,-1.0407,-1.0583,-1.0937,-1.0915,-1.134,-1.1882,-1.2037,-1.2192,-1.2501,-1.2501,-1.2589,-1.2745,-1.2901,-1.3044,-1.3193,-1.3342,-1.3281,-1.2983,-1.2069,-1.1698,-1.1754,-1.1656,-1.161,-1.1717,-1.1607,-1.1293,-1.0863,-1.0451,-1.0044,-0.9758,-0.9726,-0.9742,-0.9764,-0.9764,-0.9829,-0.9894,-0.9932,-1.0008,-1.0028,-0.9834,-0.9457,-0.9082,-0.8751,-0.8302,-0.7998,-0.7836,-0.7934,-0.804,-0.8125,-0.8215,-0.8243,-0.8044,-0.7995,-0.7917,-0.7566,-0.7401,-0.7114,-0.6583,-0.571,-0.4539,-0.3066,-0.2058,-0.0847,0.0567,0.057,0.0764,0.1053,0.1061,0.1067,0.1073,0.1081,0.0892,0.06,0.11,0.1707,0.2222,0.2222,0.2424,0.2726,0.2323,0.2222,0.2121,0.1111,0.0808,0.0808,0.1111,0.0909,0.0606,-1.6312,-1.6312,-1.6301,-1.6312,-1.6301,-1.6215,-1.5978,-1.5389,-1.465,-1.3772,-1.2603,-1.1277,-1.0011,-0.9964,-1.012,-1.0276,-1.0826,-1.1301,-1.1599,-1.1674,-1.1747,-1.1876,-1.1029,-1.0705,-1.0832,-1.0442,-1.0368,-1.0758,-1.0758,-1.0925,-1.1268,-1.165,-1.1882,-1.1882,-1.2347,-1.2501,-1.2501,-1.2501,-1.2589,-1.2745,-1.2901,-1.3044,-1.3193,-1.3342,-1.322,-1.2949,-1.27,-1.2646,-1.2606,-1.2393,-1.2393,-1.2404,-1.1887,-1.1689,-1.153,-1.0685,-1.0229,-0.9981,-0.9862,-0.9921,-1.0008,-1.0008,-1.0014,-1.0047,-1.0166,-1.0193,-1.0231,-1.0356,-1.0051,-0.9648,-0.9169,-0.8766,-0.8423,-0.7929,-0.8076,-0.8223,-0.8313,-0.8407,-0.8497,-0.8591,-0.8677,-0.8635,-0.8635,-0.7827,-0.7134,-0.6743,-0.5734,-0.4554,-0.3097,-0.2067,-0.1038,0.0,0.0,0.0,0.0,0.0,0.0,0.0,0.0,0.0,0.0,0.0606,0.1111,0.1616,0.1616,0.1616,0.1616,0.1616,0.1616,0.1616,0.101,0.0808,0.0707,0.0202,0.0,0.0,-1.6775,-1.6646,-1.6592,-1.6743,-1.6646,-1.6454,-1.6107,-1.5597,-1.4868,-1.4032,-1.2359,0.0,0.0,0.0,0.0,0.0,-1.0792,-1.1104,-1.1301,-1.1757,-1.2012,-1.2059,-1.1709,-1.1476,-1.1439,-1.0969,-1.0774,-1.0838,-1.0928,-1.1183,-1.16,-1.176,-1.2037,-1.2269,-1.2424,-1.2501,-1.2501,-1.2501,-1.2589,-1.2745,-1.2901,-1.3044,-1.3166,-1.3125,-1.3051,-1.2901,0.0,-1.2223,-1.2135,-1.2135,-1.2101,-1.2006,-1.2092,-1.1845,-1.1465,-1.0932,-1.0726,-1.0679,-1.0797,-1.0839,-1.0874,-1.0874,-1.0939,-1.0937,-1.0668,-1.0662,-1.0678,-1.0557,-1.0114,-0.9597,-0.926,-0.8893,-0.8445,-0.8094,-0.8121,-0.8252,-0.8403,-0.8452,-0.8526,-0.8673,-0.8717,-0.8783,-0.8901,-0.864,-0.8095,-0.728,-0.6295,-0.5008,-0.3129,-0.2087,-0.1048,0.0,0.0,0.0,0.0,0.0,0.0,0.0,0.0,0.0,0.0,0.0202,0.0606,0.1111,0.1111,0.1313,0.1616,0.1212,0.1111,0.101,0.0505,0.0303,0.0202,0.0101,0.0,0.0,0.0,0.0,0.0,0.0,0.0,0.0,0.0,0.0,0.0,0.0,0.0,0.0,0.0,0.0,0.0,0.0,0.0,-1.1009,-1.122,-1.1579,-1.1843,-1.1898,-1.1713,-1.154,-1.1457,-1.1002,-1.081,-1.0872,-1.1008,-1.1296,-1.1753,-1.195,-1.2196,-1.2427,-1.2481,-1.2501,-1.2501,-1.2656,-1.2683,-1.2589,-1.2896,-1.2979,-1.2854,-1.2813,-1.2732,0.0,-1.2278,-1.1891,-1.1694,-1.185,-1.187,-1.1864,-1.2067,-1.1835,-1.1521,-1.112,-1.1107,-1.1146,-1.1183,-1.1225,-1.1274,-1.1323,-1.1403,-1.1415,-1.1027,-1.1034,-1.0964,-1.0678,-1.0285,-0.9901,-0.9563,-0.9163,-0.8705,-0.8382,-0.8251,-0.8301,-0.8452,-0.8526,-0.8607,-0.8722,-0.8791,-0.8877,-0.8995,-0.8848,-0.8394,-0.7642,-0.6645,-0.5239,-0.3239,-0.2104,-0.1057,0.0,0.0,0.0,0.0,0.0,0.0,0.0,0.0,0.0,0.0,0.0,0.0202,0.0505,0.0505,0.0707,0.101,0.0606,0.0506,0.0507,0.0101,0.0,0.0,0.0,0.0,0.0,0.0,0.0,0.0,0.0,0.0,0.0,0.0,0.0,0.0,0.0,0.0,0.0,0.0,0.0,0.0,0.0,0.0,0.0,-1.1131,-1.1294,-1.1443,-1.1592,-1.1253,-1.1038,-1.1031,-1.0671,-1.0599,-1.1018,-1.1154,-1.1371,-1.183,-1.2128,-1.2271,-1.2284,-1.242,-1.2481,-1.2558,-1.2944,-1.279,-1.2381,-1.2902,-1.2797,-1.2394,-1.251,-1.2381,-1.2135,-1.2121,-1.1835,-1.1423,-1.1572,-1.1714,-1.183,-1.1837,-1.1749,-1.1694,-1.1421,-1.1327,-1.1303,-1.1192,-1.1253,-1.1383,-1.1512,-1.1555,-1.1555,-1.1318,-1.1295,-1.1171,-1.0798,-1.0634,-1.0465,-0.9973,-0.9477,-0.9099,-0.8711,-0.8467,-0.8362,-0.8464,-0.8628,-0.8738,-0.8746,-0.8901,-0.9007,-0.9016,-0.8617,-0.8189,-0.7619,-0.6669,-0.5239,-0.3239,-0.2117,-0.1064,0.0,0.0,0.0,0.0,0.0,0.0,0.0,0.0,0.0,0.0,0.0,0.0,0.0,0.0,0.0,0.0,0.0,0.0,0.0,0.0,0.0,0.0,0.0,0.0,0.0,0.0,0.0,0.0,0.0,0.0,0.0,0.0,0.0,0.0,0.0,0.0,0.0,0.0,0.0,0.0,0.0,0.0,0.0,-1.0833,-1.1077,-1.124,-1.1274,-1.1426,-1.1422,-1.1308,-1.1166,-1.1184,-1.1141,-1.1288,-1.1415,-1.1681,-1.1864,-1.2013,-1.2196,-1.2456,-1.2545,-1.2627,-1.3003,-1.3122,-1.3112,-1.3308,-1.3297,-1.3348,-1.3076,-1.2953,-1.2851,-1.232,-1.2093,-1.193,-1.1678,-1.1714,-1.185,-1.1965,-1.1986,-1.1978,-1.2012,-1.203,-1.2053,-1.2119,-1.2245,-1.2364,-1.2403,-1.2575,-1.2673,-1.2257,-1.2023,-1.1777,-1.1314,-1.082,-1.0346,-0.9936,-0.9386,-0.8917,-0.8683,-0.837,-0.8313,-0.8542,-0.8664,-0.8783,-0.8922,-0.8979,-0.9036,-0.9101,-0.894,-0.8573,-0.7619,-0.6288,-0.4766,-0.3143,-0.2117,-0.1068,0.0,0.0,0.0,0.0,0.0,0.0,0.0,0.0,0.0,0.0,0.0,0.0,0.0,0.0,0.0,0.0,0.0,0.0,0.0,0.0,0.0,0.0,0.0,0.0,0.0,0.0,0.0,0.0,0.0,0.0,0.0,0.0,0.0,0.0,0.0,0.0,0.0,0.0,0.0,0.0,0.0,0.0,0.0,0.0,-1.0873,-1.0968,-1.0968,-1.1131,-1.1185,-1.1097,-1.1097,-1.1056,-1.0968,-1.1124,-1.124,-1.1335,-1.1749,-1.2074,-1.2164,-1.2667,-1.288,-1.288,-1.3252,-1.3303,0.0,0.0,-1.3265,-1.3185,-1.2926,-1.2976,-1.3014,-1.2611,-1.2474,-1.2424,-1.2133,-1.201,-1.1959,-1.2115,-1.2203,-1.2271,-1.2359,-1.2433,-1.2515,-1.2664,-1.2766,-1.2847,-1.2908,-1.3051,-1.3091,-1.2595,-1.225,-1.1882,-1.1329,-1.0756,-1.0222,-0.9982,-0.9572,-0.9235,-0.9201,-0.8853,-0.866,-0.899,-0.8866,-0.8893,-0.8995,-0.9044,-0.9085,-0.9138,-0.8668,-0.8094,-0.7334,-0.6288,-0.487,-0.3163,-0.2131,-0.1076,0.0,0.0,0.0,0.0,0.0,0.0,0.0,0.0,0.0,0.0,0.0,0.0,0.0,0.0,0.0,0.0,0.0,0.0,0.0,0.0,0.0,0.0,0.0,0.0,0.0,0.0,0.0,0.0,0.0,0.0,0.0,0.0,0.0,0.0,0.0,-1.138,-1.1049,-1.0784,-1.0784,0.0,0.0,0.0,0.0,0.0,0.0,-1.0717,-1.0717,-1.0704,-1.069,-1.069,-1.069,-1.069,-1.069,-1.0846,-1.0873,-1.0989,-1.1727,-1.2151,-1.2266,-1.289,-1.3155,-1.3222,-1.3486,-1.3251,-1.2821,-1.3037,-1.292,-1.2655,0.0,-1.276,-1.2968,-1.2896,-1.2824,-1.2805,-1.2698,-1.2433,-1.2169,-1.2284,-1.2433,-1.2535,-1.2556,-1.2657,-1.2793,-1.2922,-1.2976,-1.3017,-1.3146,-1.3186,-1.3118,-1.2684,-1.2194,-1.1749,-1.1212,-1.0605,-1.0204,-1.0204,-0.9902,-0.9805,-0.9911,-0.955,-0.922,-0.9419,-0.9245,-0.9097,-0.904,-0.9114,-0.9163,-0.9163,-0.8303,-0.7534,-0.6951,-0.6294,-0.5078,-0.3093,-0.1953,-0.0987,0.0,0.0,0.0,0.0,0.0,0.0,0.0,0.0,0.0,0.0,0.0,0.0,0.0,0.0,0.0,0.0,0.0,0.0,0.0,0.0,0.0,0.0,0.0,0.0,0.0,0.0,0.0,0.0,0.0,0.0,0.0,0.0,0.0,0.0,0.0,-1.1181,-1.085,0.0,0.0,0.0,0.0,0.0,0.0,0.0,0.0,0.0,-1.0717,-1.0602,-1.0534,-1.0534,-1.0534,-1.0534,-1.0534,-1.0683,-1.0887,-1.1124,-1.1621,-1.1938,-1.2259,-1.2828,-1.3145,-1.313,-1.3308,-1.3351,-1.325,-1.3364,-1.3367,-1.3434,-1.3434,0.0,0.0,-1.3325,-1.3039,-1.2805,-1.2993,-1.2806,-1.2503,-1.2606,-1.2671,-1.2718,-1.2847,-1.2901,-1.2929,-1.2956,-1.3051,-1.3146,-1.3166,-1.3268,-1.3329,-1.3118,-1.2439,-1.183,-1.1621,-1.0844,-1.0204,-1.0204,-0.9977,-0.9749,-0.9789,-0.9736,-0.9642,-0.9406,-0.9421,-0.9445,-0.9303,-0.9248,-0.9256,-0.9256,-0.8676,-0.7971,-0.6954,-0.5663,-0.4152,-0.2516,-0.1465,-0.0594,0.0,0.0,0.0,0.0,0.0,0.0,0.0,0.0,0.0,0.0,0.0,0.0,0.0,0.0,0.0,0.0,0.0,0.0,0.0,0.0,0.0,0.0,0.0,0.0,0.0,0.0,0.0,0.0,0.0,0.0,0.0,0.0,-1.3227,-1.2211,-1.197,-1.1171,-1.085,-1.1181,-1.1049,-1.0982,0.0,0.0,0.0,0.0,0.0,0.0,-1.0916,-1.0715,-1.0609,-1.0609,-1.0609,-1.0609,-1.0609,0.0,-1.0833,-1.105,-1.1674,-1.2124,-1.2421,-1.3044,-1.3364,-1.3348,-1.3275,-1.3222,-1.3222,-1.3133,-1.3254,-1.3498,-1.3498,0.0,0.0,-1.3682,-1.3539,-1.3364,-1.3409,-1.3273,-1.3133,-1.3161,-1.3134,-1.3075,-1.3228,-1.3251,-1.3085,-1.3166,-1.3241,-1.3295,-1.3295,-1.3349,-1.3342,-1.3112,-1.2411,-1.1708,-1.15,-1.078,-1.0106,-1.0106,-1.0147,-1.0227,-1.0151,-1.0248,-1.02,-1.0182,-1.0109,-0.996,-0.9732,-0.9666,-0.9587,-0.9342,-0.8625,-0.7732,-0.6674,-0.4836,-0.3394,-0.234,-0.1087,-0.03,0.0,0.0,0.0,0.0,0.0,0.0,0.0,0.0,0.0,0.0,0.0,0.0,0.0,0.0,0.0,0.0,0.0,0.0,0.0,0.0,0.0,0.0,0.0,0.0,0.0,0.0,0.0,0.0,0.0,0.0,0.0,0.0,-1.3095,-1.2176,-1.2008,-1.1249,-1.0905,-1.1238,-1.0937,-1.085,0.0,0.0,0.0,0.0,0.0,0.0,0.0,0.0,0.0,-1.0868,0.0,0.0,-1.0736,-1.0902,0.0,0.0,0.0,0.0,0.0,-1.3083,-1.341,-1.3424,-1.3102,-1.3033,0.0,0.0,-1.3108,-1.3433,0.0,0.0,0.0,0.0,-1.3904,-1.3857,-1.3753,-1.3735,-1.3741,-1.3809,-1.3619,-1.3426,-1.3692,-1.3535,-1.337,-1.3528,-1.3486,-1.3403,-1.3403,-1.3403,-1.3322,-1.303,-1.2394,-1.1758,-1.1395,-1.0641,-1.0108,-1.0052,-1.0329,-1.0639,-1.0639,-1.0677,-1.0806,-1.0855,-1.0683,-1.0535,-1.0239,-1.0174,-1.0016,-0.9624,-0.8596,-0.7508,-0.6376,-0.4099,-0.2539,-0.1871,-0.0701,0.0,0.0,0.0,0.0,0.0,0.0,0.0,0.0,0.0,0.0,0.0,0.0,0.0,0.0,0.0,0.0,0.0,0.0,0.0,0.0,0.0,0.0,0.0,0.0,0.0,0.0,0.0,0.0,0.0,0.0,0.0,0.0,0.0,-1.2766,-1.191,-1.2008,-1.134,-1.1063,-1.14,-1.1006,-1.0982,0.0,0.0,0.0,0.0,0.0,0.0,0.0,0.0,0.0,0.0,0.0,0.0,-1.0969,-1.1439,0.0,0.0,0.0,0.0,0.0,0.0,-1.2711,-1.2826,-1.2647,0.0,0.0,0.0,0.0,0.0,0.0,0.0,0.0,0.0,-1.3904,-1.3928,-1.4115,-1.4107,-1.414,-1.4268,-1.4036,-1.3749,-1.406,-1.3938,-1.3778,-1.3941,-1.3735,-1.3403,-1.3403,-1.3403,-1.3322,-1.303,-1.2642,-1.2071,-1.1395,-1.0874,-1.0442,-1.0245,-1.0389,-1.0639,-1.0639,-1.0884,-1.0954,-1.0728,-1.0775,-1.0864,-1.0892,0.0,0.0,-1.0213,-0.9328,-0.8011,-0.6382,-0.3461,-0.1292,-0.0298,-0.01,0.0,0.0,0.0,0.0,0.0,0.0,0.0,0.0,0.0,0.0,0.0,0.0,0.0,0.0,0.0,0.0,0.0,0.0,0.0,0.0,0.0,0.0,0.0,0.0,0.0,0.0,0.0,0.0,0.0,0.0,0.0,0.0,-1.4333,-1.303,-1.2109,-1.2008,-1.127,-1.0846,-1.1144,-1.0879,-1.0982,-1.171,0.0,0.0,0.0,0.0,0.0,0.0,0.0,0.0,0.0,0.0,-1.171,-1.1483,-1.1777,0.0,0.0,0.0,0.0,0.0,0.0,-1.2596,-1.2967,-1.2795,0.0,0.0,0.0,0.0,0.0,0.0,0.0,0.0,0.0,0.0,-1.4083,-1.4156,-1.4107,-1.4026,-1.4091,-1.4138,-1.4127,-1.4344,-1.4279,-1.4062,-1.4077,-1.3983,-1.3735,-1.3486,-1.3471,-1.3458,-1.3159,-1.2761,-1.2279,-1.1597,-1.1005,-1.0503,-1.0163,-1.0346,-1.053,-1.0465,-1.0819,-1.1096,-1.1156,-1.1289,-1.1279,-1.1301,-1.1411,-1.1104,-1.0325,-0.9641,-0.824,-0.5641,-0.3294,-0.1607,-0.0502,-0.0202,0.0,0.0,0.0,0.0,0.0,0.0,0.0,0.0,0.0,0.0,0.0,0.0,0.0,0.0,0.0,0.0,0.0,0.0,0.0,0.0,0.0,0.0,0.0,0.0,0.0,0.0,0.0,0.0,0.0,0.0,0.0,-1.5248,-1.4539,-1.3227,-1.2242,-1.2008,-1.1256,-1.0826,-1.0867,-1.0853,-1.1038,-1.1718,-1.1512,0.0,0.0,0.0,0.0,0.0,0.0,0.0,0.0,0.0,-1.2178,-1.205,-1.2178,-1.2149,0.0,0.0,-1.2171,-1.223,0.0,0.0,0.0,0.0,0.0,0.0,0.0,0.0,0.0,0.0,0.0,0.0,0.0,0.0,0.0,0.0,0.0,-1.3904,-1.3904,-1.4107,-1.439,-1.4615,-1.453,-1.4383,-1.4303,-1.4149,-1.3998,-1.3541,-1.3512,-1.3505,-1.3288,-1.301,-1.2553,-1.183,-1.1203,-1.0653,-1.0303,-1.036,-1.0449,-1.0438,-1.0748,-1.109,-1.1362,-1.1509,-1.1566,-1.1621,-1.1771,-1.1508,-1.0773,-0.9749,-0.7987,-0.5295,-0.3519,-0.2221,-0.1313,-0.0606,-0.0202,0.0,0.0,0.0,0.0,0.0,0.0,0.0,0.0,0.0,0.0,0.0,0.0,0.0,0.0,0.0,0.0,0.0,0.0,0.0,0.0,0.0,0.0,0.0,0.0,0.0,0.0,0.0,0.0,0.0,0.0,0.0,-1.4539,-1.3227,-1.2242,-1.2008,-1.1354,-1.088,-1.088,-1.088,-1.1156,-1.1733,-1.1776,0.0,0.0,0.0,0.0,0.0,0.0,0.0,0.0,0.0,-1.2722,-1.2621,-1.2722,-1.2444,-1.1784,-1.2291,-1.218,-1.1724,0.0,0.0,0.0,0.0,0.0,0.0,0.0,0.0,-1.3896,0.0,0.0,0.0,0.0,0.0,0.0,0.0,0.0,0.0,0.0,-1.4026,-1.4286,-1.4814,-1.4907,-1.4784,-1.4706,-1.439,-1.4019,-1.3671,-1.3512,-1.3403,-1.3397,-1.3173,-1.2835,-1.2206,-1.1673,-1.1227,-1.0887,-1.0442,-1.0286,-1.0596,-1.0661,-1.0862,-1.1226,-1.1378,-1.159,-1.1949,-1.2102,-1.208,-1.1737,-0.9472,-0.7462,-0.5853,-0.4137,-0.2927,-0.2422,-0.1414,-0.0505,0.0,0.0,0.0,0.0,0.0,0.0,0.0,0.0,0.0,0.0,0.0,0.0,0.0,0.0,0.0,0.0,0.0,0.0,0.0,0.0,0.0,0.0,0.0,0.0,0.0,0.0,0.0,0.0,0.0,0.0,0.0,0.0,-1.3547,-1.2452,-1.1917,-1.1192,-1.0792,-1.0792,-1.0992,-1.1304,-1.1784,-1.1776,0.0,0.0,0.0,0.0,0.0,0.0,0.0,0.0,-1.2978,-1.2912,-1.2722,-1.2912,-1.2821,-1.251,-1.2551,-1.2519,-1.2482,-1.237,-1.2574,0.0,0.0,0.0,0.0,0.0,-1.3904,-1.3912,0.0,0.0,0.0,0.0,0.0,0.0,0.0,0.0,0.0,0.0,0.0,0.0,-1.47,-1.4653,-1.4516,-1.4376,-1.4062,-1.3672,-1.3322,-1.3288,-1.3349,-1.3146,-1.3105,-1.2923,-1.2096,-1.1535,-1.1069,-1.0572,-1.0258,-1.0182,-1.0503,-1.0655,-1.0889,-1.1335,-1.1433,-1.1558,-1.1841,-1.1747,-1.162,-1.1353,-1.0006,-0.8672,-0.7465,-0.575,-0.4641,-0.4035,-0.2725,-0.1515,-0.0606,-0.0202,0.0,0.0,0.0,0.0,0.0,0.0,0.0,0.0,0.0,0.0,0.0,0.0,0.0,0.0,0.0,0.0,0.0,0.0,0.0,0.0,0.0,0.0,0.0,0.0,0.0,0.0,0.0,0.0,0.0,0.0,-1.3932,-1.2758,-1.2107,-1.138,-1.085,-1.0717,-1.0982,-1.138,-1.1784,-1.1916,0.0,0.0,0.0,0.0,0.0,0.0,0.0,-1.2929,-1.2978,-1.2978,-1.2929,-1.2978,-1.2938,-1.2774,-1.281,-1.2783,-1.2826,-1.2719,-1.2957,0.0,0.0,0.0,0.0,-1.3904,-1.3904,-1.3912,0.0,0.0,0.0,0.0,0.0,0.0,0.0,0.0,0.0,0.0,0.0,0.0,0.0,-1.4402,-1.4129,-1.4219,-1.3909,-1.3523,-1.3185,-1.3139,-1.32,-1.3071,-1.3024,-1.2828,-1.2258,-1.1624,-1.1112,-1.0709,-1.0408,-1.0231,-1.0454,-1.0666,-1.0927,-1.1275,-1.14,-1.1547,-1.1792,-1.1772,-1.1463,-1.104,-1.037,-0.954,-0.8471,-0.7062,-0.6052,-0.5448,-0.4036,-0.2927,-0.202,-0.1111,-0.0505,-0.0303,-0.0303,-0.0202,0.0,0.0,0.0,0.0,0.0,0.0,0.0,0.0,0.0,0.0,0.0,0.0,0.0,0.0,0.0,0.0,0.0,0.0,0.0,0.0,0.0,0.0,0.0,0.0,0.0,0.0,-1.4268,-1.3153,-1.2437,-1.171,-1.1115,-1.0784,-1.1049,-1.138,-1.1784,0.0,0.0,0.0,0.0,0.0,0.0,0.0,0.0,-1.3076,-1.2921,-1.2921,-1.3092,-1.2929,-1.2865,-1.2881,-1.3051,-1.3018,-1.2842,-1.3091,-1.3255,-1.3396,-1.3761,-1.3904,-1.3904,-1.3904,-1.3904,0.0,0.0,0.0,0.0,0.0,0.0,0.0,0.0,0.0,0.0,0.0,0.0,0.0,0.0,0.0,0.0,0.0,-1.3786,-1.3429,-1.3172,-1.303,-1.2976,-1.3098,-1.2915,0.0,-1.2424,-1.1888,-1.1282,-1.1027,-1.06,-1.0378,-1.0394,-1.0693,-1.0965,-1.1096,-1.1319,-1.1558,-1.1803,-1.1933,-1.1757,-1.0925,-1.0567,-0.9977,-0.9063,-0.7968,-0.7163,-0.6657,-0.5549,-0.4742,-0.424,-0.2726,-0.1616,-0.0909,-0.0808,-0.0505,-0.0101,0.0,0.0,0.0,0.0,0.0,0.0,0.0,0.0,0.0,0.0,0.0,0.0,0.0,0.0,0.0,0.0,0.0,0.0,0.0,0.0,0.0,0.0,0.0,0.0,0.0,0.0,0.0,0.0,-1.2107,-1.1512,-1.1115,-1.1446,-1.1718,0.0,0.0,0.0,0.0,0.0,0.0,0.0,0.0,0.0,-1.2897,-1.279,-1.2921,-1.3092,-1.3051,-1.3108,-1.3246,-1.3433,-1.3469,-1.3448,-1.3625,-1.3721,-1.3753,-1.3833,-1.3904,-1.3904,-1.3904,-1.3904,0.0,0.0,0.0,0.0,-1.3904,-1.3904,0.0,0.0,0.0,0.0,0.0,0.0,0.0,0.0,-1.3578,-1.3334,-1.3228,0.0,-1.2773,-1.2651,-1.2725,-1.2759,0.0,-1.2369,-1.2017,-1.1763,-1.1213,-1.0644,-1.0416,-1.0314,-1.0307,-1.0487,-1.0742,-1.0992,-1.1204,-1.1444,-1.1683,-1.1922,-1.2053,-1.182,-1.0931,-1.0918,-1.0442,-0.9476,-0.884,-0.8475,-0.837,-0.7264,-0.6659,-0.6559,-0.5349,-0.3835,-0.2019,-0.1212,-0.0707,-0.0606,-0.0204,0.0,0.0,0.0,0.0,0.0,0.0,0.0,0.0,0.0,0.0,0.0,0.0,0.0,0.0,0.0,0.0,0.0,0.0,0.0,0.0,0.0,0.0,0.0,0.0,0.0,0.0,0.0,0.0,0.0,0.0,0.0,0.0,0.0,0.0,0.0,0.0,0.0,0.0,0.0,0.0,-1.2774,-1.2774,-1.2774,-1.2921,-1.3092,-1.3092,-1.3189,-1.3376,-1.3346,-1.3364,-1.3372,-1.3397,-1.3468,-1.3611,-1.3611,-1.3753,-1.3904,-1.3904,0.0,0.0,0.0,0.0,0.0,-1.3993,-1.3977,0.0,-1.3904,-1.3904,-1.3904,0.0,0.0,0.0,0.0,-1.3473,-1.3304,-1.3007,-1.2644,-1.242,-1.2488,-1.2562,-1.2603,-1.2522,-1.2146,-1.1747,-1.1592,-1.106,-1.0514,-1.0374,-1.0358,-1.0405,-1.0618,-1.0759,-1.102,-1.1313,-1.152,-1.1705,-1.1889,-1.1971,-1.1705,-1.0826,-1.0844,-1.0463,-0.9571,-0.9269,-0.9021,-0.8821,-0.8353,-0.7968,-0.7666,-0.6657,-0.5146,-0.3127,-0.212,-0.1313,-0.0808,-0.0306,0.0,0.0,0.0,0.0,0.0,0.0,0.0,0.0,0.0,0.0,0.0,0.0,0.0,0.0,0.0,0.0,0.0,0.0,0.0,0.0,0.0,0.0,0.0,0.0,0.0,0.0,0.0,0.0,0.0,0.0,0.0,0.0,0.0,0.0,0.0,0.0,0.0,0.0,0.0,-1.2774,-1.2774,-1.2774,-1.2865,-1.2962,-1.3133,-1.3165,-1.3271,-1.3457,-1.3262,-1.3122,-1.3052,-1.2907,-1.2968,-1.3325,-1.3325,-1.3539,-1.3904,-1.3904,0.0,0.0,0.0,0.0,0.0,0.0,0.0,0.0,-1.3904,-1.3904,-1.3904,-1.3904,0.0,0.0,0.0,0.0,0.0,-1.287,-1.2588,-1.2325,-1.2467,-1.2501,-1.2501,-1.2424,-1.2009,-1.1606,-1.153,-1.1016,-1.0486,-1.0486,-1.0553,-1.0563,-1.0579,-1.0819,-1.1128,-1.1487,-1.1623,-1.1737,-1.1857,-1.1873,-1.1485,-1.0734,-1.0578,-1.0276,-0.9472,-0.9469,-0.9332,-0.8849,-0.8921,-0.8762,-0.8367,-0.7361,-0.6153,-0.4539,-0.3228,-0.2019,-0.101,-0.0408,-0.0103,0.0,0.0,0.0,0.0,0.0,0.0,0.0,0.0,0.0,0.0,0.0,0.0,0.0,0.0,0.0,0.0,0.0,0.0,0.0,0.0,0.0,0.0,0.0,0.0,0.0,0.0,0.0,0.0,0.0,0.0,0.0,0.0,0.0,0.0,0.0,0.0,0.0,-1.2774,-1.2774,-1.2774,-1.2774,-1.2978,-1.3149,-1.3327,-1.3482,-1.3652,-1.3823,-1.3421,-1.3143,-1.2858,-1.2817,-1.2968,-1.3325,-1.3325,-1.3539,-1.3904,-1.3904,0.0,0.0,0.0,0.0,0.0,0.0,0.0,0.0,-1.3904,-1.3904,-1.3904,-1.3904,0.0,0.0,0.0,0.0,0.0,-1.2443,-1.2367,-1.2325,-1.2467,-1.2501,-1.2424,-1.2037,-1.1549,-1.1066,-1.0756,-1.04,-1.0097,-1.0097,-1.0393,-1.059,-1.0693,-1.1079,-1.1498,-1.1857,-1.1922,-1.1982,-1.2102,-1.2118,-1.1752,-1.0749,-1.074,-1.0326,-0.9394,-0.9379,-0.9362,-0.934,-0.9356,-0.94,-0.9476,-0.8877,-0.7968,-0.676,-0.4339,-0.2725,-0.2121,-0.1131,-0.0415,0.0,0.0,0.0,0.0,0.0,0.0,0.0,0.0,0.0,0.0,0.0,0.0,0.0,0.0,0.0,0.0,0.0,0.0,0.0,0.0,0.0,0.0,0.0,0.0,0.0,0.0,0.0,0.0,0.0,0.0,0.0,0.0,0.0,0.0,0.0,0.0,-1.2774,-1.2774,-1.2929,-1.2978,-1.2978,-1.3051,-1.323,-1.3514,-1.3604,-1.3734,-1.3904,-1.3325,-1.2681,-1.2115,-1.2115,-1.2466,-1.3039,-1.3039,-1.3396,-1.3904,0.0,0.0,0.0,0.0,0.0,0.0,0.0,0.0,0.0,0.0,-1.3904,-1.3833,-1.3611,0.0,0.0,0.0,0.0,0.0,-1.2402,-1.2345,-1.2343,-1.2172,-1.2192,-1.2037,-1.165,-1.1158,-1.0703,-1.0614,-1.0291,-1.0063,-1.0193,-1.0454,-1.0737,-1.0987,-1.127,-1.1558,-1.1857,-1.1949,-1.2009,-1.2063,-1.2074,-1.1699,-1.0667,-1.0616,-1.0194,-0.9299,-0.9289,-0.9379,-0.9465,-0.9514,-0.9587,-0.9677,-0.9179,-0.8575,-0.7767,-0.5649,-0.3835,-0.2422,-0.1338,-0.0519,0.0,0.0,0.0,0.0,0.0,0.0,0.0,0.0,0.0,0.0,0.0,0.0,0.0,0.0,0.0,0.0,0.0,0.0,0.0,0.0,0.0,0.0,0.0,0.0,0.0,0.0,0.0,0.0,0.0,0.0,0.0,0.0,0.0,0.0,0.0,-1.2856,-1.2774,-1.2774,-1.3003,-1.3092,-1.3092,-1.3181,-1.336,-1.3574,-1.3685,-1.3633,-1.3611,-1.3039,-1.2402,-1.1619,-1.1619,-1.2043,-1.2824,-1.2824,-1.3253,-1.3904,0.0,0.0,0.0,0.0,0.0,0.0,0.0,0.0,0.0,0.0,0.0,0.0,0.0,0.0,0.0,-1.2655,-1.2625,-1.2678,-1.2408,-1.242,-1.2347,-1.1882,-1.1805,-1.1734,-1.1305,-1.0845,-1.0578,-1.0548,-1.0342,-1.0172,-1.0384,-1.0666,-1.096,-1.1264,-1.1465,-1.1656,-1.1873,-1.1976,-1.2031,-1.2031,-1.2031,-1.1657,-1.0629,-1.0535,-1.0099,-0.9138,-0.9207,-0.9297,-0.9403,-0.9473,-0.9563,-0.9677,-0.9179,-0.8676,-0.8065,-0.6458,-0.4641,-0.2523,-0.1543,-0.0623,0.0,0.0,0.0,0.0,0.0,0.0,0.0,0.0,0.0,0.0,0.0,0.0,0.0,0.0,0.0,0.0,0.0,0.0,0.0,0.0,0.0,0.0,0.0,0.0,0.0,0.0,0.0,0.0,0.0,0.0,0.0,0.0,0.0,0.0,-1.3009,-1.2921,-1.2774,-1.2774,-1.3003,-1.3092,-1.3092,-1.3433,-1.355,-1.3574,-1.3807,-1.3531,-1.2896,-1.2824,-1.2402,-1.1619,-1.1619,-1.2043,-1.2824,-1.2824,-1.3253,-1.3912,-1.4091,0.0,0.0,0.0,0.0,0.0,0.0,0.0,0.0,0.0,0.0,0.0,0.0,0.0,-1.2545,-1.2764,-1.2643,-1.2394,-1.2454,-1.2494,-1.2347,-1.1572,-1.165,-1.1681,-1.1027,-1.0814,-1.0685,-1.0495,-1.0362,-1.04,-1.052,-1.0922,-1.1281,-1.1422,-1.1726,-1.1993,-1.2129,-1.215,-1.2161,-1.2161,-1.2161,-1.1778,-1.0739,-1.0649,-1.0271,-0.9142,-0.915,-0.9228,-0.9395,-0.9412,-0.9497,-0.9677,-0.9179,-0.8676,-0.8065,-0.6458,-0.4843,-0.313,-0.2057,-0.1038,0.0,0.0,0.0,0.0,0.0,0.0,0.0,0.0,0.0,0.0,0.0,0.0,0.0,0.0,0.0,0.0,0.0,0.0,0.0,0.0,0.0,0.0,0.0,0.0,0.0,0.0,0.0,0.0,0.0,0.0,0.0,0.0,0.0,0.0,-1.3025,-1.2929,-1.2774,-1.2774,-1.3003,-1.3149,-1.3262,-1.3514,-1.375,-1.3977,-1.4042,-1.365,-1.2824,-1.2824,-1.2402,-1.1619,-1.1619,-1.2043,-1.2824,-1.2824,-1.3253,-1.392,-1.4107,-1.414,0.0,0.0,0.0,0.0,0.0,0.0,0.0,0.0,-1.3396,-1.3284,-1.2947,-1.2706,-1.2533,-1.2526,-1.2505,-1.2433,-1.2488,-1.2501,-1.2347,-1.1495,-1.1417,-1.1401,-1.0668,-1.0559,-1.0534,-1.0563,-1.0601,-1.0666,-1.0862,-1.1101,-1.1362,-1.1639,-1.1857,-1.2031,-1.2156,-1.2172,-1.2172,-1.2172,-1.2172,-1.1794,-1.0753,-1.0659,-1.028,-0.9142,-0.9142,-0.922,-0.9395,-0.9408,-0.9489,-0.9673,-0.9179,-0.8475,-0.7566,-0.5952,-0.4339,-0.2726,-0.1954,-0.1038,0.0,0.0,0.0,0.0,0.0,0.0,0.0,0.0,0.0,0.0,0.0,0.0,0.0,0.0,0.0,0.0,0.0,0.0,0.0,0.0,0.0,0.0,0.0,0.0,0.0,0.0,0.0,0.0,0.0,0.0,0.0,0.0,0.0,0.0,-1.3122,-1.3019,-1.2897,-1.2774,-1.3003,-1.3181,-1.3368,-1.3547,-1.3823,-1.418,-1.4107,-1.36,-1.2835,-1.2711,-1.2259,-1.1619,-1.1619,-1.1972,-1.2617,-1.2753,-1.3182,-1.3777,-1.4107,-1.418,0.0,0.0,0.0,0.0,0.0,0.0,0.0,0.0,-1.3182,-1.2869,-1.2575,-1.2416,-1.24,-1.2374,-1.2427,-1.2501,-1.2501,-1.2424,-1.2114,-1.1495,-1.1215,-1.1016,-1.0594,-1.0465,-1.052,-1.0797,-1.0878,-1.0954,-1.1123,-1.1281,-1.1482,-1.177,-1.1917,-1.2031,-1.1967,-1.1983,-1.1889,-1.17,-1.1921,-1.1647,-1.0569,-1.0592,-1.0317,-0.9146,-0.9142,-0.922,-0.9395,-0.9212,-0.9198,-0.9476,-0.8575,-0.7666,-0.676,-0.5146,-0.3531,-0.212,-0.1646,-0.083,0.0,0.0,0.0,0.0,0.0,0.0,0.0,0.0,0.0,0.0,0.0,0.0,0.0,0.0,0.0,0.0,0.0,0.0,0.0,0.0,0.0,0.0,0.0,0.0,0.0,0.0,0.0,0.0,0.0,0.0,0.0,0.0,0.0,0.0,-1.3384,-1.3197,-1.3019,-1.2782,-1.3003,-1.3181,-1.3368,-1.3555,-1.3823,-1.4172,-1.3808,-1.3371,-1.2999,-1.2482,-1.1979,-1.1619,-1.1619,-1.1835,-1.2194,-1.2617,-1.2968,-1.334,-1.3954,-1.418,-1.418,0.0,0.0,0.0,0.0,0.0,0.0,0.0,-1.2832,-1.2251,-1.2483,-1.2359,-1.2121,-1.2413,-1.2501,-1.2501,-1.2501,-1.2192,-1.1811,-1.1423,-1.1053,-1.0776,-1.0744,-1.065,-1.0661,-1.1031,-1.1194,-1.1275,-1.1275,-1.1476,-1.1677,-1.1803,-1.1917,-1.1844,-1.1495,-1.1416,-1.1227,-1.0753,-1.1232,-1.1161,-1.0005,-1.0467,-1.0294,-0.915,-0.9047,-0.922,-0.9395,-0.8919,-0.8705,-0.8873,-0.7364,-0.6153,-0.5551,-0.4036,-0.2624,-0.1615,-0.1029,-0.0519,0.0,0.0,0.0,0.0,0.0,0.0,0.0,0.0,0.0,0.0,0.0,0.0,0.0,0.0,0.0,0.0,0.0,0.0,0.0,0.0,0.0,0.0,0.0,0.0,0.0,0.0,0.0,0.0,0.0,0.0,0.0,0.0,0.0,0.0,-1.3384,-1.3197,-1.3019,-1.2782,-1.2889,-1.2994,-1.3173,-1.3324,-1.3444,-1.3546,-1.36,-1.3165,-1.2402,-1.2287,-1.1979,-1.1619,-1.1619,-1.1835,-1.2194,-1.2338,-1.276,-1.334,-1.3665,-1.4026,-1.4343,0.0,0.0,0.0,0.0,0.0,0.0,0.0,0.0,0.0,-1.2261,-1.221,-1.2121,-1.2413,-1.2501,-1.2501,-1.2501,-1.2344,-1.2026,-1.1629,-1.1326,-1.1055,-1.11,-1.0954,-1.0916,-1.1275,-1.1444,-1.1531,-1.1531,-1.1656,-1.1803,-1.1917,-1.1756,-1.1564,-1.1411,-1.1197,-1.096,-1.0768,-1.0955,-1.0781,-1.0016,-1.0125,-0.9911,-0.915,-0.8763,-0.8642,-0.8814,-0.7942,-0.7517,-0.7764,-0.6153,-0.5043,-0.4438,-0.2926,-0.1716,-0.101,-0.0515,-0.0104,0.0,0.0,0.0,0.0,0.0,0.0,0.0,0.0,0.0,0.0,0.0,0.0,0.0,0.0,0.0,0.0,0.0,0.0,0.0,0.0,0.0,0.0,0.0,0.0,-1.5257,-1.4839,-1.4047,-1.3253,0.0,0.0,0.0,-1.2545,-1.26,-1.2826,-1.3282,-1.3308,-1.323,-1.3059,-1.3051,-1.31,-1.3206,-1.3246,-1.3122,-1.2911,-1.3074,-1.2881,-1.2287,-1.2135,-1.189,-1.1619,-1.1681,-1.1746,-1.1979,-1.233,-1.2689,-1.3118,-1.3514,-1.3954,-1.431,0.0,0.0,0.0,0.0,0.0,0.0,0.0,0.0,0.0,-1.2039,-1.2101,-1.221,-1.2508,-1.2637,-1.2684,-1.2684,-1.2377,-1.1987,-1.1745,-1.1359,-1.107,-1.1259,-1.1275,-1.134,-1.1558,-1.1694,-1.1775,-1.1775,-1.1651,-1.1644,-1.1761,-1.1141,-1.0715,-1.0516,-1.0199,-0.9867,-0.9906,-1.0188,-1.0206,-0.9823,-0.9911,-0.9872,-0.9203,-0.8683,-0.8354,-0.8322,-0.7257,-0.653,-0.6352,-0.4944,-0.3833,-0.3027,-0.1918,-0.101,-0.0505,-0.0205,0.0,0.0,0.0,0.0,0.0,0.0,0.0,0.0,0.0,0.0,0.0,0.0,0.0,0.0,0.0,0.0,0.0,0.0,0.0,0.0,0.0,0.0,0.0,0.0,-1.5479,-1.4839,-1.4474,-1.3468,-1.2689,0.0,0.0,0.0,-1.2122,-1.2545,-1.2899,-1.3091,-1.3434,-1.3563,-1.3376,-1.3368,-1.3368,-1.3368,-1.3183,-1.2773,-1.2268,-1.2373,-1.2452,-1.2379,-1.1962,-1.1755,-1.1626,-1.1769,-1.1748,-1.1619,-1.2402,-1.2681,-1.2824,-1.3539,-1.3938,-1.4083,-1.3897,0.0,0.0,0.0,0.0,0.0,0.0,0.0,0.0,-1.1972,-1.2176,-1.2366,-1.2664,-1.2854,-1.2963,-1.2976,-1.2443,-1.1816,-1.1816,-1.1291,-1.0922,-1.1248,-1.1596,-1.1846,-1.1835,-1.1928,-1.191,-1.191,-1.1538,-1.12,-1.1207,-1.0395,-0.9556,-0.9152,-0.8707,-0.8458,-0.8532,-0.9107,-0.9423,-0.933,-0.9802,-0.9857,-0.9285,-0.8619,-0.8064,-0.7723,-0.6566,-0.554,-0.4632,-0.3531,-0.2523,-0.1514,-0.101,-0.0505,0.0,0.0,0.0,0.0,0.0,0.0,0.0,0.0,0.0,0.0,0.0,0.0,0.0,0.0,0.0,0.0,0.0,0.0,0.0,0.0,0.0,0.0,0.0,0.0,0.0,-1.5266,-1.491,-1.4474,-1.4047,-1.3325,-1.2689,-1.2266,-1.1835,0.0,-1.2122,-1.2545,-1.2899,-1.3091,-1.3434,-1.3563,-1.3376,-1.3368,-1.3368,-1.3368,-1.2789,-1.2444,-1.2268,-1.2156,-1.1981,-1.1633,-1.1721,-1.1755,-1.1626,-1.1769,-1.1748,-1.1619,-1.1763,-1.2051,-1.2338,-1.2832,-1.329,-1.372,-1.3539,-1.3578,0.0,0.0,0.0,0.0,0.0,0.0,0.0,-1.2006,-1.2244,-1.2515,-1.282,-1.2935,-1.2983,-1.3098,-1.2662,-1.2101,-1.2101,-1.1824,-1.1607,-1.1683,-1.1906,-1.2069,-1.1971,-1.1767,-1.1564,-1.1564,-1.1092,-1.0725,-1.0275,-0.9755,-0.9132,-0.8688,-0.8322,-0.8018,-0.8035,-0.8603,-0.9017,-0.883,-0.9252,-0.9371,-0.8703,-0.7756,-0.6988,-0.6589,-0.4785,-0.3649,-0.3592,-0.2112,-0.1212,-0.101,-0.0404,-0.0101,0.0,0.0,0.0,0.0,0.0,0.0,0.0,0.0,0.0,0.0,0.0,0.0,0.0,0.0,0.0,0.0,0.0,0.0,0.0,0.0,0.0,0.0,0.0,0.0,0.0,0.0,0.0,-1.3833,-1.3611,-1.2975,-1.2402,-1.2194,-1.1835,0.0,0.0,-1.2474,-1.2858,-1.2917,-1.3483,-1.3725,-1.3628,-1.3628,-1.3547,-1.3376,-1.2819,-1.2437,-1.2157,-1.1967,-1.1671,-1.1402,-1.1769,-1.1823,-1.1626,-1.1843,-1.1823,-1.1619,-1.1835,-1.1979,-1.2266,-1.2617,-1.2949,-1.3241,-1.3077,-1.3092,-1.3161,-1.2438,0.0,0.0,0.0,0.0,0.0,0.0,0.0,-1.2549,-1.2779,-1.2949,-1.3098,-1.3241,-1.283,-1.2234,-1.1923,-1.1855,-1.1819,-1.1819,-1.2004,-1.215,-1.1809,-1.1564,-1.1227,-1.0753,-1.0275,-0.9815,-0.9291,-0.8668,-0.7952,-0.7537,-0.7317,-0.7178,-0.7208,-0.7744,-0.8256,-0.8414,-0.85,-0.8412,-0.7883,-0.701,-0.6123,-0.5121,-0.3791,-0.2741,-0.2076,-0.1192,-0.0699,-0.0401,-0.01,0.0,0.0,0.0,0.0,0.0,0.0,0.0,0.0,0.0,0.0,0.0,0.0,0.0,0.0,0.0,0.0,0.0,0.0,0.0,0.0,0.0,0.0,0.0,0.0,0.0,0.0,0.0,0.0,0.0,-1.3111,-1.2545,-1.2122,-1.2122,-1.1835,-1.1619,0.0,0.0,0.0,-1.2824,-1.3468,-1.3904,-1.3904,-1.3904,-1.3734,-1.3376,-1.2956,-1.246,-1.203,-1.1736,-1.1573,-1.1477,-1.185,-1.1877,-1.1633,-1.1898,-1.187,-1.1619,-1.1979,-1.2122,-1.2122,-1.2545,-1.2681,-1.2681,-1.2681,-1.2681,-1.2617,-1.2294,-1.217,-1.2276,-1.1937,0.0,0.0,0.0,0.0,-1.2569,-1.2725,-1.2963,-1.3214,-1.339,-1.3004,-1.2352,-1.1727,-1.1683,-1.1857,-1.1873,-1.2031,-1.1983,-1.1416,-1.1227,-1.0848,-0.9901,-0.9245,-0.8706,-0.8299,-0.7562,-0.6839,-0.6242,-0.6263,-0.6285,-0.6219,-0.6637,-0.7145,-0.7647,-0.7629,-0.7355,-0.6765,-0.6067,-0.5067,-0.3665,-0.2997,-0.2137,-0.0881,-0.0688,-0.0494,0.0,0.0,0.0,0.0,0.0,0.0,0.0,0.0,0.0,0.0,0.0,0.0,0.0,0.0,0.0,0.0,0.0,0.0,0.0,0.0,0.0,0.0,0.0,0.0,0.0,0.0,0.0,0.0,0.0,0.0,0.0,0.0,-1.1979,-1.1691,-1.1691,-1.1619,-1.1619,-1.1619,-1.233,-1.2824,-1.2824,0.0,0.0,-1.3904,-1.3904,-1.3734,-1.3376,-1.275,-1.2255,-1.203,-1.1643,-1.1575,-1.1775,-1.183,-1.1775,-1.1626,-1.1789,-1.1769,-1.1619,-1.1691,-1.1691,-1.1691,-1.2122,-1.2266,-1.2266,-1.2266,-1.2266,-1.2208,-1.1973,-1.1889,-1.1923,-1.1986,-1.2135,0.0,0.0,0.0,-1.2732,-1.2888,-1.3044,-1.3234,-1.3519,-1.3137,-1.2621,-1.1892,-1.1868,-1.1993,-1.2102,-1.215,-1.1889,-1.1037,-1.0375,-0.9901,-0.9324,-0.8435,-0.7721,-0.7253,-0.7159,-0.6725,-0.5705,-0.5641,-0.5559,-0.5127,-0.5457,-0.5881,-0.5881,-0.6319,-0.6082,-0.5196,-0.4528,-0.3624,-0.2579,-0.1637,-0.0968,-0.0776,-0.0394,-0.0099,0.0,0.0,0.0,0.0,0.0,0.0,0.0,0.0,0.0,0.0,0.0,0.0,0.0,0.0,0.0,0.0,0.0,0.0,0.0,0.0,0.0,0.0,0.0,0.0,0.0,0.0,0.0,0.0,0.0,0.0,0.0,0.0,0.0,-1.1619,-1.1619,-1.1619,-1.1691,-1.1907,-1.2474,-1.2968,-1.3396,-1.3682,-1.3904,-1.3904,-1.3904,-1.3712,-1.3253,-1.2796,-1.2345,-1.196,-1.1748,-1.1801,-1.1959,-1.1959,-1.1972,-1.1993,-1.1972,-1.1877,-1.1735,-1.1735,-1.1694,-1.1626,-1.1852,-1.1959,-1.1966,-1.2129,-1.201,-1.1724,-1.1643,-1.1492,-1.1345,-1.1484,-1.1752,-1.2099,-1.2099,0.0,0.0,0.0,-1.2807,-1.2862,-1.283,-1.2656,-1.2318,-1.1942,-1.1906,-1.2036,-1.2232,-1.2324,-1.2181,-1.1503,-1.0638,-0.9754,-0.8553,-0.8,-0.7472,-0.6771,-0.6434,-0.596,-0.5245,-0.5162,-0.497,-0.4454,-0.4865,-0.4987,-0.4712,-0.485,-0.4514,-0.3532,-0.318,-0.2479,-0.1526,-0.1053,-0.0672,-0.0384,-0.0097,0.0,0.0,0.0,0.0,0.0,0.0,0.0,0.0,0.0,0.0,0.0,0.0,0.0,0.0,0.0,0.0,0.0,0.0,0.0,0.0,0.0,0.0,0.0,0.0,0.0,0.0,0.0,0.0,0.0,0.0,0.0,0.0,0.0,0.0,-1.1619,-1.1619,0.0,0.0,0.0,-1.2545,-1.3111,-1.3833,-1.3904,-1.3833,-1.3753,-1.3761,-1.3539,-1.2943,-1.2697,-1.235,-1.1882,-1.1811,-1.1928,-1.2121,-1.2155,-1.2182,-1.2393,-1.2162,-1.1999,-1.1891,-1.1891,-1.183,-1.1742,-1.185,-1.1837,-1.173,-1.1884,-1.1658,-1.134,-1.134,-1.1258,-1.1045,-1.1081,-1.1368,-1.1727,-1.1727,-1.196,0.0,0.0,0.0,-1.2422,-1.2176,-1.2146,-1.2042,-1.1757,-1.1813,-1.1971,-1.2248,-1.2379,-1.2262,-1.1926,-1.1061,-0.9878,-0.8282,-0.779,-0.7339,-0.6555,-0.5971,-0.537,-0.4863,-0.4652,-0.435,-0.3854,-0.4161,-0.4183,-0.3619,-0.3576,-0.3051,-0.2062,-0.1933,-0.153,-0.0668,-0.0572,-0.0382,0.0,0.0,0.0,0.0,0.0,0.0,0.0,0.0,0.0,0.0,0.0,0.0,0.0,0.0,0.0,0.0,0.0,0.0,0.0,0.0,0.0,0.0,0.0,0.0,0.0107,0.0,0.0,0.0,0.0,0.0,0.0,0.0,0.0,0.0,0.0,0.0,-1.1619,-1.1619,-1.1619,-1.1763,-1.2122,-1.2545,-1.3111,-1.3833,-1.3904,-1.3753,-1.3325,-1.3325,0.0,-1.2522,-1.2004,-1.1788,-1.1882,-1.16,-1.1694,-1.2277,-1.2128,-1.2291,-1.2684,-1.2257,-1.2054,-1.2047,-1.2047,-1.2047,-1.204,-1.2047,-1.191,-1.1568,-1.1508,-1.1321,-1.1238,-1.1238,-1.1166,-1.1191,-1.1324,-1.1366,-1.134,-1.134,-1.134,-1.134,0.0,0.0,0.0,-1.1919,-1.1944,-1.1784,-1.1594,-1.1563,-1.1748,-1.2102,-1.2183,-1.2159,-1.1895,-1.1353,-1.0508,-0.8921,-0.7847,-0.7057,-0.6467,-0.5971,-0.5455,-0.4917,-0.4288,-0.3778,-0.3198,-0.3127,-0.296,-0.249,-0.249,-0.2082,-0.0983,-0.0875,-0.0674,-0.0095,0.0,0.0,0.0,0.0,0.0,0.0,0.0,0.0,0.0,0.0,0.0,0.0,0.0,0.0,0.0,0.0,0.0,0.0,0.0,0.0,0.0,0.0,0.0,0.0,0.0,0.0,0.0106,0.0,0.0,0.0,0.0,0.0,0.0,0.0,0.0,0.0,0.0,0.0,0.0,0.0,-1.1531,-1.1796,-1.2538,-1.3118,-1.3611,-1.3904,-1.3904,-1.3682,-1.3325,-1.3325,-1.3016,-1.2322,-1.2022,-1.1804,-1.1681,-1.1609,-1.1796,-1.2291,-1.2237,-1.2345,-1.2569,-1.2318,-1.2059,-1.1832,-1.1832,-1.1622,-1.1245,-1.134,-1.1378,-1.1361,-1.1491,-1.1415,-1.1165,-1.1165,-1.0953,-1.0645,-1.0611,-1.0751,-1.0874,-1.0874,-1.0975,-1.114,-1.114,-1.1173,-1.1181,-1.1358,-1.1326,-1.1213,-1.1368,-1.122,-1.1255,-1.1527,-1.1516,-1.1337,-1.1151,-1.0487,-0.9709,-0.8765,-0.8123,-0.738,-0.6623,-0.5697,-0.5061,-0.4817,-0.4013,-0.3321,-0.3126,-0.3153,-0.2785,-0.2008,-0.1889,-0.1478,-0.0393,-0.029,-0.0192,0.0,0.0,0.0,0.0,0.0,0.0,0.0,0.0,0.0,0.0,0.0,0.0,0.0,0.0,0.0,0.0,0.0,0.0,0.0,0.0,0.0,0.0,0.0,0.0,0.0,0.0427,0.0535,0.0751,0.0,0.0,0.0,0.0,0.0,0.0,0.0,0.0,-1.1619,-1.1619,0.0,0.0,0.0,0.0,-1.1762,-1.2581,-1.3302,-1.3725,-1.3725,-1.3782,-1.3602,-1.3026,-1.308,-1.276,-1.2051,-1.1896,-1.1747,-1.1619,-1.1565,-1.1748,-1.2135,-1.2135,-1.2216,-1.2352,-1.2105,-1.194,-1.1682,-1.153,-1.127,-1.1005,-1.1097,-1.1059,-1.1107,-1.1245,-1.1138,-1.1024,-1.0978,-1.0776,-1.0492,-1.0411,-1.0407,-1.047,-1.047,-1.0589,-1.0685,-1.0838,-1.0655,-1.051,-1.0839,-1.0688,-1.0545,-1.0865,-1.0544,-1.0317,-1.0606,0.0,-1.0239,-1.0271,-0.9666,-0.9017,-0.8431,-0.8004,-0.7386,-0.6654,-0.5495,-0.4846,-0.4815,-0.3819,-0.3131,-0.3142,-0.317,-0.2796,-0.1708,-0.159,-0.1181,-0.0098,0.0,0.0,0.0,0.0,0.0,0.0,0.0,0.0,0.0,0.0,0.0,0.0,0.0,0.0,0.0,0.0,0.0,0.0,0.0,0.0,0.0,0.0,0.0,0.0,0.0,0.0,0.0107,0.0641,0.0856,0.1073,0.0,0.0,0.0,0.0,0.0,0.0,-1.1619,-1.1619,-1.1619,-1.1619,0.0,0.0,0.0,0.0,0.0,-1.2283,-1.2964,-1.3376,-1.3368,-1.3539,-1.3216,-1.2514,-1.2663,-1.2395,-1.1619,-1.147,-1.147,-1.1619,-1.147,-1.1545,-1.183,-1.183,-1.1911,-1.2054,-1.1681,-1.1534,-1.1593,-1.1219,-1.114,-1.1256,-1.1262,-1.1035,-1.0741,-1.0626,-1.0644,-1.0721,-1.0612,-1.065,-1.0748,-1.0748,-1.0514,-1.0215,-1.0199,-1.0025,-0.9911,-1.0369,-1.014,-0.9883,0.0,0.0,0.0,-1.0014,-0.9473,-0.8972,-0.9361,0.0,-0.8903,-0.9167,-0.8892,-0.8525,-0.7935,-0.7504,-0.6982,-0.6548,-0.5561,-0.4808,-0.4808,-0.3798,-0.311,-0.314,-0.317,-0.2789,-0.1693,-0.1593,-0.1185,-0.0097,0.0,0.0,0.0,0.0,0.0,0.0,0.0,0.0,0.0,0.0,0.0,0.0,0.0,0.0,0.0,0.0,0.0,0.0,0.0,0.0,0.0,0.0,0.0,0.0,0.0,0.0,0.0107,0.0746,0.0959,0.1065,0.0,0.0,0.0,0.0,0.0,-1.1619,-1.1619,-1.1619,-1.1619,0.0,0.0,0.0,-1.1619,-1.2073,-1.2362,-1.2291,-1.3074,-1.3514,-1.3376,-1.3141,-1.2874,-1.2514,-1.2348,-1.2002,-1.1619,-1.1579,-1.1579,-1.1619,-1.1579,-1.1653,-1.183,-1.183,-1.1703,-1.1529,-1.1087,-1.081,-1.0562,-1.0603,-1.0474,-1.0201,-1.0291,-1.033,-1.0374,-1.0517,-1.0623,-1.0753,-1.09,-1.0971,-1.1003,-1.1003,-1.0819,-1.0514,-1.0074,-0.9835,-0.9715,-0.9489,-0.9338,-0.9162,-0.8993,0.0,0.0,0.0,0.0,0.0,0.0,0.0,0.0,-0.7806,-0.7718,-0.7378,-0.7185,-0.6851,-0.6508,-0.6327,-0.5482,-0.476,-0.476,-0.3803,-0.3133,-0.3142,-0.317,-0.2789,-0.1693,-0.1573,-0.1168,0.0,0.0,0.0,0.0,0.0,0.0,0.0,0.0,0.0,0.0,0.0,0.0,0.0,0.0,0.0,0.0,0.0,0.0,0.0,0.0,0.0,0.0,0.0,0.0,0.0,0.0,0.0,0.0108,0.1068,0.1498,0.1611,0.0,0.0,-1.1907,-1.1619,-1.1619,-1.1619,-1.1619,-1.1619,-1.1619,0.0,0.0,0.0,-1.1745,-1.2443,-1.2833,-1.2498,-1.2911,-1.3162,-1.3058,-1.271,-1.2376,-1.2194,-1.2064,-1.1889,-1.1619,-1.1619,-1.1619,-1.1619,-1.1619,-1.166,-1.1742,-1.1524,-1.1378,-1.116,-1.0578,-1.0213,-1.0012,-1.0116,-1.0025,-0.9845,-0.9916,-1.0047,-1.0221,-1.0356,-1.0579,-1.084,-1.1031,-1.1166,-1.1259,-1.1308,-1.1096,-1.0715,-1.0166,-0.9757,-0.9503,-0.9152,-0.8834,-0.8493,-0.8032,-0.7748,-0.7445,-0.714,0.0,0.0,0.0,0.0,0.0,0.0,-0.6646,-0.6603,-0.6534,-0.6373,-0.6116,-0.5948,-0.5225,-0.4622,-0.4737,-0.3793,-0.3125,-0.3125,-0.315,-0.2769,-0.1674,-0.1558,-0.1159,-0.0096,0.0,0.0,0.0,0.0,0.0,0.0,0.0,0.0,0.0,0.0,0.0,0.0,0.0,0.0,0.0,0.0,0.0,0.0,0.0,0.0,0.0,0.0,0.0,0.0,0.0,0.0,0.0107,0.1281,0.1711,0.1823,0.0,0.0,-1.1626,-1.164,-1.164,-1.1647,-1.1667,-1.1653,-1.164,0.0,-1.1626,-1.178,-1.2065,-1.2685,-1.2967,-1.2789,-1.2634,-1.2593,-1.2562,-1.215,-1.1886,-1.1703,-1.1852,-1.1797,-1.1613,-1.1619,-1.1619,-1.1619,-1.1619,-1.1619,-1.1619,-1.1201,-1.0985,-1.09,-1.0275,-0.9908,-0.9824,-0.9711,-0.9731,-0.984,-0.9883,-1.0052,-1.0286,-1.0217,-1.0492,-1.0891,-1.094,-1.1127,-1.142,-1.1437,-1.118,-1.081,-1.0265,-0.9708,-0.9261,-0.9084,-0.8424,-0.7735,-0.7361,-0.6723,-0.6059,-0.5664,-0.5032,0.0,0.0,0.0,0.0,0.0,-0.5783,-0.6008,-0.606,-0.6068,-0.5895,-0.5464,-0.4963,-0.4577,-0.4628,-0.3771,-0.3097,-0.3097,-0.3122,-0.2737,-0.1743,-0.1547,-0.1156,-0.0095,0.0,0.0,0.0,0.0,0.0,0.0,0.0,0.0,0.0,0.0,0.0,0.0,0.0,0.0,0.0,0.0,0.0,0.0,0.0,0.0,0.0,0.0,0.0,0.0,0.0,0.0,0.0107,0.1172,0.1598,0.1812,-1.2266,-1.1907,-1.1653,-1.1769,-1.1789,-1.183,-1.1959,-1.187,-1.1789,-1.1789,-1.1983,-1.2252,-1.2573,-1.2779,-1.2783,-1.2555,-1.251,-1.2375,-1.2112,-1.176,-1.1621,-1.1703,-1.1469,-1.1405,-1.1613,-1.1619,-1.1619,-1.1619,-1.1619,-1.1619,-1.1619,-1.1299,-1.0923,-1.0612,-1.0246,-0.9855,-0.9463,-0.9637,-0.9731,-0.9862,-1.0161,-1.0481,-1.0708,-1.0382,-1.0441,-1.0534,-1.0387,-1.0359,-1.0557,-1.0576,-1.0685,-1.058,-0.9799,-0.9085,-0.846,-0.8122,-0.7295,-0.6424,-0.571,-0.5226,-0.4737,-0.4385,-0.3876,0.0,-0.4184,-0.437,0.0,0.0,0.0,-0.5872,-0.588,-0.5883,-0.5689,-0.5197,-0.4795,-0.431,-0.4007,-0.3467,-0.3097,-0.3097,-0.3103,-0.2716,-0.1742,-0.1537,-0.1051,-0.0095,0.0,0.0,0.0,0.0,0.0,0.0,0.0,0.0,0.0,0.0,0.0,0.0,0.0,0.0,0.0,0.0,0.0,0.0,0.0,0.0,0.0,0.0,0.0,0.0,0.0,0.0,0.0107,0.0746,0.1066,0.1172,-1.2266,-1.1907,-1.166,-1.1809,-1.183,-1.1884,-1.204,-1.1993,-1.1945,-1.1945,-1.2398,-1.286,-1.329,-1.329,-1.326,-1.3184,-1.2666,-1.2292,-1.2131,-1.162,-1.1399,-1.1545,-1.1413,-1.1382,-1.1613,-1.1619,-1.1619,-1.1619,-1.1619,-1.1476,-1.126,-1.0964,-1.0632,-1.0274,-0.9962,-0.9689,-0.9497,-0.9677,-0.9889,-1.0123,-1.0248,-1.0345,-1.043,-1.0345,-1.0252,-1.0244,-1.0187,-1.0364,-1.0492,-1.0064,-1.0036,-0.995,-0.9114,-0.8292,-0.7535,-0.7159,-0.6256,-0.5236,-0.4675,-0.4157,-0.3733,-0.3376,-0.3064,0.0,0.0,0.0,-0.4072,0.0,0.0,-0.5483,-0.5692,0.0,-0.5562,-0.4843,-0.4546,0.0,0.0,0.0,0.0,0.0,0.0,-0.269,-0.1633,-0.153,-0.1049,-0.0095,0.0,0.0,0.0,0.0,0.0,0.0,0.0,0.0,0.0,0.0,0.0,0.0,0.0,0.0,0.0,0.0,0.0,0.0,0.0,0.0,0.0,0.0,0.0,0.0,0.0,0.0,0.0107,0.0643,0.0856,0.096,-1.2266,-1.1907,-1.1674,-1.1843,-1.1877,-1.1938,-1.2115,-1.2121,-1.2169,-1.2291,-1.2835,-1.3446,-1.3886,-1.385,-1.3724,-1.3649,-1.2816,-1.2191,-1.21,-1.1642,-1.1335,-1.143,-1.1409,-1.1477,-1.1653,-1.1633,-1.1619,-1.1619,-1.1619,-1.1404,-1.0972,-1.0703,-1.0335,-1.0075,-0.978,-0.9617,-0.9682,-0.9867,-1.009,-1.0313,-1.0227,-1.0111,-1.0103,-1.0199,-1.0068,-0.9936,-0.9959,-1.003,-1.014,-0.9403,-0.9128,-0.8919,-0.8071,-0.7234,-0.6429,-0.6246,-0.5249,-0.422,-0.3847,-0.3478,-0.2973,-0.2677,-0.2585,-0.2661,0.0,0.0,0.0,0.0,0.0,0.0,0.0,0.0,0.0,0.0,0.0,0.0,0.0,0.0,0.0,0.0,0.0,0.0,-0.1621,-0.1333,-0.0856,-0.0095,0.0,0.0,0.0,0.0,0.0,0.0,0.0,0.0,0.0,0.0,0.0,0.0,0.0,0.0,0.0,0.0,0.0,0.0,0.0,0.0,0.0,0.0,0.0,0.0,0.0,0.0,0.0107,0.0539,0.0753,0.0749,-1.2266,-1.1907,-1.1708,-1.1986,-1.2033,-1.2128,-1.2406,-1.2345,-1.2443,-1.2977,-1.3304,-1.3612,-1.3914,-1.3824,-1.3531,-1.3223,-1.2727,-1.2306,-1.1903,-1.1775,-1.1708,-1.1599,-1.1463,-1.1525,-1.1803,-1.1681,-1.1619,-1.1619,-1.1619,-1.1404,-1.0972,-1.073,-1.0425,-1.0087,-0.9971,-0.9851,-0.9699,-1.0139,-1.0221,-1.0022,-1.0101,-1.0302,-1.0519,-1.0107,-0.9862,-0.9596,-0.8852,-0.8594,-0.8454,-0.7417,-0.7366,-0.748,-0.6442,-0.5716,-0.5169,-0.51,-0.4381,-0.3519,-0.3397,-0.3029,-0.2678,-0.2601,-0.26,-0.2598,-0.2687,0.0,-0.3324,-0.3494,0.0,0.0,0.0,0.0,0.0,0.0,0.0,0.0,0.0,0.0,0.0,0.0,0.0,0.0,0.0,-0.0662,-0.0094,0.0,0.0,0.0,0.0,0.0,0.0,0.0,0.0,0.0,0.0,0.0,0.0,0.0,0.0,0.0,0.0,0.0,0.0,0.0,0.0,0.0,0.0,0.0,0.0,0.0,0.0,0.0,0.0,0.0108,0.0108,0.0108,-1.2266,-1.1907,-1.1687,-1.1891,-1.1999,-1.2135,-1.2345,-1.24,-1.2699,-1.3391,-1.3595,-1.3823,-1.4307,-1.4157,-1.3828,-1.3518,-1.3134,-1.2773,-1.2501,-1.2318,-1.2115,-1.1884,-1.1728,-1.1667,-1.1708,-1.1647,-1.1619,-1.1619,-1.1404,-1.1038,-1.0678,-1.0372,-1.0114,-0.9899,-0.9894,-0.9976,-1.0101,-1.0373,-1.0345,-1.0153,-1.0167,-0.9874,-0.9347,-0.9171,-0.8636,-0.7881,-0.7612,-0.7347,-0.6917,-0.6196,-0.5882,-0.5641,-0.4861,-0.4065,-0.3368,-0.3312,-0.2812,-0.2243,-0.2119,-0.2176,-0.224,-0.224,-0.2463,-0.2607,-0.2624,-0.272,-0.2978,-0.3226,0.0,0.0,0.0,0.0,0.0,0.0,-0.3326,0.0,0.0,0.0,0.0,0.0,0.0,0.0,0.0,0.0,0.0,0.0,0.0,0.0,0.0,0.0,0.0,0.0,0.0,0.0,0.0,0.0,0.0,0.0,0.0,0.0,0.0,0.0,0.0,0.0,0.0,0.0,0.0,0.0,0.0,0.0,0.0,0.0,0.0,0.0,0.0,0.0,-1.2122,-1.1835,-1.166,-1.1809,-1.1959,-1.2128,-1.2318,-1.2474,-1.2894,-1.3715,-1.3953,-1.4151,-1.4628,-1.4562,-1.4304,-1.3844,-1.3521,-1.3261,-1.303,-1.2807,-1.2556,-1.2257,-1.206,-1.1911,-1.1803,-1.1721,-1.1588,-1.1476,-1.1116,-1.075,-1.0311,-1.0023,-0.9798,-0.9677,-0.9824,-1.0052,-1.0351,-1.0563,-1.0487,-1.0123,-1.0214,-0.921,-0.7891,-0.794,-0.7175,-0.6058,-0.6224,-0.587,-0.5172,-0.4727,-0.4236,-0.3824,-0.3323,-0.2639,-0.196,0.0,0.0,-0.1427,-0.1313,-0.1552,-0.1875,-0.1954,-0.2253,-0.2465,-0.2561,-0.2565,-0.273,-0.3061,-0.3173,0.0,0.0,0.0,-0.3539,-0.32,0.0,-0.2951,0.0,0.0,0.0,0.0,0.0,0.0,0.0,0.0,0.0,0.0,0.0,0.0,0.0,0.0,0.0,0.0,0.0,0.0,0.0,0.0,0.0,0.0,0.0,0.0,0.0,0.0,0.0,0.0,0.0,0.0,0.0,0.0,0.0,0.0,0.0,0.0,0.0,0.0,0.0,0.0,-1.1691,-1.1619,-1.166,-1.1809,-1.1959,-1.2162,-1.2447,-1.2623,-1.3089,-1.4119,-1.4571,-1.4833,-1.4914,-1.5086,-1.4756,-1.3903,-1.3817,-1.3634,-1.3193,-1.3159,-1.3017,-1.2718,-1.2433,-1.2271,-1.2271,-1.1979,-1.1537,-1.1044,-1.1044,-1.0606,-0.9951,-0.9879,-0.9798,-0.9682,-0.9911,-1.0085,-1.0242,-1.071,-1.0593,-1.0022,-0.9918,-0.8513,-0.6464,0.0,-0.567,-0.4422,-0.461,-0.3964,-0.2997,-0.2516,-0.2322,-0.2224,-0.174,-0.1547,-0.1543,-0.1432,-0.1409,-0.1384,-0.1278,-0.1345,-0.1408,-0.1916,-0.205,-0.2095,-0.2487,-0.2565,-0.2565,-0.2647,-0.2671,-0.2683,-0.2654,-0.2624,-0.2675,-0.2647,-0.2643,0.0,0.0,0.0,0.0,0.0,0.0,0.0,0.0,0.0,0.0,0.0,0.0,0.0,0.0,0.0,0.0,0.0,0.0,0.0,0.0,0.0,0.0,0.0,0.0,0.0,0.0,0.0,0.0,0.0,0.0,0.0,0.0,0.0,0.0,0.0,0.0,0.0,0.0,0.0,0.0,0.0,-1.1814,-1.1755,-1.1775,-1.1823,-1.1959,-1.2162,-1.2454,-1.3026,-1.3612,-1.4221,-1.4845,-1.5112,-1.4944,-1.512,-1.4988,-1.4223,-1.4231,-1.4177,-1.3933,-1.3729,-1.3485,-1.3186,-1.2793,-1.2535,-1.2433,-1.1817,-1.1371,-1.1179,-1.0577,-1.0167,-0.9879,-0.959,-0.9534,-0.9557,-0.9796,-1.0057,-1.0351,-1.0414,-1.0265,-0.984,-0.8379,-0.6775,-0.527,0.0,-0.4655,-0.3394,-0.3194,-0.2638,-0.1956,-0.187,-0.1571,-0.127,-0.1075,-0.0778,-0.0483,-0.0482,-0.0477,-0.0471,-0.0467,-0.0642,-0.09,-0.1069,-0.1573,-0.2054,-0.2184,-0.244,-0.2702,-0.2682,-0.2701,-0.272,-0.2709,-0.2683,-0.2652,-0.2622,-0.2585,-0.248,0.0,0.0,0.0,0.0,0.0,0.0,0.0,0.0,0.0,0.0,0.0,0.0,0.0,0.0,0.0,0.0,0.0,0.0,0.0,0.0,0.0,0.0,0.0,0.0,0.0,0.0,0.0,0.0,0.0,0.0,0.0,0.0,0.0,0.0,0.0,0.0,0.0,0.0,0.0,0.0,-1.1972,-1.1952,-1.1911,-1.1911,-1.204,-1.2223,-1.2467,-1.3195,-1.396,-1.4482,-1.5331,-1.5663,-1.5376,-1.5585,-1.5322,-1.4537,-1.4536,-1.4509,-1.4312,-1.4116,-1.3871,-1.3566,-1.307,-1.2709,-1.2509,-1.174,-1.1177,-1.0878,-1.0304,-0.9853,-0.9663,-0.9407,-0.9329,-0.9497,-0.9688,-0.9981,-1.0346,-1.0247,-1.0004,-0.9518,-0.7391,-0.5631,0.0,0.0,-0.3304,-0.2096,-0.1858,-0.1385,-0.0993,-0.0999,-0.0798,-0.0496,-0.0496,-0.0296,0.0,0.0,0.0,0.0,0.0,-0.0189,-0.0465,-0.0644,-0.1174,-0.1682,-0.2001,-0.2259,-0.252,-0.2761,0.0,0.0,0.0,-0.2712,-0.2586,-0.2402,-0.2354,-0.2157,0.0,-0.145,0.0,0.0,0.0,0.0,0.0,0.0,0.0,0.0,0.0,0.0,0.0,0.0,0.0,0.0,0.0,0.0,0.0,0.0,0.0,0.0,0.0,0.0,0.0,0.0,0.0,0.0,0.0,0.0,0.0,0.0,0.0,0.0,0.0,0.0,0.0,0.0,0.0,0.0,-1.2291,-1.2176,-1.2155,-1.2155,-1.2285,-1.2435,-1.2579,-1.3387,-1.4295,-1.5036,-1.5932,-1.6453,-1.625,-1.6196,-1.5749,-1.4845,-1.4746,-1.4618,-1.434,-1.4306,-1.4082,-1.3792,-1.3206,-1.2746,-1.2471,-1.1789,-1.0981,-1.0225,-1.0162,-0.9809,-0.9318,-0.9198,-0.9264,-0.9487,-0.9612,-0.9867,-1.0147,-1.0122,-0.9653,-0.8819,-0.6839,-0.5047,-0.3623,-0.2604,-0.1646,-0.0777,-0.0792,-0.0401,0.0,0.0,0.0,0.0,0.0,0.0,0.0,0.0,0.0,0.0,0.0,0.0,-0.0097,-0.0574,-0.0659,-0.0925,-0.1831,-0.2085,-0.2251,0.0,0.0,0.0,0.0,0.0,-0.2403,-0.2068,-0.1867,-0.1673,0.0,0.0,0.0,0.0,0.0,0.0,0.0,0.0,0.0,0.0,0.0,0.0,0.0,0.0,0.0,0.0,0.0,0.0,0.0,0.0,0.0,0.0,0.0,0.0,0.0,0.0,0.0,0.0,0.0,0.0,0.0,0.0,0.0,0.0,0.0,0.0,0.0,0.0,0.0,0.0,-1.2271,-1.2345,-1.2463,-1.2769,-1.2979,-1.3297,-1.3763,-1.4608,-1.5386,-1.5895,-1.6267,-1.6495,-1.6257,-1.5935,-1.5547,-1.5002,-1.4808,-1.4706,-1.4631,-1.4064,-1.3729,-1.3657,-1.2897,-1.2478,-1.2404,-1.1623,-1.1103,-1.0753,-1.0201,-0.9763,-0.9574,-0.9362,-0.9291,-0.9362,-0.9574,-0.9666,-0.9552,-0.9186,-0.8074,-0.6546,-0.4943,-0.3676,-0.2458,0.0,-0.0783,-0.0196,-0.0198,-0.01,0.0,0.0,0.0,0.0,0.0,0.0,0.0,0.0,0.0,0.0,0.0,0.0,0.0,-0.0195,-0.048,-0.0755,-0.1029,-0.1303,-0.1578,-0.1765,-0.1736,0.0,0.0,0.0,0.0,0.0,0.0,0.0,0.0,0.0,0.0,-0.0329,0.0,0.0,0.0,0.0,0.0,0.0,0.0,0.0,0.0,0.0,0.0,0.0,0.0,0.0,0.0,0.0,0.0,0.0,0.0,0.0,0.0,0.0,0.0,0.0,0.0,0.0,0.0,0.0,0.0,0.0,0.0,0.0,0.0,0.0,0.0,0.0,-1.2467,-1.2649,-1.2909,-1.3445,-1.3885,-1.4206,-1.4308,-1.5064,-1.5794,-1.5953,-1.6387,-1.6597,-1.6107,-1.5932,-1.5617,-1.5158,-1.4984,-1.4817,-1.4474,-1.4134,-1.3745,-1.3412,-1.2817,-1.2443,-1.239,-1.1624,-1.1093,-1.0868,-1.0201,-0.9835,-0.9661,-0.9222,-0.8965,-0.9023,-0.906,-0.899,-0.8807,-0.7952,-0.6696,-0.5052,-0.3844,-0.2756,0.0,-0.1078,-0.0396,0.0,0.0,0.0,0.0,0.0,0.0,0.0,0.0,0.0,0.0,0.0,0.0,0.0,0.0,0.0,0.0,0.0,-0.0197,-0.0485,-0.0676,-0.0961,-0.1149,-0.1437,-0.141,-0.1384,-0.1375,0.0,0.0,0.0,0.0,0.0,0.0,0.0,0.0,0.0,0.0,0.0,0.0,0.0,0.0,0.0,0.0,0.0,0.0,0.0,0.0,0.0,0.0,0.0,0.0,0.0,0.0,0.0,0.0,0.0,0.0,0.0,0.0,0.0,0.0,0.0,0.0,0.0,0.0,0.0,0.0,0.0,0.0,0.0,0.0,0.0,-1.2705,-1.2922,-1.3353,-1.3875,-1.4666,-1.5043,-1.47,-1.5329,-1.5802,-1.5851,-1.6346,-1.6567,-1.5968,-1.5816,-1.5636,-1.5275,-1.5167,-1.4912,-1.4229,-1.411,-1.377,-1.3187,-1.2632,-1.2306,-1.2204,-1.1632,-1.1166,-1.0808,-1.0244,-0.9882,-0.9634,-0.8817,-0.8417,-0.8517,-0.8269,-0.8062,-0.7711,-0.6505,-0.5303,-0.4076,-0.3221,-0.2222,-0.1376,-0.0894,-0.0401,0.0,0.0,0.0,0.0,0.0,0.0,0.0,0.0,0.0,0.0,0.0,0.0,0.0,0.0,0.0,0.0,0.0,0.0,-0.01,-0.0599,-0.0694,-0.0788,-0.1183,-0.1253,-0.1227,-0.1224,0.0,0.0,0.0,0.0,0.0,0.0,0.0,0.0,0.0,0.0,0.0,0.0,0.0,0.0,0.0,0.0,0.0,0.0,0.0,0.0,0.0,0.0,0.0,0.0,0.0,0.0,0.0,0.0,0.0,0.0,0.0,0.0,0.0,0.0,0.0,0.0,0.0,0.0,0.0,0.0,0.0,0.0,0.0,0.0,0.0,-1.2569,-1.2936,-1.3483,-1.3897,-1.4766,-1.5585,-1.6097,-1.643,-1.6554,-1.6572,-1.6226,-1.6031,-1.5803,-1.5375,-1.5145,-1.5174,-1.5072,-1.4812,-1.4222,-1.3745,-1.3205,-1.2632,-1.218,-1.19,-1.1878,-1.1748,-1.1542,-1.1177,-1.0367,-0.9812,-0.9408,-0.8307,-0.7765,-0.7792,-0.7603,-0.7037,-0.6244,-0.5036,-0.4046,-0.3061,-0.21,-0.1361,-0.0787,-0.03,-0.0101,0.0,0.0,0.0,0.0,0.0,0.0,0.0,0.0,0.0,0.0,0.0,0.0,0.0,0.0,0.0,0.0,0.0,0.0,0.0,-0.0101,-0.0101,-0.0201,-0.0201,-0.0297,-0.0291,-0.0286,-0.0272,0.0,0.0,0.0,0.0,0.0,0.0,0.0,0.0,0.0,0.0,0.0,0.0,0.0,0.0,0.0,0.0,0.0,0.0,0.0,0.0,0.0,0.0,0.0,0.0,0.0,0.0,0.0,0.0,0.0,0.0,0.0,0.0,0.0,0.0,0.0,0.0,0.0,0.0,0.0,0.0,0.0,0.0,0.0,0.0,-1.2861,-1.3228,-1.3785,-1.4348,-1.511,-1.5931,-1.6717,-1.7088,-1.7088,-1.6628,-1.6302,-1.6026,-1.5517,-1.5265,-1.5106,-1.5174,-1.512,-1.4799,-1.3958,-1.3709,-1.3208,-1.2371,-1.2091,-1.2004,-1.2004,-1.1938,-1.1668,-1.1104,-1.047,-0.9712,-0.8771,-0.7853,-0.7195,-0.6635,-0.6063,-0.5437,0.0,-0.4128,-0.3376,-0.2562,-0.1838,-0.1181,-0.0698,-0.0201,0.0,0.0,0.0,0.0,0.0,0.0,0.0,0.0,0.0,0.0,0.0,0.0,0.0,0.0,0.0,0.0,0.0,0.0,0.0,0.0,0.0,0.0,0.0,0.0,0.0,0.0,0.0,0.0,0.0,0.0,0.0,0.0,0.0,0.0,0.0,0.0,0.0,0.0,0.0,0.0,0.0,0.0,0.0,0.0,0.0,0.0,0.0,0.0,0.0,0.0,0.0,0.0,0.0,0.0,0.0,0.0,0.0,0.0,0.0,0.0,0.0,0.0,0.0,0.0,0.0,0.0,0.0,0.0,0.0,0.0,0.0,0.0,-1.3227,-1.3575,-1.4056,-1.4629,-1.5432,-1.6199,-1.6993,-1.7436,-1.7413,-1.6567,-1.639,-1.608,-1.54,-1.5234,-1.5147,-1.5181,-1.5181,-1.4811,-1.3782,-1.3682,-1.3211,-1.2267,-1.2172,-1.2172,-1.2172,-1.1981,-1.1531,-1.0916,-1.0227,-0.9295,-0.8163,-0.7267,-0.626,-0.531,-0.4547,-0.4038,-0.3895,-0.3576,-0.2887,-0.2137,-0.1668,-0.1194,-0.0606,-0.0202,0.0,0.0,0.0,0.0,0.0,0.0,0.0,0.0,0.0,0.0103,0.0204,0.0203,0.0202,0.0303,0.0303,0.0303,0.0202,0.0202,0.0101,0.0,0.0,0.0,0.0,0.0,0.0,0.0,0.0,0.0,0.0,0.0,0.0,0.0,0.0,0.0,0.0,0.0,0.0,0.0,0.0,0.0,0.0,0.0,0.0,0.0,0.0,0.0,0.0,0.0,0.0,0.0,0.0,0.0,0.0,0.0,0.0,0.0,0.0,0.0,0.0,0.0,0.0,0.0,0.0,0.0,0.0,0.0,0.0,0.0,0.0,0.0,0.0,0.0,-1.3403,-1.3818,-1.4294,-1.4458,-1.5523,-1.6471,-1.6822,-1.7624,-1.7829,-1.6985,-1.6492,-1.6096,-1.5704,-1.5262,-1.5045,-1.5174,-1.5181,-1.4811,-1.3782,-1.3682,-1.3211,-1.2267,-1.2172,-1.2172,-1.2172,-1.1689,-1.1237,-1.0916,-0.9338,-0.8307,-0.7782,-0.6017,-0.4747,-0.3953,-0.3595,-0.3462,-0.349,-0.3232,-0.2478,-0.157,-0.1586,-0.1001,-0.0101,0.0,0.0,0.0,0.0,0.0,0.0,0.0,0.0,0.0,0.0,0.0309,0.0716,0.0709,0.1111,0.1414,0.1414,0.1111,0.0707,0.0707,0.0404,0.0,0.0,0.0,0.0,0.0,0.0,0.0,0.0,0.0,0.0,0.0,0.0,0.0,0.0,0.0,0.0,0.0,0.0,0.0,0.0,0.0,0.0,0.0,0.0,0.0,0.0,0.0,0.0,0.0,0.0,0.0,0.0,0.0,0.0,0.0,0.0,0.0,0.0,0.0,0.0,0.0,0.0,0.0,0.0,0.0,0.0,0.0,0.0,0.0,0.0,0.0,0.0,0.0,-1.4061,-1.4222,-1.4423,-1.484,-1.5661,-1.6468,-1.7088,-1.7904,-1.8142,-1.7538,-1.6977,-1.6378,-1.5598,-1.5247,-1.512,-1.5174,-1.5181,-1.4811,-1.3782,-1.3682,-1.3211,-1.2267,-1.1889,-1.17,-1.17,-1.1227,-1.0564,-0.9732,-0.9041,-0.8042,-0.6784,-0.569,-0.4607,-0.3492,-0.3182,-0.3109,-0.3206,-0.3117,-0.2618,-0.1983,-0.1701,-0.1108,-0.0404,-0.0102,0.0,0.0,0.0,0.0,0.0,0.0,0.0,0.0,0.0,0.0414,0.0824,0.0812,0.1212,0.1616,0.1616,0.1414,0.1212,0.0909,0.0606,0.0404,0.0101,0.0,0.0,0.0,0.0,0.0,0.0,0.0,0.0,0.0,0.0,0.0,0.0,0.0,0.0,0.0,0.0,0.0,0.0,0.0,0.0,0.0,0.0,0.0,0.0,0.0,0.0,0.0,0.0,0.0,0.0,0.0,0.0,0.0,0.0,0.0,0.0,0.0,0.0,0.0,0.0,0.0,0.0,0.0,0.0,0.0,0.0,0.0,0.0,0.0,0.0,0.0,-1.4557,-1.4496,-1.4565,-1.5077,-1.5771,-1.652,-1.7187,-1.8081,-1.8456,-1.7812,-1.7335,-1.6752,-1.5704,-1.5411,-1.5228,-1.5187,-1.5181,-1.4811,-1.3782,-1.3682,-1.3211,-1.1983,-1.1605,-1.1227,-1.0943,-1.0465,-0.9753,-0.8723,-0.8389,-0.7542,-0.6243,-0.5424,-0.4383,-0.3195,-0.2942,-0.2934,-0.3007,-0.3089,-0.2858,-0.2402,-0.1814,-0.1313,-0.0707,-0.0204,0.0,0.0,0.0,0.0,0.0,0.0,0.0,0.0,0.0209,0.0623,0.1035,0.1219,0.1616,0.202,0.202,0.1919,0.1717,0.1212,0.0909,0.0707,0.0101,0.0,0.0,0.0201,0.0201,0.03,0.0397,0.0492,0.0389,0.0288,0.0191,0.0,0.0,0.0,0.0,0.0,0.0,0.0,0.0,0.0,0.0,0.0,0.0,0.0,0.0,0.0,0.0,0.0,0.0,0.0,0.0,0.0,0.0,0.0,0.0,0.0,0.0,0.0,0.0,0.0,0.0,0.0,0.0,0.0,0.0,0.0,0.0,0.0112,0.0224,0.0224,0.0337,0.0564,-1.4733,-1.4733,-1.478,-1.4936,-1.5918,-1.6733,-1.6999,-1.8167,-1.8582,-1.7509,-1.7411,-1.7091,-1.629,-1.569,-1.535,-1.5194,-1.5181,-1.4811,-1.3782,-1.3682,-1.3022,-1.151,-1.1416,-1.0943,-0.9901,-0.9423,-0.8806,-0.8252,-0.7247,-0.6678,-0.6451,-0.502,-0.3787,-0.2917,-0.3009,-0.3067,-0.31,-0.3161,-0.2905,-0.2323,-0.1818,-0.1313,-0.0707,-0.0202,0.0,0.0,0.0,0.0,0.0,0.0,0.0,0.0104,0.0623,0.1142,0.1654,0.2235,0.2726,0.323,0.323,0.2827,0.2222,0.1717,0.1212,0.0707,0.0101,0.0,0.0101,0.0699,0.0803,0.0904,0.1478,0.1583,0.1385,0.0874,0.0774,0.0579,0.0,0.0,0.0,0.0,0.0,0.0,0.0,0.0,0.0,0.0,0.0,0.0,0.0,0.0,0.0,0.0,0.0,0.0,0.0,0.0,0.0,0.0,0.0,0.0,0.0,0.0,0.0,0.0,0.0,0.0,0.0,0.0,0.0,0.0,0.0,0.0337,0.0898,0.0898,0.1241,0.1817,-1.5025,-1.5038,-1.5092,-1.5242,-1.587,-1.6525,-1.7076,-1.7666,-1.7927,-1.7486,-1.7419,-1.7081,-1.6105,-1.5629,-1.5391,-1.5343,-1.4959,-1.4335,-1.3776,-1.3022,-1.2172,-1.0943,-1.0181,-0.9513,-0.8853,-0.8379,-0.7795,-0.7301,-0.6996,-0.6261,-0.5132,-0.4216,-0.3503,-0.2981,-0.3073,-0.3131,-0.3161,-0.3201,-0.3122,-0.2928,-0.2323,-0.202,-0.182,-0.0916,-0.0512,-0.0515,-0.0104,0.0,0.0,0.0,0.0208,0.0623,0.1134,0.144,0.1744,0.2231,0.2827,0.323,0.323,0.3029,0.2726,0.1818,0.1515,0.1111,0.0202,0.0303,0.0606,0.0805,0.1109,0.1411,0.1603,0.1589,0.1575,0.137,0.1063,0.0766,0.0572,0.0,0.0,0.0,0.0,0.0,0.0,0.0,0.0,0.0,0.0,0.0,0.0,0.0,0.0,0.0,0.0,0.0,0.0,0.0,0.0,0.0,0.0,0.0,0.0,0.0,0.0,0.0,0.0,0.0,0.0,0.0,0.0,0.0,0.0,0.0337,0.0899,0.0904,0.1243,0.1805,-1.5248,-1.512,-1.5079,-1.5118,-1.5643,-1.6074,-1.6508,-1.7054,-1.7378,-1.7105,-1.6886,-1.6538,-1.5663,-1.5009,-1.4764,-1.5132,-1.4368,-1.3731,-1.3216,-1.2167,-1.1127,-1.0181,-0.9324,-0.8565,-0.7809,-0.7528,-0.7065,-0.6612,-0.6446,-0.5748,-0.4545,-0.3975,-0.3513,-0.3061,-0.3129,-0.3171,-0.319,-0.3219,-0.323,-0.313,-0.2626,-0.2424,-0.2325,-0.122,-0.0817,-0.0718,-0.0206,0.0,0.0,0.0,0.0206,0.0616,0.1327,0.1631,0.173,0.253,0.2936,0.3245,0.3234,0.323,0.2928,0.1818,0.162,0.132,0.0203,0.0405,0.0807,0.1106,0.1507,0.1907,0.2101,0.2177,0.206,0.1856,0.145,0.1055,0.0863,0.0476,0.0283,0.0,0.0,0.0561,0.0,0.0564,0.0569,0.0,0.0,0.0,0.0,0.0,0.0,0.0,0.0,0.0,0.0,0.0,0.0,0.0,0.0212,0.0426,0.064,0.043,0.0324,0.0324,0.011,0.0,0.0,0.0,0.0,0.0,0.0,0.0561,0.1236,0.1247,0.1812,0.2484,-1.5316,-1.4943,-1.4706,-1.4667,-1.5039,-1.5368,-1.5336,-1.6287,-1.6862,-1.6387,-1.6029,-1.5531,-1.5061,-1.3986,-1.3585,-1.438,-1.3585,-1.2774,-1.2094,-1.1127,-1.0077,-0.9039,-0.8565,-0.7809,-0.6862,-0.6862,-0.6609,-0.6188,-0.5658,-0.5196,-0.4712,-0.4118,-0.3533,-0.3148,-0.3175,-0.3189,-0.3193,-0.3219,-0.323,-0.313,-0.2626,-0.2424,-0.2323,-0.1313,-0.0812,-0.0819,-0.0205,0.0,0.0,0.0,0.0,0.0202,0.1313,0.1618,0.1821,0.2928,0.3251,0.3269,0.3239,0.3234,0.2933,0.1818,0.1526,0.1228,0.0205,0.0407,0.1008,0.1498,0.2093,0.2583,0.3055,0.3144,0.2936,0.2425,0.1936,0.1451,0.0968,0.0864,0.0859,0.0764,0.1241,0.1617,0.1605,0.1617,0.1627,0.0,0.0,0.0,0.0,0.0,0.0,0.0,0.0,0.0,0.0,0.0,0.0104,0.0105,0.0744,0.1174,0.1708,0.1185,0.0865,0.0865,0.022,0.0,0.0,0.0,0.0,0.0,0.0,0.0786,0.18,0.1813,0.2614,0.3639,-1.426,-1.3806,-1.3627,-1.3979,-1.3902,-1.4004,-1.4743,-1.4957,-1.5045,-1.5063,-1.4719,-1.4205,-1.3824,-1.2552,-1.1726,-1.1786,-1.1862,-1.1654,-1.1156,-1.0122,-0.9039,-0.7999,-0.7528,-0.6957,-0.6288,-0.6288,-0.6224,-0.6188,-0.5293,-0.4739,-0.471,-0.3702,-0.3231,-0.3178,-0.3185,-0.32,-0.3221,-0.3227,-0.323,-0.323,-0.3029,-0.3029,-0.2928,-0.1818,-0.1416,-0.1318,-0.0304,0.0,0.0,0.0,0.0304,0.0707,0.1414,0.1938,0.2365,0.3041,0.3251,0.3269,0.3239,0.3264,0.298,0.1926,0.1012,0.0305,0.0102,0.0712,0.1413,0.1612,0.2303,0.3093,0.3106,0.3155,0.3016,0.2933,0.2432,0.1935,0.1451,0.1352,0.1254,0.0868,0.1254,0.1647,0.1668,0.1674,0.1587,0.0,0.0,0.0792,0.08,0.0299,0.0,0.0,0.0,0.0,0.0,0.0416,0.0951,0.1396,0.1506,0.1615,0.1723,0.1204,0.0878,0.0874,0.0222,0.0,0.0,0.0,0.0,0.0,0.0,0.0789,0.1813,0.1829,0.2627,0.3643,-1.368,-1.3193,-1.2887,-1.2831,-1.2628,-1.2611,-1.3127,-1.3346,-1.3417,-1.3495,-1.3167,-1.2752,-1.2626,-1.128,-1.0322,-1.0311,-1.0201,-1.0064,-0.9689,-0.8687,-0.7809,-0.7338,-0.6767,-0.6384,-0.6098,-0.6098,-0.6128,-0.6188,-0.5121,-0.4663,-0.4712,-0.363,-0.3156,-0.3189,-0.3201,-0.3216,-0.323,-0.323,-0.323,-0.323,-0.323,-0.323,-0.313,-0.202,-0.1616,-0.1414,-0.0404,0.0,0.0,0.0,0.0202,0.0505,0.1111,0.1428,0.1853,0.2649,0.3076,0.331,0.328,0.3089,0.2692,0.1538,0.061,0.0,0.0,0.0814,0.1616,0.1616,0.2407,0.3193,0.3208,0.316,0.3123,0.314,0.264,0.215,0.1578,0.177,0.1771,0.1191,0.188,0.2378,0.2403,0.2305,0.2315,0.2338,0.162,0.0,0.1118,0.041,0.0,0.0,0.0,0.0,0.0,0.0632,0.1279,0.216,0.2152,0.2259,0.2593,0.1636,0.1314,0.1205,0.0333,0.0,0.0,0.0,0.0,0.0,0.0,0.0788,0.181,0.1824,0.2617,0.3734,-1.3206,-1.2606,-1.2079,-1.1589,-1.1397,-1.1372,-1.1362,-1.1726,-1.2005,-1.1983,-1.1588,-1.1357,-1.1357,-1.0104,-0.9188,-0.9172,-0.86,-0.8257,-0.8215,-0.7344,-0.6862,-0.6767,-0.6384,-0.6098,-0.6098,-0.6098,-0.6123,-0.6175,-0.5157,-0.4694,-0.4702,-0.3661,-0.3183,-0.319,-0.3217,-0.323,-0.323,-0.323,-0.323,-0.323,-0.323,-0.323,-0.313,-0.202,-0.1616,-0.1414,-0.0405,0.0,0.0,0.0,0.0,0.0101,0.0606,0.0814,0.1026,0.2051,0.2702,0.3156,0.3226,0.2799,0.2176,0.104,0.041,0.0,0.0,0.0814,0.1616,0.1616,0.2407,0.319,0.3194,0.3167,0.3144,0.3149,0.2752,0.2273,0.1814,0.2207,0.2312,0.1844,0.2645,0.3239,0.3243,0.3235,0.3234,0.3243,0.2245,0.164,0.1642,0.0626,0.0,0.0,0.0,0.0106,0.0213,0.0747,0.1608,0.27,0.2687,0.3012,0.3464,0.2279,0.1744,0.1644,0.0553,0.0,0.0,0.0,0.0,0.0,0.0112,0.0787,0.1801,0.1925,0.2713,0.3825,-1.2034,-1.1187,-1.0546,-1.0816,-1.0592,-1.0519,-1.0806,-1.0984,-1.1045,-1.0953,-1.0483,-1.0208,-1.0208,-0.8856,-0.7917,-0.7947,-0.7038,-0.6776,-0.714,-0.6991,-0.6672,-0.6288,-0.6098,-0.6098,-0.6098,-0.6098,-0.6104,-0.6112,-0.5069,-0.4616,-0.4558,-0.3625,-0.3164,-0.319,-0.3217,-0.323,-0.323,-0.323,-0.323,-0.323,-0.323,-0.323,-0.313,-0.202,-0.1616,-0.1416,-0.0408,0.0,0.0,0.0,0.0,0.0101,0.0606,0.0818,0.1036,0.1657,0.1887,0.212,0.3023,0.2581,0.1648,0.1046,0.0412,0.0,0.0,0.0814,0.1616,0.1616,0.2407,0.3195,0.3219,0.3179,0.3152,0.3178,0.3061,0.2868,0.2318,0.2723,0.2942,0.2376,0.2876,0.3279,0.3305,0.326,0.3251,0.3303,0.2261,0.1644,0.1656,0.0628,0.0,0.0,0.0,0.0426,0.1385,0.1503,0.2158,0.3349,0.3393,0.3403,0.3495,0.2328,0.1781,0.177,0.0558,0.0,0.0,0.0,0.0,0.0,0.0561,0.124,0.1813,0.2385,0.3291,0.4536,-1.1061,-1.0404,-0.9951,-0.9955,-0.9835,-0.9866,-0.9968,-0.9955,-0.9916,-0.9819,-0.9616,-0.9427,-0.9427,-0.8416,-0.766,-0.7623,-0.6696,-0.6235,-0.6525,-0.6496,-0.6384,-0.6098,-0.6098,-0.6112,-0.6145,-0.618,-0.6196,-0.6196,-0.5133,-0.4659,-0.4584,-0.3646,-0.3175,-0.319,-0.3217,-0.323,-0.3231,-0.3247,-0.3254,-0.3255,-0.3272,-0.3279,-0.3176,-0.2049,-0.164,-0.1538,-0.0412,0.0,0.0,0.0,0.0,0.0,0.0305,0.0411,0.052,0.1148,0.1477,0.1702,0.19,0.1668,0.1138,0.0521,0.0205,0.0,0.0,0.0811,0.1616,0.1616,0.2415,0.3215,0.3228,0.3208,0.3194,0.3209,0.32,0.301,0.2556,0.287,0.3089,0.261,0.3007,0.3299,0.3296,0.327,0.3266,0.3295,0.2589,0.2082,0.209,0.1371,0.0742,0.053,0.0532,0.0853,0.1705,0.2034,0.2581,0.3457,0.3484,0.3499,0.3502,0.2316,0.1772,0.1662,0.0556,0.0,0.0,0.0,0.0224,0.0561,0.0786,0.1462,0.2369,0.2933,0.3724,0.4741,-1.0383,-1.0051,-0.973,-0.9439,-0.9412,-0.944,-0.9354,-0.9326,-0.9277,-0.9187,-0.9158,-0.9047,-0.8952,-0.8112,-0.7544,-0.7433,-0.6588,-0.6112,-0.6098,-0.6098,-0.6104,-0.6117,-0.6134,-0.6161,-0.621,-0.6256,-0.6281,-0.6281,-0.5203,-0.4712,-0.4712,-0.3669,-0.3189,-0.319,-0.3217,-0.323,-0.3232,-0.3262,-0.3276,-0.3279,-0.3309,-0.3321,-0.3217,-0.2075,-0.166,-0.1557,-0.0416,0.0,0.0,0.0,0.0,0.0,0.0,0.0,0.0104,0.0525,0.0953,0.1279,0.0959,0.0947,0.0727,0.0104,0.0,0.0,0.0202,0.0909,0.1616,0.1717,0.2524,0.3232,0.3239,0.324,0.3243,0.325,0.3245,0.3058,0.2803,0.3013,0.3124,0.2732,0.3026,0.3311,0.3288,0.328,0.3281,0.3295,0.2817,0.2527,0.2532,0.2017,0.1494,0.1069,0.096,0.1172,0.1919,0.235,0.2894,0.3446,0.3468,0.3486,0.3502,0.2417,0.1987,0.189,0.0889,0.0446,0.0449,0.0449,0.0673,0.1122,0.1459,0.2131,0.3029,0.3927,0.46,0.5383,-1.0206,-0.9862,-0.9522,-0.9522,-0.9599,-0.9628,-0.9538,-0.9452,-0.9367,-0.9281,-0.9195,-0.8952,-0.8474,-0.7968,-0.7506,-0.6963,-0.6438,-0.6158,-0.6101,-0.6098,-0.6123,-0.618,-0.6237,-0.6267,-0.6273,-0.6278,-0.6281,-0.6281,-0.5203,-0.4712,-0.4712,-0.3669,-0.3189,-0.319,-0.3217,-0.323,-0.3232,-0.3262,-0.3276,-0.3279,-0.3309,-0.3321,-0.3217,-0.2075,-0.166,-0.1558,-0.0419,0.0,0.0,0.0,0.0,0.0,0.0,0.0,0.0,0.0105,0.0106,0.0213,0.0746,0.0947,0.0727,0.0104,0.0,0.0101,0.0606,0.1212,0.1717,0.2222,0.2827,0.3239,0.3268,0.3272,0.3281,0.331,0.3291,0.3294,0.3355,0.3339,0.3332,0.3363,0.334,0.332,0.3318,0.3292,0.3299,0.3355,0.2838,0.2534,0.2554,0.2025,0.1712,0.1726,0.1177,0.1385,0.2558,0.2579,0.2902,0.3416,0.3499,0.3527,0.3506,0.2891,0.2577,0.2577,0.1906,0.1682,0.1684,0.1684,0.1684,0.1796,0.2917,0.3477,0.3702,0.5495,0.6505,0.7175,-0.9793,-0.9617,-0.9542,-0.9542,-0.962,-0.9648,-0.9559,-0.9514,-0.944,-0.9301,-0.9248,-0.9036,-0.855,-0.8003,-0.7545,-0.6985,-0.6523,-0.6234,-0.6213,-0.621,-0.6204,-0.6188,-0.6284,-0.6335,-0.6335,-0.6373,-0.6393,-0.6393,-0.5295,-0.4796,-0.4696,-0.371,-0.3215,-0.3215,-0.3225,-0.324,-0.326,-0.3291,-0.3314,-0.3335,-0.3365,-0.3377,-0.3271,-0.2533,-0.2004,-0.1583,-0.0847,-0.0315,0.0,0.0,0.0,0.0,0.0,0.0,0.0,0.0,0.0,0.0,0.032,0.0317,0.0314,0.0104,0.0,0.0102,0.0708,0.1212,0.1717,0.2323,0.2827,0.3239,0.327,0.3276,0.3285,0.3315,0.3311,0.3318,0.336,0.3356,0.3354,0.3365,0.3356,0.3341,0.3322,0.3328,0.3341,0.3365,0.3172,0.308,0.3091,0.2572,0.2482,0.283,0.2267,0.2149,0.258,0.2896,0.3218,0.3441,0.3493,0.3524,0.3531,0.2902,0.2692,0.2692,0.2021,0.1796,0.1796,0.2256,0.2592,0.3031,0.4288,0.4957,0.5495,0.6836,0.7513,0.7955,-0.9546,-0.9567,-0.9587,-0.9587,-0.9636,-0.9661,-0.9595,-0.9563,-0.9489,-0.9338,-0.9297,-0.898,-0.8277,-0.7931,-0.7488,-0.683,-0.6482,-0.63,-0.6281,-0.6297,-0.6289,-0.6248,-0.6343,-0.6398,-0.6398,-0.6439,-0.6461,-0.6259,-0.5251,-0.4746,-0.4544,-0.3635,-0.323,-0.3231,-0.324,-0.3255,-0.3279,-0.3318,-0.3347,-0.3369,-0.34,-0.3412,-0.3306,-0.2772,-0.2345,-0.1919,-0.1172,-0.0634,-0.0208,-0.0104,0.0,0.0,0.0,0.0,0.0,0.0,0.0,0.0,0.0,0.0,0.0,0.0,0.0,0.0205,0.0914,0.1316,0.1818,0.2525,0.2936,0.3254,0.3284,0.3298,0.3314,0.3344,0.335,0.3356,0.3378,0.3381,0.3377,0.3367,0.3366,0.3358,0.3337,0.3354,0.337,0.338,0.34,0.3416,0.3426,0.3122,0.3041,0.3513,0.3152,0.2921,0.2929,0.3217,0.3427,0.3457,0.3487,0.3516,0.3434,0.3129,0.3029,0.2917,0.2579,0.2473,0.2705,0.3398,0.3969,0.4637,0.5895,0.6562,0.7089,0.8188,0.8629,0.8856,-0.9563,-0.962,-0.9681,-0.9681,-0.9681,-0.9681,-0.9681,-0.9604,-0.951,-0.942,-0.9334,-0.886,-0.7725,-0.7755,-0.7329,-0.6293,-0.63,-0.6346,-0.6286,-0.6338,-0.6371,-0.6371,-0.6428,-0.6461,-0.6461,-0.6461,-0.6259,-0.5652,-0.5049,-0.4544,-0.4038,-0.3433,-0.323,-0.3231,-0.3262,-0.3276,-0.328,-0.334,-0.3366,-0.337,-0.34,-0.3412,-0.3306,-0.2772,-0.2558,-0.2452,-0.1279,-0.0954,-0.084,-0.0208,0.0,0.0,0.0,0.0,0.0,0.0,0.0,0.0,0.0,0.0,0.0,0.0,0.0,0.0307,0.1332,0.1627,0.1919,0.3029,0.3254,0.3285,0.3315,0.3345,0.3377,0.3407,0.3412,0.3412,0.3412,0.3412,0.34,0.337,0.3367,0.3367,0.3367,0.3367,0.338,0.341,0.3412,0.3426,0.3456,0.3457,0.3484,0.354,0.3487,0.3472,0.3502,0.3442,0.3427,0.3457,0.3489,0.3516,0.3544,0.3576,0.3589,0.3589,0.3589,0.3945,0.466,0.5223,0.5933,0.6658,0.7744,0.8171,0.8388,0.9436,0.9862,0.9973,-0.9644,-0.9661,-0.9681,-0.9681,-0.9681,-0.9681,-0.9681,-0.9657,-0.9583,-0.9428,-0.9383,-0.8946,-0.7804,-0.7742,-0.7313,-0.6409,-0.6349,-0.6382,-0.6406,-0.6425,-0.6433,-0.6433,-0.6452,-0.6461,-0.6461,-0.6461,-0.6238,-0.5597,-0.5032,-0.4529,-0.3999,-0.3421,-0.323,-0.3231,-0.3262,-0.3287,-0.331,-0.335,-0.3378,-0.3399,-0.3408,-0.3412,-0.3412,-0.3198,-0.2878,-0.2452,-0.1706,-0.1267,-0.0833,-0.0208,0.0,0.0,0.0,0.0,0.0,0.0,0.0,0.0,0.0,0.0,0.0,0.0,0.0,0.031,0.1447,0.1642,0.1938,0.3058,0.3269,0.3285,0.3315,0.3345,0.3271,0.2875,0.3198,0.3306,0.2878,0.3198,0.3408,0.3399,0.3399,0.3399,0.3399,0.3399,0.3401,0.3411,0.3431,0.3457,0.3487,0.3506,0.3527,0.3544,0.3509,0.3483,0.3471,0.3453,0.3459,0.349,0.3516,0.3549,0.3576,0.3587,0.3815,0.4264,0.4288,0.4872,0.5911,0.6671,0.7261,0.7925,0.9054,0.9469,0.9518,1.0228,1.0484,1.0444,-0.9689,-0.9681,-0.9681,-0.9681,-0.9681,-0.9681,-0.9681,-0.9681,-0.9628,-0.9481,-0.9428,-0.8986,-0.7838,-0.7735,-0.7285,-0.639,-0.6343,-0.6387,-0.6422,-0.6447,-0.6461,-0.6461,-0.6461,-0.6461,-0.6461,-0.6461,-0.614,-0.5304,-0.4933,-0.443,-0.3704,-0.3335,-0.3249,-0.325,-0.3292,-0.3322,-0.3341,-0.3371,-0.3395,-0.3412,-0.3412,-0.3412,-0.3412,-0.3412,-0.3198,-0.2772,-0.2025,-0.1476,-0.1142,-0.0312,0.0,0.0,0.0,0.0,0.0,0.0,0.0,0.0,0.0,0.0,0.0,0.0,0.0,0.0312,0.1459,0.1658,0.1956,0.3088,0.3303,0.3317,0.3336,0.3153,0.2967,0.2663,0.2878,0.2985,0.2665,0.3091,0.3412,0.3412,0.3412,0.3412,0.3412,0.3412,0.3416,0.3429,0.3446,0.3475,0.3516,0.3534,0.3551,0.3562,0.3534,0.3509,0.3491,0.3491,0.3495,0.3502,0.3531,0.3562,0.3589,0.3815,0.4264,0.4826,0.5208,0.6031,0.7194,0.7987,0.8599,0.9274,1.0131,1.0417,1.0473,1.0692,1.069,1.0624,-0.9722,-0.9697,-0.9693,-0.9693,-0.9685,-0.9681,-0.9681,-0.9681,-0.9648,-0.9555,-0.9465,-0.8986,-0.7935,-0.7728,-0.7246,-0.6293,-0.6308,-0.6376,-0.6371,-0.6428,-0.6463,-0.6469,-0.6469,-0.6469,-0.6469,-0.6463,-0.5954,-0.4841,-0.4845,-0.424,-0.3231,-0.3261,-0.3277,-0.3283,-0.334,-0.3365,-0.3365,-0.3397,-0.3411,-0.3408,-0.3411,-0.3412,-0.3412,-0.3412,-0.3412,-0.3199,-0.2132,-0.1687,-0.1558,-0.0415,0.0,0.0,0.0,0.0,0.0,0.0,0.0,0.0,0.0,0.0,0.0,0.0106,0.0105,0.0417,0.1471,0.1778,0.2078,0.3117,0.3347,0.3366,0.3366,0.2967,0.2558,0.2558,0.2558,0.2558,0.2558,0.2985,0.3412,0.3412,0.3412,0.3412,0.3412,0.3414,0.3429,0.3459,0.3464,0.3489,0.354,0.3549,0.3558,0.3587,0.3558,0.3544,0.354,0.3544,0.3531,0.3506,0.3534,0.3673,0.3702,0.4376,0.4938,0.5607,0.6223,0.73,0.8511,0.9158,0.9931,1.0567,1.0868,1.1024,1.1004,1.0816,1.069,1.0624,-0.9898,-0.9836,-0.9787,-0.9787,-0.9726,-0.9681,-0.9681,-0.9681,-0.9648,-0.9555,-0.9465,-0.8986,-0.7935,-0.7681,-0.7211,-0.6348,-0.6371,-0.6422,-0.6373,-0.6428,-0.6482,-0.6531,-0.6531,-0.6531,-0.6531,-0.6485,-0.5937,-0.4794,-0.4831,-0.424,-0.3231,-0.3261,-0.3288,-0.3313,-0.335,-0.3354,-0.3335,-0.3389,-0.3399,-0.3378,-0.3403,-0.3412,-0.3412,-0.3412,-0.3412,-0.3199,-0.2132,-0.1693,-0.1571,-0.0416,0.0,0.0,0.0,0.0,0.0,0.0,0.0,0.0,0.0,0.0,0.0105,0.0638,0.074,0.0841,0.1591,0.2005,0.2517,0.3251,0.3362,0.3366,0.3366,0.2967,0.2452,0.2025,0.2345,0.2452,0.1919,0.2772,0.3412,0.3412,0.3412,0.3412,0.3412,0.3434,0.346,0.349,0.3513,0.3531,0.3544,0.3565,0.3572,0.3555,0.3549,0.3534,0.3513,0.3534,0.354,0.3538,0.4012,0.4256,0.4376,0.5383,0.6281,0.6844,0.763,0.86,0.9772,1.003,1.0567,1.1043,1.0983,1.1024,1.1004,1.0816,1.069,1.0616,-0.9963,-0.9881,-0.9816,-0.9816,-0.9742,-0.9681,-0.9681,-0.9681,-0.9665,-0.9616,-0.9489,-0.9001,-0.7987,-0.7687,-0.7268,-0.6285,-0.633,-0.6393,-0.6333,-0.6439,-0.6518,-0.6551,-0.6578,-0.6591,-0.6591,-0.6561,-0.6007,-0.4841,-0.4866,-0.4278,-0.3275,-0.3305,-0.3328,-0.3344,-0.3374,-0.338,-0.3366,-0.3399,-0.3403,-0.3389,-0.3405,-0.3412,-0.3412,-0.3412,-0.3412,-0.3199,-0.2132,-0.1378,-0.0841,-0.0208,0.0,0.0,0.0,0.0,0.0,0.0,0.0,0.0,0.0,0.0212,0.053,0.0852,0.1275,0.1801,0.2023,0.2337,0.2753,0.3282,0.3388,0.3282,0.307,0.2773,0.236,0.1823,0.2253,0.2467,0.2146,0.2886,0.3416,0.3431,0.3434,0.344,0.3453,0.3469,0.3491,0.352,0.3538,0.3551,0.3565,0.3583,0.3583,0.3565,0.3565,0.3558,0.3544,0.378,0.4012,0.4012,0.4368,0.4835,0.5413,0.6293,0.7188,0.8122,0.8799,0.9647,1.0582,1.0755,1.1051,1.1265,1.1098,1.1024,1.1004,1.0816,1.0722,1.0677,-1.0012,-0.9914,-0.984,-0.984,-0.9751,-0.9681,-0.9681,-0.9681,-0.9681,-0.9681,-0.9534,-0.9033,-0.8043,-0.7542,-0.7081,-0.621,-0.6281,-0.6365,-0.6313,-0.6461,-0.6561,-0.6581,-0.6627,-0.6651,-0.6651,-0.6651,-0.6105,-0.4923,-0.4923,-0.4328,-0.3329,-0.3355,-0.3369,-0.3375,-0.34,-0.341,-0.3405,-0.3415,-0.3416,-0.3412,-0.3423,-0.3427,-0.3427,-0.3422,-0.3419,-0.3312,-0.2133,-0.0955,0.0,0.0,0.0,0.0,0.0,0.0,0.0,0.0,0.0,0.0,0.0,0.0426,0.0959,0.1066,0.1814,0.2671,0.2778,0.2775,0.2878,0.3198,0.3306,0.3094,0.2563,0.2472,0.2269,0.184,0.2274,0.2598,0.2598,0.312,0.3437,0.3463,0.3465,0.3476,0.3506,0.3509,0.352,0.3551,0.3551,0.3562,0.3589,0.3589,0.3594,0.3596,0.3596,0.36,0.3604,0.4167,0.4619,0.4845,0.4957,0.5532,0.657,0.7322,0.8219,0.9282,0.9939,1.0551,1.1037,1.1204,1.1265,1.1245,1.109,1.1016,1.0984,1.0928,1.0978,1.1081,-1.0183,-1.0049,-0.9934,-0.9934,-0.9795,-0.9681,-0.9681,-0.9681,-0.9681,-0.9681,-0.9591,-0.9103,-0.805,-0.7046,-0.6429,-0.618,-0.6343,-0.6444,-0.6439,-0.651,-0.6597,-0.6698,-0.6711,-0.6714,-0.6714,-0.6714,-0.6163,-0.497,-0.497,-0.4473,-0.336,-0.3365,-0.3381,-0.3405,-0.341,-0.3397,-0.3375,-0.3429,-0.3435,-0.3416,-0.3469,-0.349,-0.3487,-0.3461,-0.345,-0.334,-0.2138,-0.0958,0.0,0.0,0.0,0.0,0.0,0.0,0.0,0.0,0.0,0.0,0.0,0.0426,0.0959,0.1492,0.2144,0.2696,0.3235,0.3323,0.3198,0.2772,0.2665,0.2565,0.1938,0.1835,0.1841,0.1854,0.2293,0.2621,0.2621,0.3164,0.3491,0.3495,0.3495,0.3506,0.3538,0.3538,0.3551,0.3583,0.3583,0.3587,0.3589,0.3589,0.36,0.3628,0.3628,0.3643,0.3667,0.424,0.5154,0.6186,0.6761,0.7051,0.7188,0.881,0.9711,0.988,1.0527,1.0837,1.1037,1.1143,1.1184,1.1171,1.1069,1.0971,1.1003,1.1352,1.1871,1.2312,-1.0216,-1.0073,-0.9851,-0.9851,-0.9804,-0.9681,-0.9681,-0.9681,-0.9681,-0.9681,-0.9301,-0.8738,-0.8014,-0.7021,-0.6305,-0.6245,-0.6376,-0.6461,-0.6461,-0.6548,-0.6638,-0.6722,-0.676,-0.6777,-0.6777,-0.6777,-0.6235,-0.5056,-0.5029,-0.4412,-0.3392,-0.3392,-0.3399,-0.3412,-0.3412,-0.3414,-0.3419,-0.3446,-0.346,-0.3465,-0.3491,-0.3502,-0.3499,-0.3143,-0.3025,-0.2806,-0.171,-0.0746,0.0,0.0,0.0,0.0,0.0,0.0,0.0,0.0,0.0,0.0,0.0,0.0642,0.1503,0.1718,0.2486,0.3155,0.3483,0.3472,0.3246,0.2704,0.2596,0.2383,0.1849,0.2075,0.2305,0.2314,0.2755,0.3086,0.3086,0.3294,0.3509,0.3524,0.354,0.3555,0.3569,0.3569,0.3576,0.3589,0.3589,0.3589,0.3589,0.3589,0.3604,0.3636,0.3636,0.3763,0.4252,0.4827,0.575,0.701,0.7963,0.8641,0.8923,0.9718,1.0292,1.0638,1.0858,1.0984,1.1024,1.1069,1.109,1.1078,1.0984,1.1116,1.1373,1.1884,1.2312,1.2534]}]]